GFSWCAN_sfc_thetae_000.txt.gz
Theta_e
316 315 314 313 312 311 311 311 311 311 311 311 311 312 313 313 311 308 304 304 302 296 296 298 298 293 293 291 291 291 292 292 290 288 288 285 285 286 284 285 285 284 281 281 282 279 278 293 294 289 291 293 293 293
315 314 313 312 311 310 310 310 310 309 310 310 311 312 312 313 312 311 303 306 305 301 299 302 302 302 298 299 293 291 293 290 292 289 287 286 285 283 284 283 287 285 289 286 286 285 293 293 293 294 295 293 292 293
312 313 312 310 310 310 309 309 309 309 309 309 310 311 312 313 312 310 303 303 303 299 299 299 299 304 305 303 302 294 294 296 295 296 290 289 287 287 283 284 284 288 291 289 290 290 291 293 292 293 294 294 294 294
311 312 311 310 309 309 308 308 308 308 308 309 309 310 311 312 312 311 306 306 306 301 295 298 305 301 305 306 305 303 300 302 301 300 295 293 292 291 288 288 287 289 290 289 288 291 291 292 293 293 293 293 292 292
311 310 310 309 309 308 308 308 307 308 308 308 310 310 310 312 312 310 308 308 309 302 296 298 301 302 304 307 304 304 302 300 297 295 293 291 294 293 289 288 287 290 289 287 286 291 291 291 292 293 292 292 292 291
310 309 309 308 308 308 308 307 307 307 307 309 309 309 310 311 311 308 302 307 309 308 299 288 300 298 302 304 303 302 301 300 298 295 292 294 296 291 286 287 290 291 293 293 291 292 292 292 291 290 290 290 290 289
309 309 308 308 308 308 307 307 307 307 308 307 308 309 310 309 305 301 297 303 307 308 296 290 292 297 299 301 299 299 300 298 297 295 293 293 293 291 287 286 290 291 293 291 291 292 290 290 289 289 289 289 290 290
306 308 308 308 308 307 307 307 307 307 307 308 309 309 308 307 305 300 301 305 307 302 298 287 289 292 298 295 294 299 296 297 296 294 294 292 293 291 287 289 288 291 290 290 290 290 290 288 286 287 289 288 287 286
299 304 307 307 307 307 307 307 307 306 307 308 308 308 304 300 297 298 303 304 304 300 291 290 286 286 296 294 295 294 295 290 295 292 292 292 289 286 288 289 289 290 289 289 286 284 281 285 284 286 287 288 286 286
297 299 301 304 307 307 307 307 307 306 307 307 303 298 292 296 301 301 298 295 292 294 293 290 293 288 293 292 290 290 290 288 285 289 292 288 287 290 290 292 291 291 290 286 283 280 276 277 285 284 285 287 285 287
298 297 299 301 303 306 306 307 307 306 307 300 294 290 296 300 296 292 288 287 289 286 291 291 291 289 293 288 289 289 285 285 280 280 285 283 279 284 288 288 285 283 285 286 284 282 284 285 285 285 285 285 284 283
297 298 298 299 301 302 306 306 307 304 300 298 295 296 295 291 287 285 284 285 285 282 288 288 289 290 290 291 287 288 284 284 278 285 283 279 282 285 286 284 284 284 285 286 286 285 285 285 285 285 284 283 282 279
295 297 297 298 299 300 301 306 306 302 301 296 291 287 288 286 280 279 275 280 280 283 286 287 286 289 289 288 286 285 281 281 284 280 277 279 282 283 282 283 283 283 283 283 282 282 282 283 284 283 281 279 277 276
295 296 297 298 299 299 299 301 303 302 297 290 286 282 281 278 279 277 276 277 281 284 287 287 286 286 287 285 285 281 283 283 278 275 275 280 281 283 283 283 282 281 283 283 282 281 279 279 279 279 279 277 275 275
296 296 296 297 298 298 299 301 303 299 292 287 285 279 279 276 279 278 281 281 282 285 287 284 283 284 283 282 283 282 278 276 277 276 280 279 276 277 282 281 281 281 281 281 281 280 279 277 276 275 276 275 275 275
296 296 294 297 297 298 299 300 298 294 289 286 283 277 281 280 280 274 271 282 283 285 283 280 282 277 279 278 278 276 276 275 278 280 278 274 281 281 281 282 281 281 281 281 281 281 280 277 276 275 275 275 275 275
294 292 296 297 297 298 299 293 291 285 285 284 281 282 277 277 280 277 282 282 286 279 274 281 271 271 280 276 274 277 277 280 280 277 276 278 280 282 283 283 281 280 280 281 280 280 280 278 276 274 274 275 275 275
292 293 296 297 296 295 293 290 285 285 283 284 278 280 285 285 284 282 281 283 283 280 278 276 276 273 271 271 272 279 282 279 276 277 277 280 281 282 280 281 281 280 279 279 277 274 271 270 273 275 273 272 271 271
293 293 295 296 295 291 285 285 285 282 283 284 283 281 283 285 285 283 282 282 282 282 284 281 279 272 274 277 279 279 271 274 280 281 282 283 283 282 282 277 276 273 273 273 276 277 276 275 275 275 274 274 273 273
295 295 294 293 295 287 284 284 287 284 280 283 282 282 281 281 282 282 283 282 277 277 280 277 277 278 281 283 280 277 278 280 281 280 280 281 281 273 275 274 276 276 276 273 271 276 271 274 274 274 273 273 272 272
293 293 293 289 287 286 285 284 283 284 282 281 282 281 280 282 282 280 279 279 276 282 280 280 281 283 280 278 282 281 281 280 280 280 280 276 279 273 271 270 270 275 275 274 275 275 276 273 272 271 269 272 272 272
288 294 288 289 285 284 283 285 283 282 279 280 281 280 278 278 279 281 284 282 282 278 281 281 280 278 278 280 280 280 281 280 279 278 282 280 275 271 271 272 272 269 270 270 271 272 271 271 271 271 270 268 270 269
291 290 285 284 281 280 279 285 279 279 275 277 279 277 277 277 278 281 280 280 279 281 280 279 277 277 278 278 278 276 277 277 276 275 276 275 275 273 272 273 274 273 271 271 271 271 269 274 273 269 269 268 267 267
289 278 276 277 279 276 277 278 280 278 276 275 275 273 274 276 279 277 276 273 276 278 278 276 274 273 272 271 274 275 275 275 274 274 274 272 270 274 275 274 274 274 273 272 271 269 269 269 271 267 266 265 265 264
275 275 271 270 275 274 274 274 275 275 273 272 268 270 271 275 271 271 269 271 272 272 271 271 270 269 265 268 273 273 275 275 273 271 274 275 274 273 271 271 271 271 271 269 269 268 266 265 265 266 265 264 263 264
273 275 274 264 272 267 272 271 272 272 269 265 266 270 268 269 268 268 269 267 265 267 266 265 265 266 271 271 271 272 272 272 275 273 273 275 275 272 269 268 267 267 270 270 267 266 265 265 265 263 265 265 269 265
265 268 275 278 274 272 269 271 273 268 263 264 269 268 266 264 266 269 266 266 266 265 267 267 266 265 265 267 271 271 271 270 270 270 272 272 272 273 271 268 266 268 270 269 266 266 265 266 265 264 264 263 262 263
272 271 268 271 269 267 264 264 262 264 266 269 270 263 265 267 267 264 263 264 262 262 263 266 266 264 264 264 266 268 268 269 269 270 271 271 270 270 270 271 271 274 268 266 266 265 266 264 263 263 263 263 263 263
273 271 271 272 266 264 264 266 267 269 273 270 267 265 265 265 259 260 265 264 261 263 263 262 264 264 266 267 266 267 269 268 269 268 267 267 267 268 267 267 267 266 264 265 271 270 266 265 265 265 261 262 263 262
272 267 266 262 265 268 268 268 264 262 269 268 268 264 264 261 261 263 263 261 262 261 260 260 262 263 263 262 263 266 267 268 268 268 267 266 266 266 264 264 264 263 262 262 262 262 269 265 263 260 260 260 261 261
268 265 263 263 264 262 263 268 268 271 266 264 266 264 261 259 263 263 260 261 262 262 262 262 264 266 267 266 265 265 265 267 268 268 268 268 266 266 264 263 263 261 261 261 261 261 258 258 256 256 259 258 258 261
272 273 266 261 260 262 264 264 265 264 263 263 262 262 264 265 265 261 262 260 262 263 267 266 265 265 267 267 268 270 271 268 267 267 267 266 266 266 265 264 261 262 262 262 261 260 258 256 257 258 260 258 258 259
267 267 265 264 262 263 267 268 267 263 260 259 261 264 264 267 264 260 264 264 264 264 264 265 265 266 266 266 267 268 268 267 270 274 275 275 273 271 267 264 263 263 263 263 262 261 259 257 257 259 258 257 257 258

GFSWCAN_sfc_thetae_003.txt.gz
Theta_e
305 305 307 315 314 314 314 313 313 313 313 313 312 313 313 313 311 307 303 302 301 294 294 297 297 292 291 291 290 290 291 291 289 288 288 286 286 286 285 285 284 284 282 282 283 281 281 292 292 289 290 292 292 292
303 305 307 312 314 313 313 312 312 312 312 312 312 312 312 313 312 309 302 304 303 298 297 300 300 299 297 297 291 289 292 290 292 288 286 286 285 284 285 284 287 286 288 286 286 285 292 292 292 293 293 292 292 291
303 304 307 308 313 312 312 312 312 311 311 311 311 312 312 313 312 309 302 302 302 298 298 298 297 302 304 302 300 293 292 294 294 294 289 287 286 285 283 284 283 287 290 288 288 289 290 291 293 293 293 293 293 293
301 302 304 309 312 311 311 311 310 310 311 311 311 311 312 312 312 311 302 304 302 299 294 296 303 299 303 304 302 300 298 299 298 296 292 290 290 289 286 287 286 288 290 289 288 289 290 291 291 292 293 291 291 291
300 301 304 311 311 311 310 309 309 309 310 310 310 310 311 312 311 310 307 305 306 300 296 295 299 300 302 303 301 301 300 297 294 293 292 291 294 293 290 287 288 289 289 287 287 291 290 290 292 292 291 290 291 289
299 302 305 311 310 310 309 309 308 308 309 309 309 310 311 311 311 305 298 305 307 307 298 291 299 297 299 301 300 299 300 299 295 294 292 294 296 291 285 283 289 290 292 293 291 291 291 291 291 289 289 288 288 287
298 304 310 310 309 309 309 308 308 308 309 309 309 309 310 310 304 299 296 302 307 307 297 290 291 297 298 300 299 299 300 298 298 294 292 293 293 291 286 284 289 290 292 291 290 291 290 290 288 286 287 289 290 290
298 299 308 309 309 308 308 308 307 308 309 309 310 309 308 307 305 300 302 306 306 301 296 287 288 291 298 294 293 298 296 297 295 293 293 292 292 289 284 287 287 289 290 290 290 289 289 287 286 285 286 288 287 287
298 298 302 308 308 308 308 307 307 308 308 309 308 308 304 300 298 299 303 305 303 299 290 289 286 285 295 294 294 294 295 290 295 292 291 291 287 284 286 287 288 290 288 289 284 283 285 284 286 283 282 282 286 286
298 298 299 303 307 308 307 307 307 307 308 308 303 297 292 297 302 302 298 296 292 293 291 286 291 287 293 292 289 289 290 288 285 289 292 288 286 290 288 290 290 290 289 286 283 282 278 277 277 281 283 284 287 287
297 298 298 300 304 307 307 307 307 307 307 300 294 290 296 301 296 292 287 288 288 283 290 289 288 288 293 288 287 289 285 284 280 284 286 283 277 281 285 285 284 283 286 286 284 282 282 282 284 283 284 284 284 283
297 297 298 299 301 306 307 307 307 305 301 298 295 297 296 290 287 281 285 284 284 281 286 288 288 290 290 291 287 286 283 283 278 285 282 277 278 281 283 282 283 284 285 285 285 285 283 283 283 283 283 283 283 283
297 296 297 298 299 301 305 307 306 303 301 297 292 288 288 286 280 278 275 280 280 284 287 287 286 288 289 289 286 285 281 280 283 280 278 275 278 280 280 282 282 282 284 284 284 283 283 282 283 283 283 282 281 277
296 296 297 298 299 299 300 303 305 302 297 288 285 281 283 280 278 277 276 278 282 286 288 289 286 286 288 285 286 281 283 282 274 270 271 275 278 282 283 282 282 281 282 282 282 282 281 279 279 281 281 280 277 276
296 297 296 296 298 298 298 299 300 299 291 285 286 281 281 276 276 271 280 284 284 290 288 285 283 284 281 282 282 282 279 276 274 272 274 276 277 278 282 282 282 281 280 280 280 280 280 279 277 276 276 275 275 275
296 295 294 296 297 298 298 298 295 293 286 285 283 278 281 277 279 280 279 283 286 287 284 283 280 278 279 280 280 278 276 271 274 274 277 274 280 280 281 282 281 280 280 280 280 280 281 280 278 276 275 274 274 274
294 291 295 297 297 297 297 291 289 285 285 284 282 282 276 274 279 281 284 286 287 288 278 280 273 273 279 276 273 277 275 276 277 275 274 278 280 280 281 283 283 282 281 280 279 280 280 280 277 275 274 274 274 274
291 293 296 296 296 294 290 287 285 284 283 284 280 280 282 283 282 282 281 285 286 283 279 275 277 276 273 272 272 277 275 273 273 276 278 279 280 281 280 282 283 281 280 279 275 273 271 270 273 275 273 271 270 270
291 293 295 296 295 289 285 285 285 282 283 284 281 280 283 283 283 282 284 284 284 283 282 280 273 272 275 276 275 270 270 273 279 280 280 281 282 282 282 278 277 273 273 272 276 276 276 276 275 275 274 274 273 273
295 295 295 294 293 285 284 284 285 283 281 283 283 282 282 282 282 285 284 283 282 281 275 273 277 279 280 280 277 276 277 280 280 279 280 280 281 274 275 274 276 275 275 272 270 275 271 274 274 274 273 273 272 272
292 292 292 290 286 286 284 284 283 283 282 281 282 281 281 281 280 281 283 280 278 271 275 280 281 281 278 278 281 282 280 280 279 279 280 275 278 272 270 268 268 275 275 274 274 274 277 274 273 271 270 272 272 271
287 292 288 288 285 284 283 285 283 282 280 280 281 281 279 278 278 280 284 281 276 278 280 281 280 281 280 279 279 279 280 279 278 277 281 280 275 271 271 270 270 268 268 268 269 270 270 271 272 271 271 269 270 268
291 289 285 284 281 280 278 284 278 279 276 277 279 277 276 277 279 283 279 279 279 281 280 280 278 277 277 277 277 275 275 275 274 274 275 274 274 271 270 271 270 266 266 269 270 271 269 274 273 268 267 267 266 266
288 277 277 277 278 275 280 277 280 277 276 276 276 273 273 273 279 277 274 273 276 279 277 274 272 271 271 270 273 273 273 274 273 273 273 271 269 272 273 272 273 271 272 271 270 269 268 268 270 266 265 264 263 263
272 269 271 270 273 272 271 271 272 273 272 273 272 272 272 276 274 272 269 272 274 273 271 271 271 271 267 269 272 272 273 274 271 271 275 276 273 271 269 270 270 270 271 269 268 267 265 264 264 264 263 263 262 262
268 272 264 263 267 268 272 267 271 272 272 271 270 271 271 272 269 268 269 269 269 268 266 264 265 266 271 271 271 271 270 271 273 272 271 273 273 268 264 266 265 267 270 269 267 266 266 265 264 261 262 263 268 263
262 266 274 277 273 271 268 272 274 271 269 269 268 268 269 267 266 269 268 269 269 267 268 267 267 266 266 267 271 271 270 267 267 267 271 271 271 272 269 267 266 268 270 269 269 267 265 264 263 262 262 261 260 261
271 270 267 274 268 266 264 264 263 265 267 270 270 264 266 268 268 266 265 266 266 265 265 267 267 265 263 264 264 268 267 268 268 269 270 270 270 269 270 270 272 274 268 267 264 264 265 264 264 265 264 262 261 260
268 272 271 272 267 264 263 265 266 268 272 269 267 265 265 265 259 260 265 264 261 263 263 263 264 263 265 266 266 266 267 267 265 264 265 264 266 266 267 268 267 266 265 265 271 269 266 266 266 264 261 261 261 260
272 270 266 265 266 268 266 266 263 262 268 267 268 264 263 261 260 262 262 260 261 260 259 259 259 259 259 260 261 265 266 266 268 268 266 267 267 266 265 265 265 264 264 265 265 264 269 264 262 259 259 259 260 261
270 264 262 263 263 260 261 266 267 269 263 260 262 262 260 258 261 262 259 259 259 258 260 259 260 260 263 264 263 264 265 267 267 266 267 268 267 266 265 265 264 263 263 262 261 261 258 257 256 255 258 256 257 260
274 274 270 263 262 261 263 262 261 261 260 261 259 260 261 263 262 262 261 259 260 261 264 263 263 264 266 267 267 269 271 267 267 267 267 267 267 266 267 266 264 263 263 262 260 260 258 256 256 257 259 257 257 258
268 268 266 263 260 259 263 261 262 259 259 258 259 262 261 264 262 259 263 263 261 263 264 264 265 266 266 267 266 268 268 267 271 275 276 275 273 270 267 264 263 263 263 263 261 260 259 256 256 258 258 256 256 257

GFSWCAN_sfc_thetae_006.txt.gz
Theta_e
301 302 304 306 306 309 313 315 314 313 313 313 313 313 313 313 311 306 301 301 299 292 293 296 296 291 290 290 288 288 290 290 289 288 287 285 285 286 284 285 283 283 281 281 282 281 281 292 292 289 290 291 292 292
301 301 303 304 305 307 312 314 313 312 312 313 313 313 313 313 312 308 300 302 302 296 296 299 299 299 296 296 290 289 291 289 291 288 287 286 285 284 285 284 287 285 287 285 286 286 291 291 291 293 293 292 291 292
300 301 302 302 303 305 308 313 312 311 311 312 312 312 313 313 313 310 301 301 300 297 296 296 296 301 303 301 299 293 292 293 292 293 289 288 286 286 284 285 284 286 290 288 288 289 290 292 293 293 293 293 293 293
300 300 301 301 304 305 307 312 311 311 311 311 312 312 312 313 312 310 303 305 301 298 294 296 302 297 301 302 300 299 297 298 296 294 291 291 289 288 285 287 286 288 289 288 287 288 290 291 292 293 293 292 292 291
300 300 300 301 303 305 308 311 311 310 311 311 311 311 312 312 311 309 306 306 307 301 296 296 299 299 300 301 300 300 298 295 293 291 290 289 292 290 287 287 287 288 288 287 286 291 290 290 292 292 292 291 289 289
299 299 300 301 305 306 311 310 309 309 310 309 310 310 311 311 310 306 301 306 306 304 297 291 299 298 300 300 299 298 298 296 293 291 289 291 293 289 282 283 288 289 291 291 290 290 290 290 290 289 289 288 287 286
299 299 300 300 305 309 310 309 308 309 309 309 309 310 310 309 304 298 295 300 306 306 296 290 291 297 298 300 299 299 300 297 295 290 289 291 291 292 286 283 288 288 291 290 290 291 289 287 288 286 287 289 290 289
298 298 299 299 304 310 309 308 308 308 309 309 309 310 308 307 304 300 303 305 304 300 297 287 288 292 298 294 294 298 296 297 295 292 293 291 292 291 284 286 286 288 289 288 287 287 288 286 285 285 285 285 283 284
297 298 298 298 301 309 308 308 307 308 308 309 308 307 304 300 296 300 304 304 302 299 289 288 286 284 296 293 294 294 295 291 295 291 291 291 288 282 286 287 287 288 288 287 284 286 282 283 285 282 284 280 282 283
297 298 297 298 299 306 308 307 307 308 308 307 303 296 291 297 303 300 296 295 290 292 289 287 290 288 291 292 289 290 290 288 285 290 290 285 283 288 288 289 290 289 288 286 284 282 278 277 276 281 282 283 284 284
297 298 297 298 298 301 307 307 308 308 307 300 293 291 296 301 295 289 286 284 287 284 289 286 287 287 292 287 287 288 280 281 276 281 286 279 279 281 283 284 284 285 287 285 286 283 283 283 283 282 282 282 283 283
297 297 297 297 298 299 307 307 308 305 301 297 296 297 295 290 286 282 285 281 283 278 284 288 287 288 289 291 286 286 278 277 278 284 284 274 279 281 282 281 282 285 286 285 284 284 284 284 283 282 282 282 282 282
296 296 297 297 297 299 306 307 307 303 302 297 293 288 289 286 281 279 278 280 273 279 286 287 286 288 287 287 283 281 280 276 284 280 280 277 277 278 279 281 281 282 284 284 284 283 283 280 282 282 282 282 280 280
296 296 297 296 297 297 304 305 304 302 296 288 285 281 283 280 281 276 275 276 279 285 288 289 286 286 287 285 285 280 281 282 277 275 273 273 278 282 281 281 281 281 282 282 282 282 280 280 279 279 281 280 279 277
296 296 296 295 297 296 296 301 303 297 290 285 286 281 280 276 276 271 272 283 286 290 288 284 282 285 282 282 281 278 278 276 278 272 274 275 278 280 281 281 281 280 280 280 280 280 280 280 278 278 277 276 276 276
296 295 293 296 297 296 295 295 294 292 285 285 283 278 280 275 278 280 282 284 286 290 285 284 279 276 278 279 279 275 273 272 273 273 275 277 280 281 282 281 281 281 280 280 279 279 279 279 278 278 276 275 274 274
295 290 295 296 296 295 295 289 288 285 285 284 280 281 275 271 276 282 285 286 287 288 279 280 277 277 279 277 274 275 273 273 272 272 274 278 282 281 281 282 283 282 281 280 279 279 279 279 277 276 276 276 274 274
290 292 295 296 295 293 289 286 285 285 282 283 281 281 282 282 282 284 284 286 286 283 281 278 279 277 275 273 272 275 272 270 271 275 277 279 279 280 280 282 283 281 282 280 274 271 270 270 274 276 273 271 270 271
291 292 295 295 293 288 284 285 285 282 283 282 281 283 281 282 283 284 284 284 284 284 282 279 276 274 275 274 272 269 269 272 279 280 281 281 281 282 281 276 275 274 273 271 275 276 276 275 275 274 274 273 273 272
294 295 295 294 292 285 284 284 285 283 280 282 284 282 282 282 284 285 284 283 284 283 279 277 278 280 279 279 276 275 275 280 281 280 280 280 279 273 274 274 276 275 274 271 270 275 270 274 273 273 273 273 272 271
290 292 292 291 286 285 284 283 283 283 282 280 281 282 281 283 284 285 283 283 283 281 278 280 281 281 277 278 281 281 280 280 280 280 279 274 276 271 270 268 267 274 274 273 274 274 275 273 271 271 270 272 271 271
289 292 288 289 284 284 281 284 282 282 280 280 280 280 280 280 280 282 284 282 281 281 282 282 279 278 277 278 278 278 279 279 278 278 281 280 275 271 271 269 270 266 266 266 268 270 270 270 271 271 270 269 269 268
289 288 282 282 280 278 278 284 278 279 277 277 279 277 277 278 279 283 279 280 280 280 281 280 277 276 277 276 275 274 275 275 274 274 275 274 273 270 269 271 268 266 266 268 269 271 270 274 273 269 269 266 265 265
286 275 274 274 277 275 280 277 279 277 277 276 275 273 274 276 280 279 277 275 276 278 277 275 275 274 273 273 273 273 273 273 272 272 272 271 270 271 272 272 272 269 270 270 270 270 269 269 270 266 265 263 263 263
269 269 268 265 270 273 273 273 274 272 272 273 272 272 272 275 274 272 272 272 274 273 271 271 272 271 268 269 271 271 272 273 272 273 274 276 273 271 269 270 270 270 271 270 269 268 266 266 265 265 266 264 262 261
264 269 265 261 265 267 270 270 272 271 272 271 271 272 272 273 272 270 270 270 269 268 265 264 266 267 270 271 271 271 270 271 273 272 271 273 272 268 266 268 267 268 269 269 268 267 266 266 266 264 264 262 268 261
263 267 273 276 272 271 269 272 274 273 270 270 271 270 270 268 268 269 268 269 269 266 267 267 266 266 267 268 271 270 270 267 268 269 271 271 271 271 269 269 267 268 270 269 269 268 267 266 265 263 262 260 259 259
270 270 265 271 267 265 264 264 263 265 268 271 271 267 269 270 270 266 266 267 265 263 264 267 267 266 266 265 266 269 268 268 269 269 271 270 269 269 270 270 271 274 269 268 267 266 266 265 264 263 262 260 259 259
267 271 270 272 267 262 262 264 264 267 272 270 268 266 265 266 262 263 266 265 264 264 264 265 264 264 266 267 267 267 267 266 265 263 264 263 263 265 265 267 266 266 267 267 273 269 265 265 263 263 260 260 260 258
271 267 266 267 267 268 265 265 262 261 267 266 267 264 263 262 261 263 262 260 261 261 260 260 261 261 261 262 263 265 265 264 265 265 264 263 265 265 265 266 266 265 265 265 264 262 270 263 262 259 258 258 259 259
268 264 261 262 262 259 259 266 265 268 261 258 259 260 259 256 261 261 258 258 258 257 260 259 259 259 262 261 258 261 262 264 263 265 266 268 267 266 265 265 265 264 263 262 261 260 258 257 255 254 256 255 256 259
273 271 269 265 263 261 265 264 259 258 259 258 257 257 259 260 259 259 260 257 257 259 263 260 260 261 262 263 264 265 271 267 267 268 268 268 267 267 267 266 263 264 263 262 260 260 257 255 256 256 258 257 257 257
266 265 264 265 261 261 263 263 261 258 257 256 259 261 260 263 261 259 263 262 260 261 263 262 264 266 266 266 267 268 269 267 271 274 275 273 272 270 266 264 264 263 263 262 261 260 258 256 255 257 257 256 255 256

GFSWCAN_sfc_thetae_009.txt.gz
Theta_e
299 301 301 302 303 304 304 305 307 314 314 313 313 313 313 313 312 307 301 300 297 293 293 294 294 290 290 289 288 289 292 291 291 290 290 287 287 286 285 285 285 285 283 283 283 281 281 293 293 289 292 292 293 293
298 300 301 301 302 303 304 305 306 312 313 312 312 313 313 313 312 309 300 301 301 295 296 298 298 296 295 294 289 288 290 289 291 288 286 286 284 284 285 284 287 285 287 285 286 285 291 291 292 293 293 292 292 293
297 300 301 301 301 303 303 305 306 309 312 312 312 313 313 313 313 310 304 299 298 295 296 295 294 300 302 300 299 293 291 292 292 292 288 287 286 286 284 285 285 287 290 288 288 289 289 291 292 293 294 293 293 294
297 299 300 301 301 302 303 304 305 307 311 312 313 312 312 313 313 310 304 303 300 296 292 295 300 295 301 300 299 298 296 296 295 293 290 288 287 287 285 287 287 288 290 288 286 289 290 291 291 292 292 292 292 292
296 299 299 300 300 301 303 306 307 308 311 312 312 312 312 312 312 309 307 307 306 299 295 296 298 298 299 299 299 299 297 295 292 291 289 288 289 289 288 287 286 288 288 287 286 291 291 291 292 292 292 290 291 291
296 298 299 300 300 300 302 306 306 310 310 310 310 310 311 311 310 306 301 306 306 305 298 291 298 298 298 298 298 297 296 294 292 290 287 289 291 289 282 284 289 288 290 291 290 290 289 290 290 290 289 288 288 287
296 298 299 299 299 300 302 305 308 310 310 310 309 309 310 310 305 300 297 301 306 306 296 289 291 297 298 300 298 297 299 294 292 289 288 288 289 288 285 284 288 288 290 289 290 291 289 288 289 288 288 289 291 288
296 298 299 299 299 299 301 306 309 309 309 309 309 309 308 307 305 300 303 305 305 299 297 287 288 293 298 294 294 297 296 296 295 293 292 289 289 287 284 286 286 288 288 287 286 287 290 287 286 286 286 285 283 284
296 298 298 299 299 299 300 309 308 308 308 309 309 307 304 301 298 300 305 304 302 298 289 286 286 286 296 293 294 293 295 291 294 291 291 291 285 281 287 286 286 286 288 286 285 283 284 285 284 285 284 282 283 284
296 297 298 298 298 298 299 308 308 308 308 307 304 297 292 297 303 302 297 295 293 293 288 287 289 288 293 292 289 290 290 288 285 290 291 287 282 286 287 288 289 288 287 285 283 280 281 277 278 281 282 284 284 284
296 297 298 298 298 297 298 308 308 308 307 300 293 291 296 301 294 290 285 284 285 285 288 288 287 288 292 288 287 288 284 283 281 281 286 281 279 284 285 286 285 286 288 288 288 285 284 283 282 282 282 283 283 283
296 297 297 297 297 297 298 302 307 305 302 297 296 297 295 290 286 283 277 279 284 281 286 288 284 286 288 290 286 285 277 275 271 284 284 276 280 281 283 284 285 286 286 285 284 284 283 283 283 283 282 282 283 282
295 296 297 297 297 297 297 305 307 303 302 298 293 288 289 286 279 280 278 280 273 279 287 286 285 287 285 284 279 278 271 273 281 281 277 278 279 280 281 282 283 285 285 283 283 282 282 282 282 282 281 281 281 281
295 296 296 297 297 296 296 305 304 300 295 288 285 282 284 281 281 277 277 277 280 284 288 287 285 285 283 278 281 279 278 280 275 271 273 276 278 282 280 281 282 282 282 282 282 281 281 281 280 280 280 280 280 279
295 296 295 296 297 296 295 299 300 295 290 285 286 281 282 277 275 269 274 283 286 290 287 283 281 284 281 282 282 280 278 276 277 272 273 272 274 278 279 280 280 280 280 280 279 280 280 280 278 278 278 277 277 277
295 294 293 296 296 296 295 294 295 291 285 285 283 279 280 275 278 280 280 285 287 288 283 280 275 274 278 278 279 271 275 271 274 274 275 276 280 281 281 280 280 280 280 280 279 279 279 279 279 278 276 276 275 274
294 290 295 296 296 295 293 288 288 285 285 284 280 282 276 273 278 281 286 288 291 287 275 276 274 273 279 277 275 272 272 273 273 273 277 282 283 281 281 282 282 281 281 280 279 278 279 278 277 276 276 275 274 274
287 291 295 295 294 292 288 285 285 285 282 281 281 279 283 283 283 285 285 286 287 282 280 276 279 276 272 271 271 273 270 268 271 276 279 280 280 280 281 282 282 281 281 279 274 271 270 271 274 276 272 270 270 271
289 291 295 295 293 288 284 284 285 281 281 282 282 283 282 283 284 284 285 284 285 284 282 280 275 270 273 273 272 268 267 273 279 279 280 280 281 282 281 275 276 273 273 271 275 275 274 274 274 274 273 273 272 272
294 294 294 294 292 285 283 283 285 283 279 282 283 282 282 282 284 285 284 284 284 284 283 278 277 278 279 278 276 276 276 280 283 280 279 279 279 274 274 272 276 275 274 273 273 275 271 272 273 273 272 272 271 271
289 290 292 291 287 286 284 283 282 282 281 280 282 282 281 284 284 284 283 284 284 282 278 280 279 279 279 279 281 281 281 281 280 281 279 276 276 273 270 269 270 276 274 273 273 275 274 272 270 270 268 271 271 270
285 291 287 287 283 283 281 283 281 282 279 279 279 281 280 280 281 282 284 282 281 280 280 280 278 279 278 278 278 278 279 279 279 280 282 280 276 273 271 270 270 265 266 265 269 269 268 269 270 270 269 267 269 268
288 286 281 277 278 276 277 282 278 278 277 277 279 277 277 278 280 283 279 280 279 280 280 278 275 277 276 275 276 275 276 276 275 275 275 274 273 272 271 272 269 268 267 267 269 270 269 274 273 268 268 266 266 266
285 274 272 269 273 273 278 275 278 277 277 276 275 271 273 276 280 279 276 276 277 279 277 276 275 274 274 273 273 273 273 274 274 273 273 273 272 272 273 272 272 269 270 270 271 270 270 269 270 266 265 264 263 263
269 267 266 261 266 269 271 273 273 273 272 273 273 272 273 275 275 275 274 274 275 273 273 274 275 274 272 271 272 272 272 274 273 273 274 274 271 270 270 270 270 270 272 270 269 268 265 265 264 264 263 263 261 259
264 265 266 260 266 267 269 271 272 272 273 271 271 272 273 274 274 271 271 271 270 270 270 269 269 270 270 271 271 270 270 270 273 271 271 273 272 269 267 268 267 267 268 269 268 267 266 264 263 261 261 262 267 259
262 266 273 276 271 270 269 272 274 271 270 271 272 272 272 271 270 270 269 269 269 268 269 268 269 269 269 269 270 270 270 267 269 269 271 270 270 271 269 268 266 267 269 268 268 267 266 265 263 262 261 259 259 259
269 269 264 267 266 264 262 263 264 264 266 271 273 270 269 269 269 266 265 267 266 266 266 267 267 267 267 267 268 269 268 269 269 270 271 270 269 268 269 270 270 274 267 266 266 266 266 264 262 261 261 260 258 258
266 270 269 265 263 262 261 263 263 266 271 269 267 267 267 265 263 264 266 265 265 265 265 265 265 265 267 267 267 268 268 267 265 264 264 263 263 265 264 265 266 265 265 266 273 268 263 263 263 262 260 260 259 257
271 266 266 268 267 267 263 263 261 264 266 265 266 265 264 262 263 264 264 263 264 262 261 261 261 261 262 264 264 265 265 264 264 265 264 262 263 263 261 263 264 263 264 264 263 263 270 262 262 259 258 258 258 258
267 263 261 261 261 258 260 266 265 266 260 257 257 260 260 259 262 263 260 260 260 260 261 260 260 260 263 263 260 261 263 263 262 263 263 266 266 265 265 264 263 261 261 261 261 260 257 256 255 254 256 254 255 259
273 268 268 266 262 263 267 266 259 257 259 258 257 255 257 259 258 258 261 259 260 262 264 264 263 263 264 264 265 264 270 263 264 266 267 267 267 266 266 264 262 262 262 262 260 259 257 255 256 256 257 255 256 256
263 263 264 262 259 259 262 261 261 257 256 255 257 259 258 261 259 259 262 261 260 261 262 262 263 265 266 266 267 268 269 266 268 274 274 273 272 269 264 263 263 262 263 262 260 259 258 255 255 256 256 255 254 255

GFSWCAN_sfc_thetae_012.txt.gz
Theta_e
298 298 297 299 301 302 303 303 304 306 307 307 313 312 312 313 312 308 305 306 305 298 300 300 299 294 293 295 292 292 296 295 295 294 293 290 290 293 290 292 291 290 290 289 292 288 286 297 296 294 297 299 300 300
298 298 297 299 301 302 302 302 304 305 305 307 313 312 312 313 312 310 304 306 306 302 301 302 303 302 299 298 295 292 298 296 299 294 294 293 290 290 292 288 292 290 295 291 293 292 296 297 297 298 302 299 298 298
297 298 297 298 300 301 302 302 303 305 306 307 312 313 313 313 313 310 305 305 304 303 302 302 300 305 305 304 304 298 297 298 297 300 296 295 293 293 290 291 291 292 295 293 292 294 294 296 297 298 300 298 299 299
297 297 297 298 300 301 301 302 303 305 307 307 313 313 313 313 313 311 305 307 306 304 298 299 304 302 305 304 303 302 300 301 300 301 299 297 294 293 293 293 294 295 295 293 291 293 295 296 297 298 297 298 297 297
298 297 298 298 300 301 301 301 302 305 307 307 312 312 312 312 312 310 308 307 309 305 298 298 301 303 304 303 302 303 302 302 301 300 299 297 295 295 293 294 293 295 295 294 294 298 298 297 298 298 297 297 297 296
298 297 297 297 300 300 301 301 302 305 308 308 311 311 311 311 311 307 301 306 308 308 300 295 301 300 302 304 303 302 302 300 300 300 297 297 297 297 295 294 296 296 296 297 297 299 296 299 298 298 296 295 295 295
297 297 297 297 300 300 300 300 301 305 307 310 310 310 310 310 308 301 299 303 307 307 298 291 294 299 300 302 302 302 303 301 301 297 296 297 296 297 294 293 295 296 297 295 296 296 293 296 295 296 295 294 294 293
297 297 297 297 299 299 300 300 301 304 309 310 310 310 309 308 306 302 305 306 306 301 298 288 289 294 299 297 298 300 300 301 298 297 296 296 295 295 291 295 293 295 295 295 293 293 297 294 294 293 293 291 289 290
297 297 297 297 299 299 299 299 300 305 309 309 309 308 305 302 299 301 305 304 303 300 290 290 288 288 298 294 295 295 297 293 296 295 294 295 293 290 296 294 293 293 294 292 290 291 292 291 289 288 288 289 289 289
296 297 296 297 298 298 299 299 301 309 308 308 305 299 293 298 304 304 301 298 295 294 293 290 294 290 294 293 290 292 292 289 287 290 293 289 291 294 293 295 296 295 293 291 288 285 286 285 286 287 289 290 290 290
296 296 296 297 298 298 298 298 305 308 307 301 294 292 298 302 298 293 291 292 291 288 291 291 292 290 294 289 288 290 287 287 286 288 289 286 285 290 291 292 293 293 292 295 297 295 293 292 289 288 287 288 289 289
296 296 296 297 297 298 297 298 302 305 303 298 297 298 296 293 290 287 287 285 286 287 288 289 289 292 291 293 289 287 285 284 283 288 285 282 287 286 290 290 292 292 293 291 293 290 289 289 289 288 288 288 288 288
296 295 296 297 297 298 297 297 301 304 302 298 294 289 291 288 283 283 280 283 282 285 287 287 286 289 289 290 286 285 282 283 287 283 281 285 285 285 288 290 290 291 289 288 288 288 288 287 287 288 287 287 287 287
296 295 296 296 297 297 296 296 303 302 296 289 285 284 285 283 285 285 285 285 287 288 288 289 286 288 288 287 285 281 282 284 279 277 279 284 285 286 286 288 290 287 288 287 287 286 286 286 285 285 286 286 286 285
295 295 296 296 297 297 295 295 299 295 290 286 288 284 284 282 280 278 281 285 287 292 288 287 287 287 284 284 284 281 279 277 279 278 283 284 284 284 285 288 289 286 286 286 286 285 285 284 284 283 283 283 283 283
295 294 293 296 296 296 294 293 294 291 285 285 284 281 281 281 280 282 283 286 289 291 288 287 282 282 280 283 280 278 278 277 281 284 285 283 284 285 285 288 287 286 286 285 285 285 284 284 284 284 282 281 280 280
293 290 295 296 296 295 293 288 289 285 285 284 282 284 281 281 282 283 287 289 293 289 284 284 282 280 282 279 279 280 279 283 283 282 283 286 285 284 284 284 283 283 284 284 283 284 283 283 282 282 281 278 278 277
289 291 295 296 295 292 289 285 285 285 282 283 282 283 285 285 284 286 287 289 289 285 284 283 283 280 279 277 278 282 281 278 278 283 284 284 285 285 285 285 285 284 284 283 282 280 279 280 281 280 277 276 276 276
291 293 294 295 293 288 285 285 285 281 282 283 284 284 285 285 286 287 287 285 285 286 284 284 281 279 280 281 281 279 280 282 282 283 283 284 286 285 284 283 282 281 280 279 280 280 280 280 280 279 277 277 277 276
293 293 293 293 292 286 283 283 286 283 280 283 284 283 283 284 285 285 285 285 286 286 285 283 280 281 282 282 282 283 282 284 284 283 282 282 282 282 282 282 281 279 278 278 278 278 277 276 277 277 277 277 276 275
289 290 291 290 287 286 284 282 282 283 282 281 283 283 282 285 285 285 285 286 286 285 283 282 281 281 282 283 284 285 284 285 286 286 283 281 279 279 277 278 279 280 280 279 279 279 278 277 276 277 277 275 275 275
286 291 287 287 284 283 282 284 282 283 281 281 281 283 282 282 282 284 285 284 283 282 283 283 281 282 281 279 280 281 281 282 282 283 283 282 278 278 277 278 279 277 278 278 278 276 275 275 275 274 274 274 274 274
287 284 279 278 277 278 277 283 279 280 278 278 280 278 278 279 281 285 280 281 280 280 281 279 278 279 277 278 278 277 278 279 278 278 277 276 276 276 276 276 277 276 275 273 275 274 274 276 275 272 273 272 272 271
284 275 273 272 272 272 278 276 279 278 278 277 275 273 274 277 280 280 276 276 278 279 279 277 278 277 277 277 275 275 276 277 276 276 277 277 275 274 275 275 275 274 275 274 274 273 273 273 273 271 271 270 270 269
271 268 268 264 268 271 272 274 274 274 273 274 274 273 274 276 277 276 274 275 275 274 275 277 278 277 275 273 274 274 275 277 276 275 275 275 274 273 272 272 272 273 274 273 272 271 270 270 270 270 270 270 269 267
264 269 266 265 269 268 270 271 273 273 274 272 272 274 275 276 274 272 271 271 271 271 271 274 276 275 274 275 274 274 273 274 276 274 274 275 275 274 272 271 271 271 272 273 271 270 269 269 269 268 268 268 270 266
263 266 274 276 272 271 270 273 274 274 273 272 273 274 274 272 271 269 270 268 269 269 270 270 272 274 273 272 271 271 271 272 273 272 272 272 272 273 273 272 271 271 272 272 271 271 269 269 268 268 267 267 266 266
270 270 265 267 267 266 264 265 267 268 270 273 275 272 271 269 269 266 266 267 268 269 269 269 270 271 271 271 271 271 270 271 271 271 272 271 270 270 271 272 272 274 271 271 271 270 270 269 269 268 267 266 266 265
267 271 271 262 263 264 263 265 266 269 270 270 271 270 267 265 264 265 266 267 267 269 269 268 268 269 269 269 270 270 270 271 270 268 267 267 268 268 269 270 270 271 272 273 274 270 267 268 268 267 265 265 265 264
271 268 267 269 268 266 264 265 265 267 268 267 268 266 265 264 264 265 266 266 266 266 265 267 266 268 268 268 268 268 268 268 269 270 268 267 268 267 267 268 268 268 268 270 270 271 271 267 267 265 264 264 264 264
269 265 263 265 265 262 263 267 267 267 262 261 261 264 263 262 264 264 263 263 263 264 265 265 264 265 267 267 267 268 268 268 266 266 267 268 267 267 267 267 266 266 267 266 266 266 264 264 263 262 263 261 260 262
272 270 269 267 263 264 267 266 261 260 260 261 260 259 260 263 261 261 262 262 263 264 266 265 266 266 266 266 267 267 270 267 267 268 268 268 268 268 268 267 266 266 266 266 265 264 262 262 263 262 262 260 259 259
265 266 264 262 260 260 263 261 261 257 259 258 259 260 260 263 260 261 263 263 262 263 265 266 266 267 268 268 269 270 270 269 270 274 274 273 272 270 268 267 267 267 266 266 265 264 262 261 261 260 260 258 258 258

GFSWCAN_sfc_thetae_015.txt.gz
Theta_e
299 299 299 298 298 299 300 302 303 303 304 306 306 307 312 313 313 309 305 306 305 302 303 302 301 296 295 297 294 294 297 299 300 295 294 294 294 294 295 297 294 292 290 290 292 289 286 300 298 294 299 301 301 302
299 299 299 298 298 299 300 302 302 303 303 305 307 307 312 312 312 311 304 307 310 304 303 305 305 304 301 299 296 294 298 297 301 296 297 296 292 294 295 289 295 293 297 295 296 295 298 300 300 301 304 302 302 302
299 299 299 299 298 299 300 302 302 302 303 305 306 308 313 313 313 311 305 306 306 302 304 303 302 305 307 305 304 297 299 300 299 302 299 298 293 297 293 294 294 295 296 296 294 296 297 299 299 301 304 302 302 301
299 299 299 298 298 298 300 301 302 302 303 305 307 308 312 313 313 310 305 307 308 306 300 301 306 304 306 306 304 304 301 302 303 303 299 298 296 297 296 296 296 296 296 296 295 295 296 298 299 300 300 300 299 300
299 298 298 298 298 298 299 301 301 302 302 304 306 308 312 312 313 311 308 307 311 306 300 299 304 304 306 305 303 304 303 303 302 300 300 298 297 296 296 296 295 297 297 295 294 299 300 299 300 300 299 298 298 297
298 298 298 298 298 298 299 300 301 301 302 303 307 309 312 311 311 308 301 307 310 310 302 295 303 302 304 306 304 303 304 304 305 304 301 300 299 299 297 295 300 300 300 300 299 302 301 300 300 301 299 299 299 298
298 298 298 298 298 298 299 300 300 301 301 304 307 310 310 310 310 302 300 304 309 310 300 294 295 301 303 304 304 304 305 303 304 302 301 301 299 299 298 295 301 300 300 299 300 300 297 298 297 299 298 297 297 296
298 298 298 297 297 297 299 299 300 300 301 304 307 310 310 309 306 303 305 307 308 301 299 291 291 296 301 300 299 303 302 303 301 300 300 300 298 298 294 300 299 299 299 298 298 298 300 300 298 297 296 294 292 292
298 298 298 297 297 297 299 300 300 300 301 303 309 308 306 303 299 302 304 305 305 301 291 291 288 288 299 296 298 300 301 298 299 298 298 298 298 293 299 300 297 298 297 296 295 296 296 295 293 292 292 292 291 291
298 298 297 297 297 298 299 300 299 299 301 308 306 299 294 299 305 304 299 298 295 295 294 293 297 291 295 294 291 293 294 292 288 293 296 293 294 300 299 299 300 298 298 293 290 287 287 287 289 291 291 292 292 291
298 297 297 297 296 298 299 299 298 300 307 301 295 294 300 304 300 295 291 293 293 289 293 294 296 291 296 291 289 291 288 289 287 290 291 291 289 294 296 296 299 299 296 296 299 296 295 293 293 291 290 291 291 291
297 297 296 296 297 298 299 298 297 295 302 299 298 299 297 294 293 289 290 289 287 289 290 291 293 296 292 294 290 288 288 288 285 290 288 284 290 289 293 294 296 296 297 297 297 296 295 293 292 291 290 289 290 290
297 296 296 296 297 298 297 297 297 298 303 299 295 290 293 290 285 284 282 284 284 289 289 289 288 291 291 292 288 288 285 286 289 284 283 288 287 289 292 294 294 296 295 294 291 291 290 289 290 289 289 290 290 289
296 296 295 296 297 297 297 297 295 299 297 290 288 284 287 284 287 288 289 289 291 290 289 291 289 290 291 289 289 285 286 286 282 279 281 287 288 290 292 293 291 290 290 289 289 289 288 288 287 289 289 289 289 287
296 295 296 295 296 297 297 295 295 296 291 286 289 285 285 286 283 284 286 288 290 292 291 290 291 290 287 285 286 283 280 279 282 282 287 287 288 288 290 292 290 289 289 288 288 288 287 287 287 285 286 286 286 285
295 295 294 295 296 296 296 292 293 292 285 285 285 283 284 284 282 283 285 287 292 292 292 293 286 285 282 286 281 281 280 280 286 288 288 288 287 289 291 289 289 288 288 288 288 287 286 286 286 285 284 283 282 282
294 291 294 295 295 296 293 287 288 285 285 285 284 287 286 287 286 286 288 290 294 290 288 289 284 284 285 281 282 285 282 287 287 286 288 288 288 289 291 287 286 287 287 287 286 286 286 285 285 284 282 280 280 280
291 294 295 295 295 292 289 285 285 285 282 284 284 284 286 287 286 288 289 292 292 289 289 286 286 281 281 280 282 286 285 283 285 287 287 286 287 288 287 286 286 286 285 285 284 283 283 283 284 282 279 278 278 278
294 294 294 294 293 288 285 285 285 282 283 284 285 286 286 286 289 289 289 288 288 289 286 286 284 283 284 286 286 284 284 285 285 286 286 287 288 287 286 285 285 284 283 283 284 283 283 284 283 281 279 279 278 278
293 293 293 293 292 286 284 284 287 284 282 284 286 284 285 285 286 287 286 287 288 287 286 285 283 283 284 284 285 286 286 287 285 284 283 285 286 285 285 285 283 282 282 281 281 282 280 279 279 279 279 279 278 277
291 291 292 291 288 287 284 282 283 283 284 283 284 285 284 286 285 285 285 287 285 285 283 283 283 282 284 285 286 287 287 288 287 287 284 282 282 283 282 282 283 282 282 282 280 280 280 278 278 279 279 277 277 276
289 291 288 288 285 285 283 284 282 284 283 283 283 284 284 284 284 285 285 285 283 283 284 283 283 283 282 281 282 284 285 285 285 284 284 283 280 280 281 281 281 281 282 282 282 279 278 277 277 277 276 276 276 274
288 287 284 283 280 280 279 284 280 281 279 280 281 280 279 281 282 285 281 282 280 281 283 281 280 281 279 280 280 280 282 282 281 280 280 279 279 279 280 280 281 279 277 278 279 277 276 277 277 275 275 275 274 272
285 278 275 275 276 274 280 278 280 279 279 278 277 275 276 278 281 281 277 278 278 281 280 279 280 278 279 279 277 277 278 280 278 279 280 279 277 277 278 277 278 278 278 277 277 276 275 275 275 273 273 272 272 271
274 272 273 269 275 274 274 276 276 276 274 275 275 275 276 277 278 276 275 275 275 276 279 280 280 281 278 276 276 276 278 280 279 276 277 278 276 275 274 275 275 275 277 275 274 273 272 272 273 272 272 272 270 269
268 272 271 271 272 272 273 273 274 275 275 274 274 276 277 278 275 271 271 270 271 271 271 274 278 277 276 277 276 276 275 277 279 276 275 277 278 277 275 274 273 272 275 275 273 272 271 272 271 271 271 271 271 269
268 270 275 278 275 274 273 275 276 275 274 273 275 276 276 273 270 269 271 269 270 270 271 272 275 276 274 273 273 273 274 274 275 274 274 274 274 276 277 275 274 273 274 274 274 273 271 271 270 270 269 269 268 268
274 274 269 272 272 271 269 270 272 271 273 274 276 272 272 269 268 267 267 269 269 271 271 271 272 274 273 273 273 273 272 273 273 273 273 273 272 273 273 274 274 276 274 273 273 273 272 272 271 270 269 269 268 267
273 274 274 264 268 271 269 270 271 271 271 272 272 271 268 266 265 266 267 268 269 272 271 270 270 272 272 272 273 273 274 274 273 271 270 269 270 270 273 273 273 274 274 273 275 272 270 270 270 269 267 267 267 266
273 274 271 268 265 269 270 268 270 271 270 269 270 268 267 265 265 267 267 267 268 267 268 269 270 272 271 271 270 270 271 271 272 273 271 270 270 270 271 271 271 272 273 273 273 272 273 270 269 267 266 266 266 266
273 272 269 270 268 268 268 269 270 269 268 267 267 268 266 265 266 266 265 265 266 268 269 269 268 270 271 271 271 271 270 270 269 269 271 270 270 270 269 269 269 270 270 270 269 268 267 266 266 265 265 262 261 263
273 271 271 268 267 268 269 269 267 267 267 268 266 265 265 267 266 264 264 265 267 268 270 269 269 268 269 270 270 271 273 270 270 271 270 270 269 269 269 268 268 269 269 268 267 266 264 264 265 264 263 261 260 260
270 269 267 266 265 265 267 267 266 265 265 264 264 264 264 266 265 263 265 265 264 266 267 268 269 270 270 270 271 271 271 270 271 274 274 273 272 270 269 269 269 268 268 267 267 266 264 262 262 261 261 259 258 259

GFSWCAN_sfc_thetae_018.txt.gz
Theta_e
300 300 300 300 300 300 299 300 301 303 303 304 304 305 307 308 313 310 305 307 304 299 301 302 301 296 296 296 292 294 295 297 297 292 292 292 291 292 292 293 290 290 288 289 289 287 284 296 295 291 295 296 297 298
299 299 300 300 300 299 299 299 300 302 302 303 304 305 307 308 312 311 304 307 307 302 302 304 305 304 301 301 296 295 296 298 301 296 294 293 290 291 290 288 296 290 293 292 292 292 297 297 297 298 300 297 297 296
299 299 300 300 299 299 299 299 300 302 302 303 304 305 307 308 313 311 305 305 305 301 301 301 300 304 305 304 304 297 298 300 299 300 297 295 291 293 287 289 289 292 293 291 292 292 293 296 297 297 299 298 298 298
299 299 299 300 299 299 299 299 300 301 302 303 304 305 306 308 313 311 305 306 306 304 297 299 305 302 306 305 304 303 302 302 302 302 298 296 295 296 294 292 291 292 292 292 291 292 294 296 296 297 297 297 297 297
299 299 299 299 299 298 299 298 299 301 301 302 303 304 306 308 312 311 308 307 309 304 298 298 303 303 305 304 302 303 302 301 299 298 298 296 296 294 294 293 292 294 293 292 291 297 295 294 296 298 296 295 296 295
299 299 299 298 299 298 298 298 299 301 301 302 302 303 307 308 311 307 300 307 308 308 301 293 302 300 302 303 302 300 302 302 301 300 298 298 298 296 290 290 298 296 297 297 295 297 297 297 297 297 296 295 295 294
298 299 299 298 299 298 298 298 299 300 301 301 302 303 305 310 310 302 300 304 309 309 299 292 293 300 301 303 302 301 302 301 300 298 297 296 295 295 294 292 297 296 296 296 297 297 294 295 294 296 296 295 295 293
299 299 299 299 299 298 297 298 299 300 301 301 302 304 306 310 307 303 305 308 308 302 300 289 291 295 300 299 296 300 299 299 298 297 296 295 294 294 290 296 295 295 295 294 294 295 296 295 295 292 292 290 289 289
299 299 299 299 298 297 297 299 300 300 300 300 302 304 306 303 299 301 306 305 304 301 291 291 288 288 299 296 297 297 298 295 296 295 294 294 293 288 295 296 294 294 293 291 291 292 293 291 290 289 288 288 288 288
299 299 298 298 297 297 297 299 300 299 299 300 300 300 294 299 305 304 300 297 294 294 294 292 296 290 295 294 291 292 292 290 287 291 292 289 288 296 297 296 295 295 293 292 288 287 288 285 287 287 288 288 288 288
299 298 298 297 297 296 298 299 299 298 299 301 296 293 300 304 299 296 291 290 292 288 292 293 294 291 295 290 289 291 287 287 285 287 288 286 287 291 292 293 295 293 293 292 292 290 291 291 289 288 287 288 287 287
298 298 297 297 296 297 298 299 298 293 288 292 296 299 297 294 291 288 288 287 287 286 290 291 291 293 292 293 289 289 286 285 284 287 286 283 286 286 290 291 292 292 293 293 293 292 292 289 288 288 287 286 287 288
297 297 296 296 296 297 297 298 298 296 295 297 295 289 291 288 285 283 281 283 284 288 288 288 287 289 290 289 287 286 281 284 285 283 283 283 283 286 288 291 291 293 295 292 290 288 288 287 287 287 286 287 287 286
296 296 295 296 296 296 296 298 297 293 290 288 285 284 286 284 284 284 284 284 287 288 289 289 287 287 288 285 285 277 282 283 275 274 277 281 283 287 288 289 288 287 288 288 287 286 286 286 286 286 286 286 285 283
296 295 295 295 295 296 296 297 294 291 288 285 285 285 284 285 283 284 286 286 288 291 290 287 286 287 283 280 282 281 278 271 278 278 281 281 282 285 287 287 286 286 286 286 287 285 285 284 284 282 282 282 282 281
295 295 293 295 295 296 296 292 290 291 285 285 285 283 285 284 281 283 285 286 290 292 288 287 282 277 277 279 275 273 274 274 279 281 280 281 285 286 286 285 285 286 287 286 285 284 283 282 281 280 279 279 279 279
295 290 295 295 295 295 294 287 286 285 285 285 283 286 285 282 282 284 288 290 294 290 285 283 277 275 283 275 274 279 277 281 279 278 280 280 284 285 285 284 283 285 285 284 283 283 282 281 280 279 277 276 276 276
290 292 295 295 294 293 290 285 285 285 282 284 283 284 284 285 285 287 288 292 289 285 285 284 283 279 275 273 275 280 280 275 278 280 280 284 284 283 284 282 283 283 282 281 280 278 279 279 279 277 276 275 274 274
292 292 294 294 293 288 285 285 285 282 282 284 284 285 286 286 288 288 289 289 286 287 286 285 282 277 278 279 279 278 279 277 281 281 282 284 284 283 283 283 283 281 280 279 280 280 279 279 278 277 276 276 275 275
294 293 293 293 292 285 283 283 286 283 281 283 285 284 284 284 286 287 286 286 287 286 284 280 280 279 280 281 281 283 282 284 284 281 280 282 284 284 283 283 281 280 279 279 279 280 277 277 277 276 276 276 275 274
291 291 291 290 288 286 283 281 282 282 283 282 284 284 284 285 285 285 285 286 285 285 281 281 280 281 282 283 284 285 284 285 283 285 282 280 282 282 280 279 279 280 279 278 278 278 276 275 275 274 273 274 274 274
288 291 286 287 280 280 282 284 281 283 282 282 283 284 283 283 284 284 285 284 282 281 283 282 282 282 281 280 281 283 284 284 284 284 284 283 279 279 279 278 279 278 278 277 276 275 274 274 274 274 274 273 273 271
288 286 282 278 273 274 277 284 279 280 278 279 281 280 279 280 281 284 280 280 279 280 281 280 280 280 279 279 280 280 282 283 281 280 279 278 278 279 278 278 278 277 275 275 276 274 273 277 276 273 273 271 270 269
285 275 271 271 271 267 277 276 280 278 279 277 277 275 275 277 280 279 276 275 277 280 279 279 279 278 278 277 276 277 278 280 279 278 279 278 276 275 276 276 276 275 275 275 274 272 272 272 274 270 269 268 267 267
270 268 268 263 269 268 267 272 275 276 274 275 275 275 275 277 277 275 273 273 274 273 275 279 278 278 276 275 275 275 278 279 278 275 276 276 275 274 273 273 273 274 275 273 272 271 269 269 269 268 268 267 265 264
264 266 265 266 265 266 268 267 271 274 275 274 274 276 277 277 273 268 268 268 269 269 269 270 275 276 275 276 275 274 274 277 277 274 274 276 275 274 271 271 270 269 272 272 271 269 269 268 268 267 267 268 272 264
263 264 273 277 273 272 269 272 273 273 272 271 273 275 275 271 268 268 269 268 268 269 270 271 274 274 272 272 273 273 274 275 274 272 273 273 273 273 273 272 269 269 271 271 270 270 269 268 267 266 265 263 262 262
271 270 264 267 268 268 265 265 265 265 269 272 275 270 269 266 266 266 267 268 269 270 271 272 273 273 273 272 273 273 272 273 272 273 273 272 272 272 272 273 274 276 271 270 269 269 269 267 266 266 265 263 261 262
269 272 270 261 263 265 263 263 265 268 270 269 269 268 266 265 265 265 267 267 269 272 271 270 271 272 272 272 273 273 274 274 273 270 268 267 266 268 269 271 271 271 270 272 275 270 267 266 266 265 263 263 261 260
267 270 266 261 261 263 263 264 264 267 268 267 268 267 266 265 265 267 267 266 267 267 268 270 272 272 271 271 270 270 270 271 271 272 269 268 267 268 269 270 271 270 269 270 270 271 274 267 267 262 262 261 261 261
270 267 263 264 262 261 263 266 266 268 264 261 264 264 264 264 266 266 265 265 266 269 270 269 269 271 272 271 271 270 269 269 269 270 270 270 269 268 268 268 268 268 268 266 265 264 263 261 259 258 258 256 256 258
271 265 262 261 260 262 263 261 260 260 260 260 259 259 261 265 264 263 264 264 268 268 271 270 269 268 269 270 270 272 273 269 270 270 269 268 267 267 267 267 266 266 266 265 263 262 259 258 259 258 259 256 255 255
265 263 260 259 258 259 262 260 260 258 259 257 258 259 258 261 260 260 263 263 263 264 266 268 269 269 269 269 270 270 271 269 272 275 275 273 272 270 268 267 267 266 266 265 263 262 260 257 257 257 256 254 253 254

GFSWCAN_sfc_thetae_021.txt.gz
Theta_e
300 300 300 300 300 301 300 300 299 300 301 303 303 304 305 307 308 309 305 308 304 298 300 301 299 294 297 296 292 295 295 296 296 292 292 292 290 291 288 293 289 289 289 289 289 286 281 294 292 288 293 294 294 294
299 300 300 300 300 300 300 299 299 299 301 302 303 304 305 306 308 310 303 307 308 301 301 304 302 302 301 303 298 296 296 297 299 295 292 294 291 289 289 287 292 290 293 291 290 291 296 295 294 296 297 295 294 293
299 299 300 300 300 300 300 299 299 299 300 302 303 304 305 306 307 310 304 305 304 300 300 301 299 301 304 303 305 297 298 301 299 299 297 295 290 291 286 287 288 292 293 291 291 292 292 294 295 297 297 296 295 295
299 299 300 300 300 299 299 299 299 299 300 302 303 304 304 306 307 309 305 306 305 302 296 297 304 300 305 304 304 304 302 302 302 300 297 295 292 293 291 290 290 290 292 291 289 291 292 293 294 295 295 295 295 295
299 299 299 299 299 299 299 299 298 298 300 302 302 302 303 305 307 310 307 307 309 303 297 297 300 301 303 303 302 303 303 302 300 299 297 295 296 292 293 293 291 291 291 290 290 294 293 293 295 296 295 294 295 295
299 300 299 299 299 299 299 299 298 298 300 301 302 302 303 304 306 307 300 307 308 307 299 292 301 299 300 301 301 300 301 300 300 300 298 298 298 296 288 288 295 294 295 297 295 296 295 296 295 295 294 294 294 294
299 300 300 299 299 299 299 298 298 298 300 301 301 301 302 304 305 302 299 302 309 309 299 291 293 299 300 301 300 300 301 300 300 297 297 295 294 295 293 290 296 294 295 295 296 296 293 294 293 294 294 294 294 292
300 300 299 299 299 299 298 297 298 299 301 300 300 301 302 304 307 303 305 308 309 303 300 288 290 294 300 297 295 298 298 299 297 296 295 294 293 294 290 295 293 293 293 293 293 294 295 294 293 291 292 291 289 289
300 299 299 299 299 298 297 297 299 300 299 300 300 301 302 304 300 301 305 305 304 301 292 290 287 287 298 296 296 296 295 292 294 292 292 292 292 288 292 294 292 292 293 291 290 291 292 291 289 288 288 288 288 287
299 299 299 298 298 297 297 298 298 300 299 299 298 298 294 300 305 305 301 297 294 295 295 291 295 290 294 294 291 290 291 289 287 291 290 287 288 295 296 295 293 292 291 291 289 285 287 285 287 286 287 287 288 287
298 298 298 297 297 296 296 298 298 299 295 294 294 293 300 305 300 297 291 290 291 287 292 293 294 291 294 290 289 288 286 286 285 287 289 286 287 291 290 291 292 291 292 291 291 290 291 291 288 286 286 286 287 287
298 297 297 297 296 297 297 297 297 296 290 289 288 292 298 294 290 288 288 287 288 287 290 291 292 294 292 294 290 288 286 285 283 286 285 283 286 286 288 288 289 290 291 290 291 290 289 287 287 287 286 286 286 286
297 297 296 296 296 296 296 297 298 298 294 293 290 288 288 287 285 284 282 284 284 288 288 289 287 289 290 291 287 284 279 278 284 279 280 283 283 285 287 288 289 290 291 291 290 289 288 286 287 287 285 286 286 285
296 296 296 296 296 296 296 296 298 294 287 285 284 283 284 282 283 284 286 283 285 286 288 289 288 287 289 286 286 279 282 281 275 275 276 280 282 286 287 288 288 286 288 288 288 288 287 286 285 286 286 286 285 284
296 296 296 295 295 296 296 296 296 291 286 284 285 283 284 283 282 284 284 287 286 291 290 287 285 285 280 283 280 280 276 273 277 277 280 276 279 283 283 284 285 285 287 286 287 286 286 285 284 282 282 282 281 279
296 295 291 295 296 295 295 293 290 290 285 284 284 283 285 283 281 283 285 286 288 292 287 285 279 274 275 276 273 271 274 274 279 280 278 278 283 283 283 284 285 287 287 286 286 284 283 282 281 279 278 278 277 277
295 286 294 295 295 295 294 288 287 285 284 284 283 285 284 276 277 282 287 289 293 290 283 279 275 275 277 270 271 274 275 279 282 276 276 278 282 282 283 283 283 285 285 284 283 282 280 279 278 277 275 274 275 275
286 289 294 295 293 292 290 286 284 284 281 283 282 283 285 284 282 285 288 291 288 283 283 279 280 273 273 272 272 277 276 272 274 278 280 282 281 282 283 282 283 283 283 282 280 279 278 277 276 275 274 274 274 274
291 291 294 294 292 288 284 284 284 280 281 283 283 284 285 286 287 287 288 287 285 286 286 281 276 273 276 277 276 272 272 275 279 280 280 281 282 282 282 282 283 282 281 280 280 279 278 277 276 276 275 275 274 274
294 293 293 293 291 285 275 278 285 282 280 282 284 284 284 284 285 286 286 285 285 284 282 276 278 279 279 279 278 277 279 282 282 281 279 280 282 283 283 283 281 280 279 278 278 279 276 276 276 276 275 275 274 274
289 288 290 287 282 285 274 276 277 282 282 281 283 284 283 285 285 285 285 286 286 284 276 280 280 280 280 280 283 284 284 285 283 283 281 280 281 282 281 280 281 280 278 277 277 278 277 275 274 275 274 274 274 273
284 290 282 282 273 272 274 279 277 281 281 281 281 282 282 282 283 283 285 282 280 280 281 281 280 280 280 279 280 283 283 284 284 284 284 283 279 280 280 280 280 276 275 274 275 274 273 273 274 273 273 272 272 270
286 282 275 271 269 268 271 275 273 276 276 277 280 278 278 279 280 284 278 278 277 280 280 280 280 279 279 279 281 281 283 283 281 281 281 279 279 280 279 278 278 276 273 272 274 274 273 277 276 272 272 270 270 269
284 272 269 267 265 264 272 267 276 274 276 276 275 274 275 276 279 278 273 273 274 277 278 279 279 278 279 278 277 277 278 280 279 279 280 279 277 275 276 276 275 275 275 274 274 273 273 273 274 270 269 267 266 266
268 266 265 260 262 265 262 265 265 270 270 274 273 273 275 277 276 273 270 269 271 270 271 275 278 278 276 275 276 276 278 280 278 275 276 277 275 274 273 274 273 274 275 273 272 271 269 269 269 268 267 266 265 263
262 262 264 260 261 264 264 262 263 266 272 272 274 276 276 275 270 266 267 266 267 268 268 269 270 275 274 276 275 275 275 278 278 275 274 276 276 275 273 273 272 272 273 273 272 270 269 269 268 266 266 269 272 263
261 262 271 276 271 270 267 269 270 267 265 268 272 273 274 269 266 267 268 267 267 268 269 271 273 274 272 272 273 273 274 274 274 273 274 274 274 275 275 273 271 271 272 272 272 271 270 269 267 266 264 262 261 262
269 269 264 264 266 264 262 262 261 260 265 270 272 267 267 265 266 265 266 268 268 269 271 272 273 273 273 272 273 273 272 273 273 274 274 273 272 273 273 273 274 276 272 271 270 270 269 268 266 265 264 262 260 260
266 269 268 260 260 261 260 261 262 266 268 266 266 266 265 265 265 265 267 267 269 271 271 270 271 273 273 273 273 273 274 275 274 271 270 269 269 269 270 271 271 272 273 273 275 270 266 266 266 265 263 263 261 258
265 266 263 257 259 261 260 263 262 265 265 264 267 267 266 265 265 267 266 266 267 268 269 271 272 272 271 271 270 270 270 271 273 273 271 269 268 269 270 270 270 271 272 272 272 273 275 268 267 262 262 261 260 259
268 262 260 260 259 258 259 263 263 267 260 257 258 262 264 263 265 266 265 265 266 270 270 270 270 272 272 272 271 271 269 270 271 271 271 270 270 270 270 270 270 270 269 267 266 265 264 261 260 258 258 256 256 258
267 261 260 259 259 260 261 258 256 256 256 256 256 255 263 265 263 263 264 265 268 268 271 270 269 268 270 271 272 273 273 271 271 271 270 269 269 269 269 269 268 268 266 265 264 263 261 260 259 258 258 255 255 255
262 260 255 255 256 257 259 258 257 256 255 253 255 257 255 261 263 263 265 265 265 266 267 268 269 270 270 270 271 271 271 270 272 275 274 273 273 271 268 267 267 267 265 264 263 261 260 257 257 257 255 254 253 253

GFSWCAN_sfc_thetae_024.txt.gz
Theta_e
300 300 300 300 300 301 301 301 300 299 299 301 302 303 304 305 306 306 305 306 305 299 300 301 299 296 297 296 292 295 295 295 296 292 291 292 290 290 287 292 286 289 288 287 286 281 279 293 292 287 291 293 292 291
300 300 300 300 300 300 300 300 300 299 299 300 301 303 304 305 306 307 303 307 309 302 300 305 304 303 301 302 298 297 296 297 299 295 294 291 291 287 287 284 289 287 291 288 289 288 293 293 293 295 295 294 292 291
299 300 300 300 300 300 300 300 300 300 299 299 301 303 304 304 306 306 304 306 305 300 300 300 299 303 304 305 306 296 298 301 300 301 297 294 291 292 288 287 288 290 293 291 291 291 292 293 295 295 295 294 293 293
300 300 300 300 300 300 300 300 300 300 298 299 301 302 303 303 305 306 305 306 305 301 295 297 303 299 304 304 304 305 302 302 303 301 297 294 293 293 292 290 289 291 291 290 290 290 291 293 293 294 293 294 293 292
300 300 300 300 300 300 300 300 300 299 298 299 301 302 302 302 304 305 307 307 309 302 296 297 300 301 302 303 302 304 303 302 300 298 297 295 296 293 291 290 289 290 291 290 290 294 293 292 294 294 294 293 293 292
300 300 300 300 300 300 300 299 299 298 298 299 300 301 301 302 303 301 300 306 308 308 299 293 301 300 299 301 301 301 302 300 300 299 297 297 298 295 288 287 295 294 294 295 294 294 294 294 294 294 294 294 293 293
300 300 300 300 300 300 299 299 298 297 299 300 301 301 301 301 300 299 299 303 308 308 299 290 292 299 301 299 299 300 301 300 299 298 297 295 295 296 292 289 296 293 294 294 295 296 293 293 292 294 294 293 293 292
301 300 300 300 299 299 299 298 297 298 299 299 301 300 301 301 304 300 305 308 309 303 300 288 290 294 300 297 296 300 298 299 297 295 294 294 294 293 290 294 293 292 292 293 292 294 294 293 292 291 292 291 289 288
300 299 299 299 298 298 297 297 298 298 298 300 299 300 299 300 299 301 306 306 305 301 292 290 287 286 298 296 296 296 296 293 295 292 292 292 291 288 293 293 291 292 292 290 289 291 292 290 289 289 288 288 287 286
299 298 298 297 297 297 297 298 297 297 299 299 298 296 293 300 305 305 302 298 295 295 295 292 294 291 294 294 291 292 291 290 286 291 292 287 287 294 295 295 294 292 291 291 288 284 286 285 286 286 287 287 287 286
298 298 297 297 296 296 297 296 297 298 297 291 287 290 292 304 301 297 291 291 292 288 293 294 292 289 293 290 290 290 286 286 285 287 289 284 286 289 288 290 292 291 291 290 291 290 290 290 287 285 285 286 286 288
298 297 297 297 296 297 296 296 297 294 293 292 290 290 291 294 291 288 288 287 288 287 290 292 292 292 292 294 290 289 284 285 284 286 286 283 287 286 287 287 287 289 290 289 290 289 288 287 287 287 286 286 287 286
297 297 297 297 297 296 296 297 297 297 295 291 287 284 286 287 285 285 283 284 285 288 289 289 287 290 291 291 287 286 284 284 284 281 281 284 283 284 285 287 287 289 289 289 287 287 287 286 287 287 286 287 287 285
297 297 297 297 295 295 296 296 296 295 289 285 284 281 283 283 285 285 286 284 286 285 289 290 287 288 289 286 285 276 283 281 275 276 278 279 282 286 287 286 287 286 287 286 286 287 287 287 287 287 287 287 285 283
297 297 298 294 295 296 296 296 295 292 287 283 284 281 284 285 283 284 284 286 287 291 290 287 286 287 284 283 281 280 277 275 278 279 279 276 279 281 284 284 285 285 286 286 287 287 286 286 284 282 282 283 282 281
297 295 290 295 295 295 295 293 291 290 285 283 284 282 286 284 283 284 285 285 288 290 286 287 281 283 282 279 273 273 275 274 280 279 277 277 282 282 282 283 284 286 287 287 286 285 285 284 282 279 278 278 277 277
296 285 293 295 295 295 294 289 287 285 284 284 282 284 285 284 282 284 287 289 292 290 285 278 280 278 276 269 271 274 275 277 275 275 275 277 281 281 282 283 284 285 285 284 284 283 280 280 279 278 275 274 275 275
286 288 294 295 293 290 289 286 283 283 280 281 280 279 285 286 284 284 287 289 289 284 284 281 282 277 274 272 273 277 278 277 273 276 278 280 280 281 283 282 283 284 283 282 281 279 278 277 276 275 274 273 273 273
291 293 294 294 291 287 284 284 283 274 276 282 282 284 285 286 288 286 286 287 287 286 285 282 276 274 277 276 273 275 269 274 278 280 279 280 281 281 281 282 283 282 281 280 280 278 277 277 276 275 275 275 274 273
295 293 293 292 291 284 274 274 282 277 272 277 284 283 283 284 286 286 286 286 285 285 282 277 278 279 279 279 277 277 277 280 282 279 279 280 280 280 281 282 281 280 279 278 278 278 275 275 275 275 274 275 274 273
288 287 289 285 279 284 276 277 271 278 278 274 279 282 283 285 284 285 285 286 285 281 276 279 279 280 280 279 282 282 282 284 283 282 282 280 280 281 280 281 282 281 279 277 276 278 277 275 274 276 275 274 274 273
283 289 282 279 271 270 271 276 274 276 276 274 278 281 280 281 283 283 284 282 279 277 280 280 278 278 278 279 281 282 283 283 283 284 284 283 280 280 280 281 280 279 277 276 276 274 273 273 274 274 274 273 273 271
286 281 273 270 268 267 270 272 268 267 269 271 276 277 278 278 280 283 277 277 276 277 279 279 277 278 278 280 281 282 283 283 281 281 281 280 279 280 280 279 279 276 274 272 274 273 273 277 276 272 273 271 271 270
283 271 269 267 265 264 270 264 271 268 267 271 270 274 276 276 279 276 272 272 273 273 273 273 279 277 279 278 277 277 279 281 280 280 281 280 277 276 277 276 276 275 275 275 275 274 273 273 275 271 270 268 267 266
268 266 264 260 260 264 260 263 261 265 263 266 268 272 275 277 274 270 269 268 269 269 269 270 274 277 276 275 275 276 278 280 279 276 278 278 276 275 274 274 274 275 276 274 273 273 271 270 270 269 268 267 265 264
262 262 263 260 260 264 263 261 260 261 265 264 269 272 275 274 270 267 267 266 266 268 267 267 268 270 274 276 275 275 276 279 280 276 276 279 279 278 275 273 272 272 273 275 274 271 270 270 269 267 267 270 272 263
262 262 270 275 270 269 266 268 268 264 260 263 266 268 270 268 268 267 268 268 267 268 269 269 270 272 273 273 273 274 275 275 277 274 275 275 275 276 277 275 274 272 274 274 273 272 270 269 268 268 266 264 262 262
269 268 264 263 265 263 261 261 259 259 262 267 269 263 264 265 265 265 266 268 268 268 269 272 273 273 273 272 273 273 273 274 274 274 274 273 274 274 274 274 275 276 273 272 272 272 271 270 268 267 265 264 260 259
265 268 267 259 259 259 259 261 261 265 268 265 261 265 264 265 263 263 266 267 268 270 271 271 271 273 273 273 273 273 275 276 276 274 272 271 271 270 273 274 273 273 274 274 276 271 268 268 267 266 265 264 261 257
265 266 262 256 260 261 260 262 261 264 264 264 266 265 265 262 262 266 265 266 266 267 269 272 272 272 272 272 271 271 271 273 276 275 273 271 270 270 272 272 272 272 273 272 272 273 276 271 269 263 262 261 260 259
267 262 259 259 258 257 259 262 263 266 259 256 256 259 261 262 264 266 265 264 266 270 271 270 270 272 272 272 272 272 270 271 272 272 272 272 271 271 271 271 271 271 271 270 269 268 266 261 261 260 260 257 257 258
267 259 260 258 258 259 260 257 255 255 255 255 255 255 258 262 263 263 264 265 268 268 271 270 269 269 271 271 272 273 274 272 272 272 272 271 270 270 270 269 269 268 268 266 265 264 262 260 259 258 258 254 254 255
260 258 254 254 256 257 259 257 256 255 254 253 255 256 255 261 263 262 265 266 265 266 267 268 269 270 270 270 271 271 271 271 274 276 276 275 274 271 269 268 267 267 266 265 263 262 260 258 257 257 256 254 253 253

GFSWCAN_sfc_thetae_027.txt.gz
Theta_e
300 300 301 301 301 301 301 301 301 301 300 299 300 300 303 305 305 304 302 306 304 298 299 301 300 297 297 295 291 294 294 295 295 291 289 290 289 288 287 291 289 287 287 287 284 281 278 292 292 287 289 291 291 291
300 300 301 301 301 301 301 301 300 300 300 299 299 300 303 304 304 305 302 307 308 302 300 305 304 303 302 302 298 297 295 296 298 294 293 293 290 289 285 282 287 286 290 287 287 286 292 292 292 294 294 293 290 290
300 301 301 301 301 301 301 301 301 300 300 299 299 300 302 303 304 304 302 306 305 300 300 299 299 304 304 306 306 295 297 300 300 301 296 294 291 289 284 285 286 288 292 290 290 290 290 292 293 294 294 291 291 292
300 301 301 301 301 301 301 301 300 300 300 299 300 301 302 302 302 303 301 306 305 301 295 296 303 300 304 305 305 305 302 303 302 301 297 295 291 292 288 289 288 291 291 290 289 291 291 292 293 293 292 292 292 292
300 301 301 301 301 301 301 300 300 300 299 298 299 301 302 301 302 302 301 306 308 302 296 297 300 300 302 302 303 304 303 302 300 298 297 295 295 292 290 289 288 290 291 290 289 294 293 292 294 293 293 292 292 291
301 301 301 301 300 300 300 299 299 298 298 298 300 300 301 301 301 299 300 306 308 308 299 292 301 299 299 300 300 301 302 300 300 299 297 298 297 296 287 287 294 293 293 295 294 293 293 293 293 294 292 292 292 291
301 300 300 300 299 299 299 298 297 297 298 299 299 299 300 301 299 295 297 301 307 308 299 291 292 299 299 298 298 299 301 299 299 298 297 296 295 295 292 287 295 292 293 294 293 294 292 292 292 293 293 293 293 291
300 299 299 299 298 298 297 297 297 298 298 298 299 300 300 301 300 298 302 306 308 303 301 288 289 294 300 297 295 300 298 299 297 296 296 295 294 292 289 294 293 292 292 292 292 293 295 293 292 291 292 291 289 288
299 299 298 298 297 297 297 298 297 297 297 299 300 300 299 298 297 302 307 306 305 300 293 291 287 286 298 296 296 296 297 293 296 293 293 293 291 288 293 294 292 291 292 290 289 291 291 290 289 288 289 289 288 287
299 298 298 297 297 297 297 297 297 298 298 299 298 296 292 299 303 306 303 299 295 295 295 292 292 290 293 294 291 292 292 290 287 290 292 288 288 293 294 294 294 292 290 290 288 285 287 286 287 287 288 288 289 287
299 298 298 297 297 297 296 296 297 297 298 292 288 287 290 295 299 299 291 290 292 288 293 291 292 291 293 290 290 291 287 286 285 283 288 286 285 288 288 290 292 291 291 290 291 290 290 290 287 286 285 285 286 287
299 298 298 297 297 296 296 296 297 294 292 293 291 291 289 291 291 288 287 288 288 288 291 292 290 291 290 293 290 288 284 285 283 284 286 282 285 285 287 286 287 290 290 290 289 289 288 288 287 286 286 285 286 285
298 298 298 298 298 295 296 296 296 297 294 292 288 284 285 286 284 285 283 285 285 288 289 289 288 291 291 292 287 284 286 285 284 280 281 282 282 284 285 286 286 288 289 288 287 287 287 286 287 287 285 286 285 283
298 298 298 298 295 296 296 296 296 295 290 285 284 280 282 283 285 285 285 286 285 284 289 290 287 288 290 287 286 284 283 281 276 276 277 279 282 284 285 285 286 286 286 286 286 287 286 286 286 287 287 286 284 282
298 298 298 293 295 296 296 295 295 293 287 283 284 279 283 285 284 284 285 285 287 290 288 287 286 288 285 284 281 281 279 276 278 280 278 276 277 279 284 285 285 285 285 285 286 286 286 286 285 284 285 284 282 280
297 296 288 295 296 296 295 292 292 290 285 283 283 282 285 283 284 284 285 285 288 290 287 288 284 284 283 282 273 274 275 276 281 278 276 273 281 281 282 283 284 285 286 286 286 286 285 284 282 280 281 279 278 277
296 285 292 296 295 294 294 289 287 284 284 283 282 285 284 283 284 284 286 288 292 288 286 284 283 281 276 269 271 274 276 282 276 274 273 275 278 280 281 282 283 284 284 285 285 283 281 281 280 279 276 275 275 275
286 288 295 295 293 289 288 286 283 281 279 273 278 279 283 285 284 285 286 289 289 286 284 283 280 275 274 273 272 277 276 279 274 275 277 278 278 280 282 282 282 283 282 282 281 281 280 279 277 275 274 274 274 273
290 293 294 293 290 282 283 283 283 277 272 281 282 282 284 284 287 288 286 287 288 287 285 282 275 275 277 277 277 274 274 274 278 280 279 279 280 280 281 281 281 280 281 280 280 279 277 277 276 275 275 275 273 273
295 292 292 291 289 278 277 272 279 279 274 273 281 278 280 282 285 286 286 286 286 285 284 283 279 280 281 282 280 279 278 279 279 278 277 278 279 280 280 281 280 280 278 278 278 278 275 275 275 275 275 274 274 273
288 287 288 284 279 283 277 278 272 277 279 277 271 276 279 284 284 284 285 286 285 284 282 280 280 281 281 281 282 281 281 282 281 281 279 276 279 279 279 280 281 281 279 278 276 278 276 274 274 276 274 273 273 272
283 289 281 278 270 268 270 278 275 275 277 271 271 271 274 276 280 281 281 282 277 277 278 279 280 279 280 280 281 282 282 282 282 283 284 283 279 279 279 280 281 279 279 278 276 274 273 274 274 274 273 273 273 272
285 281 273 269 268 266 268 269 267 265 268 266 267 267 271 274 279 282 276 276 274 274 274 276 276 279 278 279 281 281 282 281 280 280 281 280 280 281 280 279 279 277 275 273 275 274 273 277 276 273 273 272 272 272
282 271 269 267 264 263 268 262 269 266 264 266 262 264 269 273 278 276 272 271 272 273 272 271 273 278 279 278 277 278 280 280 279 279 281 280 278 277 278 277 277 277 276 275 276 275 274 274 276 272 271 270 269 268
270 266 265 261 259 262 259 261 258 264 261 261 263 262 270 273 273 271 269 269 269 269 269 270 271 271 274 276 276 277 279 280 279 277 277 279 277 276 275 275 275 276 277 275 274 274 272 271 271 271 270 269 267 265
264 262 263 260 259 263 263 261 259 260 261 260 265 268 269 270 267 267 268 267 267 268 268 267 267 268 271 275 276 276 276 279 279 277 277 280 279 278 275 274 273 273 275 276 274 272 271 271 270 269 269 271 273 265
262 262 269 274 269 268 266 267 267 263 259 259 260 262 265 263 264 267 268 268 267 268 269 269 268 269 271 273 274 275 275 276 277 276 276 277 278 280 280 277 275 274 276 276 275 274 272 270 269 270 269 267 266 265
269 267 264 263 264 263 261 260 258 259 261 266 266 260 262 267 266 263 263 267 268 268 268 270 272 273 273 273 274 274 274 274 274 275 275 274 275 275 275 275 276 278 275 275 274 273 272 271 270 269 268 265 262 260
266 267 267 259 259 259 260 262 261 264 267 264 261 261 262 265 260 259 262 263 266 267 269 271 272 273 273 273 273 274 275 276 276 274 272 271 271 271 275 275 275 275 276 275 276 273 270 271 270 268 266 265 262 261
266 265 262 255 260 261 260 261 260 262 263 263 265 263 263 261 260 261 262 261 260 264 267 271 272 272 272 272 272 272 272 274 276 276 274 273 271 272 273 273 273 274 274 274 274 275 277 272 270 266 264 263 263 262
266 261 258 258 258 256 257 261 262 265 258 255 256 258 259 258 261 262 261 263 264 267 270 270 270 271 272 272 272 272 271 272 273 273 273 272 272 272 273 273 273 274 274 272 271 270 268 265 264 263 262 260 261 260
265 259 260 258 258 258 258 256 254 255 253 255 255 254 256 259 260 260 263 264 266 267 271 269 269 269 271 271 272 274 274 272 272 272 272 271 271 271 271 271 271 271 270 268 267 266 264 263 262 261 260 258 256 256
258 257 253 254 255 256 258 257 256 254 254 253 254 254 254 259 261 260 263 265 265 266 267 268 269 270 270 270 271 272 273 272 275 277 276 275 274 272 270 269 269 269 267 266 265 264 262 260 259 259 258 256 253 253

GFSWCAN_sfc_thetae_030.txt.gz
Theta_e
300 301 301 302 302 301 301 301 301 301 301 301 300 300 301 303 304 302 300 304 303 297 297 299 300 297 296 296 290 294 293 295 294 290 289 289 288 289 286 289 288 287 287 286 286 283 278 292 291 286 289 291 292 291
300 301 301 301 302 301 301 301 301 301 301 301 300 300 301 303 303 303 299 305 309 302 300 304 303 303 303 302 298 297 295 296 297 291 292 293 291 288 284 282 286 284 289 286 287 285 291 292 292 293 293 292 289 289
301 301 302 302 302 302 301 301 301 301 300 300 299 300 301 303 303 302 299 302 305 300 299 298 298 304 306 306 307 296 297 299 299 297 294 294 288 288 284 284 283 287 291 289 289 290 290 292 293 292 292 290 291 291
301 301 302 301 301 301 301 301 300 300 300 299 299 299 301 302 302 302 298 301 302 301 294 295 303 301 305 306 306 305 302 303 302 301 297 295 292 292 287 288 287 290 291 289 289 291 290 292 291 290 290 291 291 291
301 301 301 300 300 300 300 300 300 299 298 298 298 300 300 300 301 300 299 301 305 302 296 297 301 301 302 303 303 304 303 300 299 298 297 295 296 293 288 287 286 289 291 289 289 293 292 291 292 292 291 290 291 290
301 300 300 299 299 299 298 298 297 297 298 299 299 298 299 299 300 298 297 304 307 307 298 292 301 298 300 299 300 301 301 301 300 299 297 298 298 295 290 286 293 291 292 294 293 292 292 292 293 293 291 290 291 290
300 299 299 299 298 298 297 297 297 298 297 298 298 298 299 299 298 293 295 300 302 303 299 291 292 298 300 299 297 299 300 299 299 298 297 296 295 295 292 286 294 292 293 292 292 293 291 292 291 292 292 291 291 289
300 299 299 299 298 298 297 297 297 297 298 298 299 300 301 301 300 296 300 303 303 302 300 288 289 294 299 296 294 300 298 299 298 297 296 295 295 293 290 294 293 291 291 291 291 293 293 292 291 290 291 290 288 287
299 299 299 298 298 298 298 297 297 297 298 299 300 301 299 297 295 300 306 307 306 301 293 291 287 285 298 296 296 296 297 293 296 293 293 293 292 289 292 293 292 291 291 290 289 290 291 290 289 289 289 288 287 285
299 299 299 298 298 298 298 296 297 297 298 299 296 294 292 295 297 301 303 299 296 296 296 292 292 289 293 294 292 292 292 290 286 291 292 288 288 293 293 294 293 292 290 290 289 286 287 286 287 287 288 288 288 286
298 299 298 298 298 298 298 296 297 297 296 293 288 287 292 295 297 297 291 290 292 288 293 293 290 289 293 289 291 290 287 287 285 284 288 286 285 287 288 290 292 291 291 290 290 290 291 291 289 287 286 286 287 286
299 299 298 298 298 297 296 297 297 291 291 292 291 292 290 290 290 288 286 288 288 287 291 292 291 291 290 293 287 289 284 285 282 284 285 283 284 285 286 287 288 290 290 290 290 289 289 289 288 287 286 285 283 283
298 298 298 298 298 295 297 297 296 296 294 292 288 284 286 287 284 284 283 284 285 287 289 289 287 290 290 290 285 284 286 284 285 280 281 281 281 284 285 286 286 288 289 288 287 287 287 286 287 287 284 284 284 282
298 298 298 298 296 297 297 296 295 295 289 285 283 279 280 282 284 285 284 285 285 286 287 290 287 288 290 287 287 285 284 283 277 276 277 279 281 283 284 285 286 285 285 285 285 286 286 286 285 285 285 284 283 281
298 298 298 293 296 297 296 295 294 293 287 282 283 278 281 285 285 285 285 285 286 289 288 288 287 288 285 285 283 282 280 278 278 279 278 277 276 278 283 284 284 284 284 284 285 285 285 286 284 284 284 283 282 280
298 296 288 295 297 296 294 291 292 291 285 283 282 278 285 283 284 282 283 285 288 290 288 288 285 284 284 281 277 276 275 276 282 277 276 271 279 281 282 283 283 284 285 285 286 285 285 285 283 281 280 280 279 278
296 286 292 296 296 294 293 288 287 284 283 281 281 285 284 283 283 283 287 287 292 288 286 285 283 283 278 269 272 276 278 282 277 273 273 274 277 280 281 282 283 284 284 284 284 284 282 282 281 280 277 275 275 275
286 288 294 296 292 288 285 286 283 281 279 279 278 273 281 283 283 285 286 287 288 286 284 284 282 274 273 272 274 278 274 271 276 273 276 277 278 279 281 281 282 283 282 282 281 280 281 281 279 276 275 274 274 274
290 291 294 293 289 281 277 281 283 277 277 280 282 282 283 283 285 286 287 288 288 287 285 283 280 276 277 276 275 272 269 274 277 279 278 278 279 280 280 279 280 280 280 280 281 281 279 280 278 276 276 276 274 274
295 292 292 291 289 275 276 271 279 279 275 272 279 280 279 281 283 285 285 285 285 285 284 283 282 280 278 280 278 277 277 278 278 278 277 277 277 277 279 280 280 278 277 277 278 279 276 275 276 276 275 275 274 274
287 286 288 283 279 282 277 277 272 276 279 277 276 274 277 276 282 283 283 285 284 284 282 281 281 281 281 280 282 281 281 280 280 280 279 274 277 278 277 277 278 279 278 278 277 278 277 275 275 277 275 273 273 272
283 288 280 278 270 267 269 279 274 273 276 277 273 266 275 275 268 276 280 281 275 273 274 275 276 277 278 280 280 281 282 282 281 281 283 282 277 277 278 279 279 277 277 279 278 275 274 274 274 274 273 273 274 273
284 281 273 269 268 266 267 268 266 269 266 267 263 263 264 267 272 276 272 275 273 274 274 273 273 275 275 280 281 281 282 281 279 279 280 278 278 279 279 278 279 277 276 275 276 275 275 278 276 273 274 272 273 273
282 271 270 267 264 263 267 261 268 263 262 264 260 262 263 265 269 268 267 268 272 273 272 271 271 273 277 280 279 279 279 280 278 278 279 279 277 276 279 279 279 279 278 277 277 277 276 275 276 273 273 272 270 269
271 267 265 261 259 262 260 259 257 262 261 259 261 261 263 266 266 265 264 265 269 269 270 269 269 270 270 274 277 278 279 280 278 277 276 279 276 276 275 277 277 277 278 276 275 275 274 273 273 272 272 270 269 267
264 263 263 262 259 263 263 260 258 260 259 258 260 262 261 265 262 263 266 265 264 267 268 267 266 267 268 272 273 275 276 278 279 276 276 278 279 278 276 275 274 274 277 278 276 273 273 273 272 271 271 272 274 267
263 263 268 273 269 267 265 266 267 263 257 259 259 260 259 259 260 267 268 266 264 265 268 268 268 268 268 270 273 276 276 276 277 276 277 278 279 280 280 277 276 276 277 277 276 275 273 272 272 272 271 270 267 267
269 267 264 263 264 262 261 260 258 260 262 266 265 258 258 262 264 263 262 263 262 265 266 268 270 271 272 273 274 274 274 275 275 276 276 275 276 277 277 277 277 280 277 276 275 275 274 273 272 270 269 266 264 264
265 267 267 259 258 259 260 262 262 264 267 264 262 262 262 265 260 258 262 261 262 262 264 268 271 273 273 273 273 274 275 275 275 274 273 271 272 272 277 277 276 276 277 276 278 275 272 272 270 268 267 266 264 263
265 265 262 256 260 262 260 260 259 259 263 263 264 262 263 261 260 259 259 257 258 261 263 265 270 272 271 272 272 272 273 274 277 277 274 272 271 273 275 275 275 275 275 275 275 276 278 272 271 267 265 264 264 263
265 261 259 258 258 256 256 260 261 264 257 254 255 258 259 258 261 260 258 258 260 263 266 266 268 270 271 271 272 272 272 273 274 275 274 274 274 274 274 274 275 275 275 274 272 270 269 267 266 265 264 264 265 262
266 259 259 258 257 257 257 255 253 255 253 255 255 253 255 257 259 259 259 256 261 265 270 268 268 268 270 271 271 273 275 273 273 273 273 273 273 273 274 274 274 273 272 270 269 268 267 266 265 264 263 261 260 259
257 255 252 253 255 255 257 256 255 253 254 253 254 254 254 258 260 260 260 259 260 264 267 268 270 270 271 271 272 273 273 273 276 277 277 276 276 274 272 271 271 270 269 268 267 267 266 264 263 262 261 260 259 258

GFSWCAN_sfc_thetae_033.txt.gz
Theta_e
300 300 302 302 302 302 302 302 302 302 301 301 301 300 300 302 304 301 298 303 301 294 297 298 299 296 296 295 291 294 293 293 293 289 287 289 287 289 286 286 286 287 286 287 287 284 279 291 292 287 290 291 293 293
299 300 302 302 302 301 302 302 301 301 301 301 300 299 300 302 303 303 296 302 303 301 298 303 304 303 302 301 297 296 295 295 297 292 289 292 287 289 284 281 286 284 288 287 287 286 292 292 293 293 292 291 290 291
299 301 302 302 301 300 300 300 300 300 300 299 299 299 299 301 302 301 298 300 302 300 299 297 297 303 306 306 307 296 297 299 298 299 295 293 289 291 286 285 283 287 290 289 290 292 292 293 292 291 291 290 290 290
299 301 301 301 300 299 299 299 298 298 298 298 298 299 300 300 300 300 296 299 297 300 293 294 303 301 305 306 306 305 302 303 301 300 294 294 291 291 286 288 287 289 290 290 289 292 292 291 291 291 291 291 289 288
300 301 300 300 300 299 298 298 298 298 298 299 298 298 298 299 300 299 298 299 300 299 295 296 300 300 302 304 304 305 303 300 298 297 296 294 295 291 290 288 285 289 291 289 289 293 292 291 292 292 291 290 289 288
300 300 300 300 299 299 298 298 298 298 298 298 298 299 299 299 299 297 295 303 304 305 298 292 300 298 300 301 301 301 301 300 299 298 297 298 296 294 290 288 293 292 292 294 293 292 292 292 293 293 291 290 290 289
300 300 300 300 299 299 298 298 298 298 297 298 298 299 299 299 296 292 294 299 301 300 299 291 292 298 300 299 298 299 301 299 299 298 297 297 295 297 293 287 293 293 293 292 292 292 291 292 291 292 291 291 290 288
300 299 299 300 299 299 298 298 298 297 298 298 299 300 301 301 300 295 299 302 302 299 300 289 289 293 299 296 294 300 298 299 298 297 296 295 295 294 290 293 291 291 291 290 291 292 293 292 291 290 290 289 287 285
299 299 299 300 299 299 299 298 297 297 298 298 299 300 298 295 293 298 300 303 303 301 292 291 285 284 297 296 296 296 297 293 297 294 294 293 293 288 293 293 293 291 291 291 290 291 292 290 289 289 289 288 286 285
299 299 299 299 299 299 299 297 297 297 297 298 296 293 292 294 298 298 301 299 296 296 296 292 289 287 292 294 292 292 292 291 286 291 292 289 289 294 294 294 293 292 292 290 288 287 288 287 288 288 288 288 287 285
299 299 299 299 299 299 297 297 297 297 295 289 288 287 293 296 296 297 291 291 292 288 293 292 288 287 291 288 291 290 287 287 285 285 287 286 285 288 288 289 291 291 291 291 291 290 291 291 289 287 286 286 286 284
298 299 299 299 299 298 296 297 297 290 291 291 291 293 291 291 291 288 286 288 288 287 290 291 290 289 289 290 286 287 285 286 283 284 285 282 285 286 286 287 288 290 290 290 290 290 290 290 289 288 286 284 284 283
298 298 299 299 298 297 297 297 296 295 293 292 289 285 286 286 284 284 283 285 281 285 288 289 288 291 288 289 285 284 285 284 286 283 281 281 283 285 285 286 286 288 289 288 287 287 288 287 288 286 284 284 284 282
298 298 298 298 296 297 297 296 295 294 289 284 282 274 275 282 284 283 284 282 284 286 288 290 287 288 290 287 286 286 284 284 280 278 275 278 280 283 284 285 286 285 286 286 285 286 286 286 284 285 284 284 282 280
298 298 298 294 297 297 295 294 294 293 287 282 282 273 276 285 285 285 285 285 285 288 288 288 287 288 285 284 284 283 281 279 280 278 279 276 276 277 283 284 283 283 283 284 285 285 284 284 283 282 283 283 281 279
298 297 287 295 297 295 293 291 292 291 285 283 282 276 282 282 283 281 277 283 285 289 287 287 286 284 285 278 281 281 276 276 281 279 276 271 279 281 282 283 283 284 284 284 285 285 284 283 282 280 280 279 279 278
297 287 292 296 296 293 293 288 287 284 284 281 281 283 283 280 281 281 286 286 290 288 286 285 283 284 279 271 272 276 277 281 278 274 272 273 276 281 281 282 283 283 283 284 284 284 281 281 280 279 276 276 277 276
287 288 294 296 291 287 283 286 283 281 279 280 279 272 282 281 280 283 285 288 287 286 285 284 283 278 273 272 274 278 274 271 278 276 276 277 277 279 281 281 282 282 281 281 281 281 281 280 279 277 275 275 274 274
290 290 294 293 289 280 272 275 282 276 278 280 281 282 282 282 284 284 285 286 287 286 284 284 281 280 278 275 274 275 274 276 277 279 278 277 279 280 280 278 279 279 279 279 281 282 281 280 278 277 276 277 275 274
295 292 291 291 288 274 273 270 281 278 275 272 279 278 280 280 280 282 284 284 285 285 283 282 283 280 279 278 278 280 279 279 278 278 278 277 277 275 277 278 279 278 277 277 278 279 277 276 277 277 276 276 275 274
287 286 287 284 279 280 277 277 270 276 278 277 278 276 275 276 275 275 283 283 283 283 282 278 278 277 278 279 280 281 281 280 278 279 280 274 277 275 275 275 276 278 278 277 277 279 279 276 275 278 277 274 274 273
283 287 280 279 271 268 273 279 273 272 273 274 273 267 273 274 274 272 279 276 274 270 273 273 274 274 274 275 277 279 281 281 281 281 282 282 277 275 276 277 278 276 277 277 278 276 276 276 275 274 274 274 275 274
285 281 274 271 269 266 265 268 267 270 268 266 260 262 262 263 267 270 267 266 267 270 272 273 273 273 273 275 278 281 282 281 281 281 280 278 278 278 278 277 277 277 276 277 278 276 275 278 277 274 275 274 274 274
282 272 271 269 266 263 267 261 268 262 262 262 268 260 261 260 267 263 265 263 266 270 270 269 271 271 273 274 276 278 279 280 280 280 280 279 277 276 279 279 279 279 279 277 277 277 276 275 277 274 274 273 271 270
271 268 267 264 259 262 261 260 257 262 261 257 266 261 261 264 262 258 262 263 263 264 265 266 268 269 268 270 273 275 278 278 278 279 278 279 277 276 276 277 277 278 279 277 276 275 276 274 274 274 273 272 270 269
267 265 265 264 259 263 263 260 259 259 259 260 262 260 258 262 261 261 265 263 261 261 262 262 265 266 268 270 270 271 273 276 276 277 278 278 279 278 276 275 275 275 278 279 277 275 274 274 273 273 272 273 275 268
266 265 268 272 268 267 265 265 266 262 256 261 259 259 258 258 257 265 265 263 261 261 261 261 265 266 267 269 271 273 275 276 275 277 278 278 278 280 280 278 277 277 279 279 278 276 274 274 273 273 273 272 270 269
271 268 265 264 264 262 261 260 258 260 262 265 265 259 259 262 265 265 263 260 259 257 260 263 265 267 268 270 272 273 274 275 275 276 276 276 277 278 279 279 278 281 279 278 277 277 276 275 274 273 271 269 268 268
266 267 267 258 258 259 260 263 262 264 267 265 263 262 262 265 261 259 261 260 256 255 257 261 265 266 271 273 274 274 274 274 273 273 273 271 272 274 278 279 279 278 278 278 280 277 275 275 273 271 270 268 266 265
265 264 262 256 261 262 261 261 258 258 262 262 263 262 263 262 260 258 258 257 257 257 257 260 263 265 268 270 272 273 273 274 275 274 274 273 273 275 276 276 276 277 277 276 276 277 279 274 272 268 266 265 265 264
265 260 259 259 259 256 256 258 259 263 256 254 254 258 260 259 261 259 257 256 255 254 256 259 263 265 266 266 269 271 272 274 274 276 275 274 275 275 275 276 276 277 277 276 273 272 270 268 267 266 265 264 265 263
265 258 260 258 257 256 256 254 253 254 253 254 255 253 255 257 259 260 258 255 256 258 263 263 264 266 268 269 271 271 275 273 274 275 275 275 275 275 276 276 275 275 273 272 270 270 269 268 267 266 265 264 263 262
256 254 252 254 255 255 256 255 255 253 253 253 254 255 253 258 261 261 259 257 258 258 259 265 268 270 271 272 272 273 273 273 276 278 278 277 277 276 274 273 273 272 271 270 269 269 268 267 266 265 263 262 261 260

GFSWCAN_sfc_thetae_036.txt.gz
Theta_e
299 299 300 301 302 301 301 301 301 301 301 301 301 300 300 300 302 301 298 302 297 297 301 301 302 299 298 298 292 295 294 294 293 289 289 289 289 292 291 292 291 289 288 287 288 286 284 297 300 293 296 298 297 297
299 299 301 301 301 300 300 299 299 299 299 299 299 299 299 300 301 301 296 301 301 298 302 306 306 306 304 303 299 297 295 295 295 292 292 294 290 294 292 288 294 289 294 293 292 293 298 299 299 300 298 296 296 295
299 299 301 301 300 300 299 299 298 298 298 298 298 299 300 300 300 300 297 298 300 301 302 302 300 306 308 307 307 296 297 300 298 301 297 296 292 296 291 292 293 295 297 295 295 299 299 298 298 296 296 295 294 295
298 300 301 300 300 300 299 299 298 298 298 298 299 299 298 299 300 300 297 298 297 294 295 298 305 303 306 306 307 306 303 303 302 300 297 295 294 298 295 294 294 298 296 295 296 299 300 297 297 296 294 293 292 292
298 300 300 300 300 299 299 299 299 298 298 298 298 298 298 299 299 300 299 298 299 295 294 297 302 303 303 305 304 305 303 300 298 296 295 294 298 295 297 295 294 297 297 295 295 299 298 297 296 296 294 292 291 290
298 300 300 300 300 300 299 299 299 299 298 298 298 298 299 300 299 297 295 301 303 302 297 293 301 300 301 303 302 302 302 300 299 298 297 299 300 298 294 291 299 299 299 301 300 298 296 296 296 295 293 292 291 290
298 300 300 299 300 300 299 299 299 298 298 298 299 299 300 300 298 292 294 298 301 300 298 293 294 300 302 300 300 300 301 300 299 298 297 299 297 299 296 292 299 299 300 299 299 298 295 296 295 294 293 291 290 289
298 300 300 299 299 299 299 299 299 298 298 298 299 300 301 301 299 295 299 302 303 298 300 291 291 295 300 297 295 300 298 298 298 297 297 296 296 295 291 299 301 300 297 297 297 297 297 296 294 292 291 290 288 287
298 299 299 299 299 299 299 299 297 298 298 298 299 300 300 297 293 297 300 302 303 301 294 292 289 289 300 298 297 298 298 293 297 294 295 294 293 291 297 299 299 299 297 296 294 294 294 293 292 291 291 290 287 286
298 299 299 299 299 299 299 298 298 298 297 297 297 294 293 295 298 298 300 298 297 298 299 293 295 291 296 297 295 294 294 292 287 292 293 290 291 299 300 299 298 298 296 294 291 289 290 289 289 290 291 291 289 287
298 299 299 299 299 299 299 297 298 297 296 293 289 288 293 296 296 297 291 291 293 290 296 295 294 292 296 292 293 293 290 288 287 288 289 289 289 293 293 293 295 297 296 296 296 296 294 293 292 291 289 289 288 286
299 298 298 298 299 298 297 298 297 293 292 292 292 293 292 292 291 288 287 288 288 289 293 292 294 294 294 296 292 291 289 288 285 289 286 285 291 291 290 292 293 294 295 294 294 295 295 294 293 291 289 287 287 285
299 298 298 298 298 297 298 297 295 295 294 293 290 286 288 288 285 284 283 286 286 287 289 290 289 293 293 294 289 290 286 286 289 285 283 288 290 289 289 290 291 292 294 292 292 293 293 292 291 290 287 286 285 284
299 298 298 298 297 297 297 295 295 294 291 286 284 279 282 283 285 284 284 285 287 287 288 291 289 290 291 289 289 287 287 286 283 281 284 290 287 286 289 289 290 290 291 291 290 291 290 290 288 288 287 286 285 283
298 298 298 295 296 297 295 294 295 293 288 283 284 279 281 285 286 286 286 286 289 289 289 289 288 289 287 287 287 286 284 283 283 285 289 288 285 283 288 289 289 289 289 289 290 289 288 287 287 286 286 286 284 282
298 296 290 294 297 295 293 292 292 292 286 285 284 281 284 283 285 284 283 285 290 291 289 288 286 286 286 287 284 285 283 281 288 288 289 284 284 286 287 288 288 288 288 288 289 288 287 286 285 284 284 283 282 281
296 290 293 296 296 292 293 290 288 285 285 283 282 283 284 282 282 284 285 285 290 287 286 286 284 286 284 281 281 284 283 287 287 286 284 282 283 286 286 286 286 287 287 287 287 287 285 284 283 282 280 280 281 280
291 291 294 296 292 288 286 288 284 282 280 282 280 281 282 283 282 283 285 287 287 285 286 285 284 283 282 281 283 284 283 282 282 282 282 283 284 284 285 286 286 286 286 285 284 283 283 283 282 280 279 279 278 278
292 292 294 293 289 284 279 280 283 277 279 281 281 282 282 282 284 285 284 285 287 287 285 285 283 283 283 281 280 280 281 281 281 281 283 283 282 284 284 283 283 283 283 283 283 283 283 283 280 280 279 280 278 278
296 293 292 292 288 281 274 276 282 278 276 278 280 279 279 279 281 282 283 284 284 284 283 283 283 281 280 280 280 279 280 282 281 281 284 284 282 280 282 283 283 282 282 282 282 281 280 279 280 280 280 279 277 277
289 288 288 285 282 281 278 278 275 278 278 277 279 277 276 278 278 278 282 284 284 283 283 277 277 277 277 278 278 280 281 281 281 281 282 282 283 281 280 280 281 281 282 281 281 281 280 279 279 280 281 279 278 277
286 288 281 281 275 273 276 278 275 276 275 275 276 272 273 274 276 278 278 278 279 275 275 275 276 275 275 276 277 278 279 280 282 283 285 285 281 280 279 280 281 280 281 281 282 280 278 279 279 278 277 277 277 277
286 282 277 274 272 270 269 272 272 273 270 271 267 269 270 272 274 273 276 274 273 274 275 274 273 273 272 274 276 279 281 280 280 281 283 283 282 282 281 280 282 280 280 280 281 279 278 279 279 277 277 276 276 276
283 276 273 271 270 267 269 266 270 268 268 269 270 268 267 269 271 271 273 271 273 273 273 271 271 270 272 272 274 275 277 277 278 280 282 281 280 280 281 281 281 282 281 279 279 279 279 277 279 277 276 276 275 273
276 272 270 265 265 266 265 265 264 267 264 263 267 266 267 267 269 267 269 271 270 271 271 270 269 269 268 269 271 273 276 276 275 274 276 281 280 279 279 280 280 280 280 279 278 277 277 278 276 276 275 274 273 272
271 269 267 269 266 267 266 264 264 265 264 265 266 266 264 267 266 267 269 271 270 269 268 268 267 266 267 269 269 271 272 275 274 273 275 280 280 279 278 277 276 277 280 281 278 277 276 276 276 275 274 275 276 272
269 268 270 272 270 268 267 268 268 266 262 263 266 265 265 262 263 269 271 269 270 268 267 267 266 266 266 268 270 271 273 274 274 274 276 276 278 281 281 279 278 279 280 280 279 277 276 276 275 275 275 275 273 272
273 272 270 269 267 266 265 264 263 264 266 268 268 262 263 265 268 271 270 268 267 265 264 265 265 265 266 267 269 271 272 274 275 276 276 277 278 280 282 282 281 282 281 280 279 279 278 277 276 275 274 272 272 273
271 270 270 263 263 264 265 266 266 267 269 268 267 266 266 268 268 267 267 265 262 263 264 265 266 265 266 268 270 273 274 274 272 271 272 274 274 276 279 280 280 281 280 280 282 280 278 278 276 274 273 271 271 271
269 270 267 264 265 265 265 264 263 262 265 265 265 266 266 266 266 263 263 263 263 265 264 262 262 262 264 266 268 270 274 275 274 273 272 274 276 277 279 279 278 279 279 279 278 278 281 277 274 271 269 269 269 269
267 267 264 264 263 259 259 260 261 264 259 259 258 262 264 263 264 263 262 262 262 259 261 264 264 264 265 266 267 267 268 274 275 275 275 277 277 277 277 278 278 278 278 278 277 274 273 271 270 269 268 268 268 267
267 264 264 261 259 257 257 256 256 257 257 258 259 256 259 262 263 266 262 260 261 263 266 265 263 265 267 269 270 271 274 273 273 274 276 277 276 277 277 278 278 278 277 275 273 272 271 270 269 268 268 267 266 266
260 259 256 257 255 256 257 257 257 256 256 255 258 258 258 261 264 265 262 260 263 264 263 263 264 267 270 271 273 274 275 274 275 278 278 278 279 278 276 276 275 274 273 272 272 271 270 269 268 268 267 266 265 265

GFSWCAN_sfc_thetae_039.txt.gz
Theta_e
300 300 300 301 302 301 301 300 299 299 299 299 299 299 299 300 301 300 298 302 296 293 301 303 303 300 300 300 293 297 294 294 293 289 289 290 289 292 291 293 292 290 288 286 287 285 284 300 301 294 298 300 299 298
300 299 300 301 301 301 300 300 299 299 298 298 298 299 300 299 300 300 295 300 300 295 302 306 307 307 305 304 300 299 296 295 296 291 291 294 291 294 293 288 296 290 294 292 293 293 302 304 302 302 300 298 298 298
299 299 299 301 301 301 300 300 299 299 299 298 299 299 299 299 300 299 297 299 298 299 303 304 302 307 309 308 309 298 297 300 298 302 297 296 292 297 291 292 294 297 300 295 296 300 302 303 303 300 298 296 297 298
299 299 300 301 300 300 300 300 299 299 299 299 299 299 299 298 299 299 296 299 296 294 294 299 307 305 308 308 307 306 303 303 302 301 296 294 293 300 295 295 295 298 299 297 297 300 302 300 299 298 296 295 295 295
299 299 299 301 299 300 300 300 299 299 299 299 298 299 299 299 299 299 299 299 300 293 292 298 305 304 305 305 305 305 303 301 298 296 294 294 298 298 299 297 295 300 297 295 295 300 300 298 299 298 295 293 293 293
298 298 299 301 300 300 300 300 299 299 299 298 298 299 299 300 299 297 295 300 301 299 294 294 303 301 303 304 303 302 302 300 299 296 297 299 303 299 295 293 299 303 303 303 301 301 300 299 298 297 294 293 293 292
298 298 299 300 300 300 300 300 299 299 298 299 299 299 299 300 299 292 293 297 301 299 296 293 297 301 303 302 301 300 302 300 299 297 297 298 299 299 296 292 300 302 303 303 303 301 298 298 297 295 293 292 292 291
298 298 299 300 299 300 300 299 299 298 299 299 299 300 301 301 300 295 300 302 302 297 299 292 293 297 302 298 296 302 298 298 298 297 298 297 298 297 291 299 302 303 304 302 302 302 300 299 296 293 291 291 289 287
298 298 299 300 299 300 300 299 299 298 298 298 299 300 300 298 295 297 300 301 303 300 295 293 290 290 301 299 299 299 299 293 298 294 295 294 294 291 298 300 302 303 300 300 299 298 297 295 293 291 291 291 288 287
298 298 300 299 299 299 299 299 298 298 297 298 300 296 293 297 298 299 299 297 299 299 299 293 298 293 298 298 297 296 295 292 287 291 293 290 291 299 302 303 303 301 301 298 294 292 293 291 291 292 292 292 290 288
297 298 299 299 299 299 299 298 298 297 297 295 293 291 294 297 298 297 291 293 294 290 297 296 295 294 299 294 294 295 292 291 287 288 289 290 291 296 296 295 297 298 300 299 299 299 297 295 294 293 292 291 290 288
297 298 299 298 299 299 298 298 296 294 293 292 292 294 293 294 292 289 288 290 289 289 294 293 294 295 298 299 294 293 290 290 285 291 287 286 293 293 292 292 294 296 298 297 297 297 297 296 296 294 291 290 289 287
297 299 298 298 298 297 298 296 295 295 295 295 291 287 291 289 285 285 283 286 286 288 289 289 291 294 295 296 291 291 286 286 291 286 285 290 294 291 291 292 294 294 296 295 295 296 297 295 295 292 290 289 287 285
297 299 298 298 297 297 296 295 294 295 294 289 285 283 286 284 286 286 286 287 289 289 290 290 290 291 293 291 291 287 289 288 284 282 285 293 290 288 290 292 293 293 293 293 293 294 293 292 291 291 289 288 286 285
298 299 298 297 296 297 294 293 294 296 291 286 286 282 283 287 287 287 286 287 290 291 290 291 290 290 289 287 289 288 285 283 285 287 292 290 288 287 290 292 292 293 293 293 293 292 292 291 289 288 288 288 286 285
298 297 294 295 297 294 293 293 295 294 288 286 285 283 285 285 286 286 284 287 291 290 290 289 287 286 287 289 285 285 284 283 289 289 290 288 287 289 290 290 290 291 292 292 292 292 291 290 289 288 287 286 285 285
297 293 293 295 295 292 293 292 291 286 284 284 283 285 285 284 284 286 286 286 289 288 286 287 284 286 286 285 283 287 285 286 285 285 287 287 285 285 286 288 288 289 290 291 290 290 290 289 287 285 283 283 283 282
294 294 294 296 293 290 290 290 286 284 281 284 282 283 284 284 283 286 287 287 287 286 286 285 284 284 284 283 286 285 284 285 286 286 286 286 286 286 287 287 288 288 288 288 287 285 285 284 284 283 282 281 280 280
295 295 295 293 291 288 284 283 285 279 281 283 283 284 283 283 285 286 285 286 287 287 285 285 283 283 285 284 282 282 281 281 281 283 285 288 287 285 285 285 285 285 285 285 285 285 285 286 283 281 280 281 279 279
298 295 293 292 290 285 280 280 284 280 279 281 281 280 281 281 282 282 284 285 285 285 283 281 283 283 282 281 281 281 281 282 282 281 284 287 288 285 285 284 285 285 285 285 285 285 282 281 281 281 282 281 279 279
292 291 289 288 284 284 281 280 278 280 280 279 280 279 278 279 278 280 283 285 284 283 282 284 282 281 280 279 279 280 281 281 281 281 281 282 285 286 285 284 284 284 284 284 283 282 282 280 281 282 282 281 280 279
288 289 284 283 281 279 279 279 279 279 278 278 278 276 276 276 277 279 279 279 280 283 281 280 280 278 278 278 278 278 278 279 280 281 284 285 283 285 285 284 283 283 284 284 284 283 281 281 282 282 280 279 279 278
287 284 281 280 277 276 273 276 275 275 274 274 273 274 275 274 277 277 276 280 280 279 279 278 277 275 274 276 276 277 279 280 279 280 281 282 283 285 284 284 283 283 283 283 284 281 280 282 281 279 279 278 278 277
284 280 278 277 276 274 273 272 274 273 273 274 273 273 273 275 275 276 275 278 279 277 277 275 275 274 276 275 275 276 277 278 277 278 279 279 280 282 284 283 284 283 284 282 280 280 279 279 281 279 278 277 277 275
278 276 275 272 270 271 271 270 270 272 272 271 271 271 272 272 273 273 273 278 276 276 277 275 274 273 272 273 274 275 277 276 275 274 276 278 278 280 281 282 282 283 282 280 278 279 279 279 279 278 278 277 275 274
275 274 272 274 271 271 272 269 268 270 271 269 270 271 271 273 270 270 274 278 277 277 276 274 274 273 272 273 272 273 274 276 274 273 274 277 278 278 279 279 278 279 281 281 280 279 278 278 278 277 276 277 278 274
274 273 272 274 273 271 270 271 272 271 268 268 271 269 271 267 268 274 277 276 277 276 275 274 273 272 271 272 273 273 274 274 273 274 276 276 277 277 276 277 279 281 281 282 281 280 278 278 277 277 276 277 276 274
276 274 271 271 271 270 269 270 269 268 271 272 273 267 267 269 272 278 278 275 275 272 272 271 271 270 270 270 271 271 271 273 273 274 275 276 277 278 278 280 283 284 282 282 281 280 279 278 277 277 276 275 274 275
273 273 273 268 268 269 270 270 271 273 273 273 272 271 271 274 275 275 273 271 269 269 269 270 271 270 269 270 271 271 272 272 272 270 270 271 274 278 280 281 282 282 281 281 283 281 280 279 278 277 275 275 274 274
272 275 272 268 267 268 271 269 269 267 269 269 269 270 271 272 273 270 269 268 267 268 270 269 268 266 267 267 268 269 272 273 274 273 271 272 274 279 279 279 280 281 281 281 280 280 283 280 279 274 273 272 272 272
272 272 270 271 270 266 264 264 265 267 266 266 264 267 270 268 270 270 268 268 268 267 266 267 269 269 268 268 268 268 268 272 273 274 275 275 276 277 278 279 280 280 280 279 279 279 276 273 272 272 271 271 271 270
271 271 269 267 266 262 263 264 264 266 265 265 267 262 266 267 268 273 267 265 266 267 269 270 268 269 270 270 270 271 274 273 273 273 273 274 275 278 278 279 279 279 279 278 275 274 273 272 272 271 270 270 268 268
264 264 263 264 264 263 263 264 264 264 263 264 265 263 264 265 267 271 266 265 268 269 269 269 269 268 269 269 272 274 277 276 275 279 279 279 279 279 279 279 279 278 276 275 274 274 273 272 271 271 269 268 268 268

GFSWCAN_sfc_thetae_042.txt.gz
Theta_e
301 301 300 300 301 303 302 301 301 300 300 299 299 299 299 300 300 298 297 301 295 292 295 303 303 300 299 299 293 296 294 294 293 289 288 287 285 289 287 292 288 287 286 285 284 283 279 297 298 290 293 295 295 297
301 301 300 300 300 303 301 301 301 300 300 300 299 299 299 299 299 300 296 300 300 293 297 306 307 307 305 302 300 298 296 294 296 291 291 291 289 289 288 286 293 288 291 289 289 287 297 300 297 297 296 294 293 294
300 300 300 300 301 302 301 301 301 300 300 300 299 299 299 299 299 298 296 298 297 296 301 302 301 306 308 307 308 297 298 299 297 299 296 294 289 292 288 287 290 292 296 291 293 296 298 296 298 295 294 292 293 295
300 299 299 299 300 302 300 301 301 300 300 300 300 299 299 298 298 298 295 299 296 294 293 298 306 303 307 307 306 306 302 303 302 300 295 293 291 297 291 292 291 294 294 293 293 296 296 296 295 295 293 293 293 294
300 299 299 299 300 301 300 300 300 300 300 300 299 299 299 299 298 298 297 300 299 294 292 296 303 303 305 305 305 305 303 300 298 296 293 292 295 294 294 293 291 295 293 291 289 296 295 294 295 296 292 292 292 291
299 299 299 299 300 301 300 300 300 300 300 299 299 300 300 300 300 296 293 299 301 299 293 292 301 299 302 304 303 303 302 300 299 296 295 297 298 296 289 289 296 297 298 299 295 296 296 295 294 294 291 291 292 290
299 299 298 298 300 301 300 300 300 300 300 299 300 300 300 300 298 291 292 297 300 299 295 291 295 300 302 301 300 300 302 299 298 296 295 296 297 296 292 289 296 297 299 299 299 297 294 295 292 291 291 291 291 289
299 299 298 299 300 300 299 300 300 300 299 299 300 301 301 300 299 294 300 301 301 297 298 290 290 295 302 297 295 300 297 298 297 296 297 296 296 296 291 295 298 300 299 298 298 298 296 294 291 289 289 288 287 286
299 298 298 299 300 299 300 300 300 299 299 298 299 301 299 297 294 297 300 301 302 298 292 292 288 288 299 298 298 297 298 292 297 293 294 294 293 290 294 296 297 297 297 295 295 295 294 291 289 288 288 288 286 285
298 298 298 298 300 299 299 300 299 299 297 298 298 295 292 297 298 299 298 296 296 298 297 292 296 291 296 296 294 294 295 291 286 291 293 290 290 296 297 296 295 298 297 295 291 287 288 285 288 289 289 289 287 286
298 298 298 299 299 299 299 299 299 297 298 294 292 291 294 298 297 297 291 292 293 289 295 295 294 292 297 291 292 294 289 288 285 287 288 287 288 292 291 291 292 294 295 296 295 294 294 293 292 290 290 288 287 286
298 297 298 299 299 298 299 298 297 293 292 291 291 294 293 293 292 288 287 289 288 287 292 292 293 293 295 296 291 291 287 287 284 289 286 284 290 291 289 290 291 293 294 295 295 294 295 295 294 292 290 288 286 284
298 297 298 299 299 298 298 298 296 295 296 295 291 287 290 289 285 285 284 285 286 288 288 288 289 292 294 293 289 287 285 285 289 285 284 285 287 287 287 290 290 293 294 294 293 295 296 294 293 291 288 287 284 283
297 297 298 299 298 297 297 296 295 295 292 288 284 278 284 284 286 286 286 286 288 288 289 290 289 290 292 289 289 284 288 285 283 281 281 285 285 286 287 290 291 291 292 292 292 293 292 291 290 289 288 285 284 283
297 296 298 298 297 297 296 294 295 294 288 285 283 279 283 286 286 286 285 287 288 290 290 289 287 289 287 285 287 285 284 282 284 280 285 284 284 284 286 288 288 289 289 290 290 290 290 289 288 286 286 285 284 283
297 297 295 296 296 295 293 294 293 293 285 285 282 283 285 285 284 285 284 286 289 289 289 287 286 286 282 285 283 284 282 281 283 281 280 283 283 284 284 285 287 287 288 289 289 290 288 287 285 285 284 283 282 282
296 292 295 294 294 292 293 290 288 285 283 282 282 285 285 284 284 284 286 285 288 286 285 286 285 284 285 283 282 286 284 283 280 279 279 281 281 283 283 285 286 286 287 288 288 287 287 286 284 283 280 280 280 279
293 294 295 295 293 290 289 286 282 283 280 283 281 283 284 284 284 285 285 287 286 285 285 284 284 283 282 283 282 282 281 281 278 278 280 282 283 283 283 282 283 282 283 283 280 280 279 280 280 279 278 278 278 279
295 295 296 295 291 287 283 281 282 278 281 282 283 283 283 283 285 285 284 285 286 287 284 284 282 282 283 282 281 279 277 279 280 280 281 283 283 282 281 280 281 279 279 279 281 281 281 281 280 279 280 280 278 278
297 297 295 293 290 285 280 279 283 280 277 280 282 280 281 280 282 282 280 281 283 282 281 280 281 282 281 279 277 277 278 279 279 279 279 281 282 279 281 278 280 280 281 280 279 281 277 278 279 281 280 280 278 278
292 291 290 288 285 284 281 279 278 280 280 278 280 279 278 279 277 278 280 284 280 272 273 278 279 277 277 276 278 277 277 277 276 277 278 278 281 283 284 283 277 280 280 280 279 278 280 278 278 279 282 280 280 279
288 290 284 284 282 279 278 279 278 279 277 277 276 276 273 272 274 276 279 278 278 275 276 276 274 275 275 274 274 274 275 275 276 278 282 282 280 281 282 283 280 275 277 279 281 281 278 279 280 280 280 279 279 279
287 285 282 281 278 277 273 277 275 276 274 274 272 269 270 273 276 276 274 277 274 274 274 273 272 271 271 272 274 274 275 274 274 275 276 276 278 280 281 282 282 280 279 279 279 281 281 282 283 279 279 278 278 278
286 282 279 277 277 273 273 271 275 274 274 273 271 268 267 268 269 274 272 272 272 272 272 270 269 269 270 268 268 271 273 273 272 272 272 272 273 274 276 278 281 280 283 280 278 279 281 281 282 279 278 278 277 276
278 276 276 272 270 269 270 269 271 272 271 271 269 268 266 267 265 265 265 269 269 268 269 269 269 268 264 264 269 270 272 271 269 270 270 270 272 273 274 276 279 280 280 280 279 278 279 279 279 278 278 277 276 275
275 274 272 272 266 268 271 270 270 270 271 266 267 267 266 266 262 263 267 269 269 270 272 271 268 266 269 271 268 267 269 270 269 269 270 271 272 273 274 273 272 275 279 282 280 279 279 279 278 277 277 278 279 275
274 272 272 274 272 272 270 272 273 271 268 266 267 264 264 261 261 267 270 270 270 269 269 270 270 269 268 266 268 269 268 266 267 269 271 272 272 273 272 272 271 274 279 281 281 280 279 278 278 278 277 277 277 275
275 272 268 270 271 271 270 269 269 269 269 272 271 263 263 265 266 269 269 268 266 265 264 264 264 264 264 264 264 266 265 266 266 268 271 272 273 273 273 275 276 279 279 281 282 281 280 279 278 278 277 277 275 275
271 274 274 270 270 270 270 270 270 271 272 270 268 267 267 269 267 267 267 265 262 262 262 262 263 262 261 263 265 267 266 264 266 266 266 267 268 268 271 274 276 278 280 282 284 283 280 280 279 278 278 276 275 275
272 275 272 270 270 269 269 268 268 265 267 267 267 267 267 266 266 265 264 261 261 262 261 261 260 259 259 259 261 263 265 267 269 269 268 268 268 267 268 271 275 277 281 281 281 282 284 282 282 278 275 274 274 274
274 274 271 271 270 266 264 263 264 266 264 261 260 261 263 263 265 264 262 262 261 259 258 258 258 259 261 261 260 264 266 265 266 268 270 272 272 271 272 273 276 278 280 280 280 280 280 277 274 273 273 273 273 272
272 269 268 266 265 261 260 259 260 261 261 259 259 258 260 261 261 265 261 259 258 259 263 262 260 262 263 262 264 267 273 271 271 272 272 272 271 271 272 274 277 279 279 279 279 276 274 273 273 273 272 272 270 270
265 266 266 264 259 258 260 259 261 260 259 260 261 260 259 260 262 264 261 260 260 261 261 261 261 262 262 263 267 270 274 273 275 280 281 281 280 278 277 278 278 278 277 275 274 274 273 273 272 272 271 271 270 270

GFSWCAN_sfc_thetae_045.txt.gz
Theta_e
301 301 301 301 301 301 302 303 301 301 300 300 300 300 299 299 300 297 295 300 294 292 294 299 302 297 297 297 290 294 294 294 293 289 286 286 284 286 286 290 287 285 285 285 286 282 279 293 294 289 292 293 293 294
301 301 301 300 300 300 302 302 302 301 300 299 300 299 299 298 299 298 293 299 300 292 295 302 304 306 303 299 298 294 293 293 295 291 290 288 286 287 286 285 291 286 288 287 286 285 292 295 295 294 294 293 292 293
301 300 301 300 300 300 301 301 301 301 301 299 299 299 299 298 298 297 293 297 296 294 297 300 299 306 308 306 306 294 295 297 294 298 293 293 286 289 284 285 290 293 296 291 290 294 295 294 292 292 292 291 292 295
300 300 300 300 300 300 301 301 300 300 301 300 299 299 299 298 298 298 291 297 295 292 292 297 306 302 305 305 303 302 299 301 300 300 295 292 290 294 290 290 290 291 294 292 291 294 293 293 292 292 291 292 292 294
300 300 300 300 300 299 301 301 299 300 300 300 300 299 300 300 300 297 293 297 298 291 291 294 300 300 303 302 302 303 301 300 298 296 294 292 294 291 291 290 288 294 292 290 289 294 294 293 293 293 291 290 292 291
299 300 300 299 299 299 301 301 299 300 300 300 299 300 300 300 300 293 291 299 300 299 293 291 300 296 300 303 300 301 302 301 299 296 295 296 298 297 290 289 294 294 296 297 294 295 294 293 293 292 290 290 291 290
299 300 300 299 299 300 301 300 299 299 300 299 299 300 300 300 295 291 292 297 300 299 294 291 293 299 301 300 298 299 302 299 297 295 294 295 296 297 292 287 293 295 297 297 297 296 293 292 291 290 290 290 290 288
299 300 299 298 299 300 300 299 299 300 299 299 299 301 300 299 298 293 298 301 301 296 297 289 289 292 301 297 295 300 297 297 296 295 296 294 295 294 291 293 296 298 298 297 295 295 295 291 289 287 287 287 285 285
300 299 299 298 299 300 299 299 299 299 299 298 299 301 297 296 293 296 301 301 301 297 292 291 287 287 299 296 298 297 298 292 296 292 293 294 293 289 291 294 295 297 295 293 293 292 290 288 286 286 286 286 285 284
299 298 298 298 299 300 299 299 299 298 298 298 297 294 291 296 298 299 297 295 295 296 296 292 294 290 294 295 291 294 295 291 285 291 293 290 290 296 290 290 291 292 292 293 290 287 285 283 285 286 286 287 287 285
298 298 298 298 299 299 299 299 298 296 296 290 290 290 294 298 296 295 291 291 292 289 295 294 291 291 297 290 292 293 288 287 285 286 287 285 287 287 288 288 291 291 291 291 293 294 293 290 290 288 288 287 286 285
299 298 298 298 299 299 299 298 297 290 291 291 290 293 293 293 291 288 287 288 288 286 292 292 292 293 294 295 291 291 287 286 283 289 286 283 287 286 287 287 290 291 291 292 294 295 294 293 291 291 288 287 286 283
297 298 298 298 299 298 298 297 295 295 295 294 290 286 289 288 285 284 283 285 286 288 288 288 288 292 293 293 287 286 285 285 289 284 284 285 285 286 285 288 289 291 292 293 293 295 295 294 294 291 288 286 284 282
297 298 297 297 299 297 297 296 295 293 291 287 284 279 283 283 284 285 285 285 287 287 288 290 288 289 292 288 287 284 287 285 282 281 280 283 284 284 285 286 287 287 289 290 291 292 292 292 291 289 287 285 284 282
296 297 297 297 297 296 296 294 294 291 288 284 283 278 282 284 285 285 285 286 287 289 289 289 287 287 286 285 284 284 283 281 283 282 282 279 282 283 284 285 285 286 287 288 290 290 289 288 287 284 284 284 283 283
297 295 294 296 296 294 293 293 291 288 283 284 280 281 285 284 283 284 284 285 287 288 288 287 286 285 284 284 283 283 282 280 283 280 276 277 281 281 282 283 285 286 286 287 288 289 288 286 284 283 283 283 282 282
296 292 296 295 294 293 293 288 286 280 277 281 280 285 283 283 281 284 286 285 288 286 285 285 284 283 285 282 282 285 283 282 281 275 276 278 279 280 280 282 283 283 284 285 286 287 286 285 283 282 279 279 280 279
292 294 295 295 293 290 288 286 280 280 278 281 279 281 284 284 283 284 285 286 286 285 285 284 284 282 282 282 280 281 281 281 276 276 277 279 280 281 281 281 282 281 282 282 280 279 278 279 279 279 277 277 277 278
294 294 296 295 291 286 281 280 281 277 277 281 282 282 283 283 284 284 284 285 285 286 284 283 281 281 281 282 282 279 272 274 276 278 280 281 280 280 280 281 282 279 280 279 281 281 281 280 279 278 278 279 278 278
297 296 296 293 290 282 277 277 282 277 276 278 281 280 280 280 281 282 282 283 283 280 279 279 281 279 279 277 276 275 275 277 276 275 276 278 279 276 279 282 283 281 279 280 278 281 276 278 279 279 279 279 278 278
292 291 290 288 284 282 278 277 276 275 277 276 277 279 277 278 277 277 277 279 280 273 269 275 278 277 275 275 277 277 276 275 274 274 274 272 276 280 281 282 283 282 281 278 278 279 281 278 278 278 278 280 279 279
288 290 284 284 280 278 276 278 275 277 274 274 275 276 273 273 274 276 274 278 278 273 275 275 273 273 274 274 273 273 274 274 274 274 278 278 274 273 275 278 280 281 281 281 277 278 281 281 280 280 280 279 279 278
288 286 282 280 277 274 271 274 270 271 271 270 271 271 270 272 274 277 274 276 274 274 273 272 270 269 270 271 273 273 274 272 272 273 274 273 273 275 274 274 275 278 279 281 278 280 282 283 283 281 280 280 278 278
287 282 278 277 274 271 271 266 272 270 270 271 270 271 269 270 272 273 272 271 273 270 271 268 267 268 268 265 266 269 271 271 271 269 269 269 270 272 273 274 275 275 277 278 279 280 281 281 283 281 279 278 278 278
279 276 274 268 267 266 263 265 266 271 270 272 272 270 267 269 265 264 268 269 265 266 267 267 266 266 263 260 267 268 269 270 269 269 268 269 270 271 270 271 273 275 276 277 279 279 279 280 281 279 278 278 278 276
274 272 270 269 265 266 266 267 268 269 271 270 271 267 268 268 264 266 269 267 266 267 268 270 269 264 266 269 266 265 268 268 267 267 268 269 269 269 265 269 270 271 274 276 278 278 278 279 279 278 278 279 280 276
272 268 272 275 271 271 269 271 272 270 269 269 267 268 268 263 266 270 270 269 270 268 269 270 270 270 270 265 266 267 266 263 265 267 267 268 269 270 270 269 269 271 273 272 275 279 278 278 279 278 278 278 279 277
273 270 267 267 268 270 269 268 268 267 269 271 271 268 267 267 270 270 270 267 264 261 260 260 262 263 263 262 262 264 263 261 261 263 267 269 270 270 270 271 272 276 275 276 276 276 278 279 279 279 278 278 278 277
269 270 270 266 268 269 270 270 269 270 272 272 270 268 268 271 268 267 267 264 259 262 262 261 262 257 258 259 259 260 260 260 261 263 263 265 267 266 266 269 271 273 274 276 280 281 280 280 280 279 279 279 277 276
267 272 269 268 269 269 269 269 268 268 269 268 269 268 269 269 267 264 263 259 261 263 260 258 257 258 259 257 258 260 260 264 265 266 266 266 266 265 263 266 270 271 271 274 276 279 283 285 283 281 278 275 275 274
273 273 270 270 269 266 265 265 266 267 265 264 263 264 266 265 266 264 262 259 258 255 257 257 256 253 257 257 257 257 263 263 262 265 267 269 270 271 271 271 270 270 271 273 275 278 280 280 278 275 274 274 274 274
270 270 270 267 265 263 264 263 263 263 264 261 262 259 260 261 262 265 259 257 256 258 264 260 257 261 261 261 260 264 272 270 270 270 269 271 271 272 272 271 270 270 272 274 277 279 278 274 274 274 273 274 274 272
265 263 265 265 263 260 261 263 261 260 260 257 258 257 256 259 263 265 260 257 260 260 261 261 261 259 260 259 262 265 271 269 268 276 278 279 280 280 273 271 273 274 275 276 276 275 275 274 273 273 273 272 272 272

GFSWCAN_sfc_thetae_048.txt.gz
Theta_e
302 302 302 301 301 301 301 302 303 301 301 300 299 299 299 299 299 294 294 300 294 290 293 298 300 293 297 296 291 295 293 294 292 288 287 285 283 286 285 288 286 284 283 284 284 282 277 291 293 289 292 292 292 293
302 302 302 301 300 300 301 301 302 301 301 301 300 300 300 299 298 297 292 298 300 291 292 298 300 302 301 301 298 296 293 293 295 291 289 286 284 285 284 285 289 284 286 285 287 285 291 292 294 293 293 292 291 292
302 301 301 300 300 300 300 301 302 300 300 301 300 300 300 300 298 297 292 295 296 292 295 296 297 306 306 306 306 296 296 298 293 296 291 289 286 287 283 284 288 291 293 290 290 293 293 294 293 292 291 290 292 294
302 301 300 300 300 300 300 301 302 300 300 301 300 300 300 299 298 298 291 296 294 291 288 297 305 301 303 305 303 302 300 301 298 297 295 292 290 295 289 289 289 291 293 291 291 293 292 293 293 292 291 291 291 295
302 301 300 300 299 300 300 300 302 300 300 300 300 300 300 300 301 298 293 295 296 290 289 294 299 299 301 302 301 302 300 299 298 295 293 292 294 291 290 289 287 291 292 290 290 295 294 294 293 293 290 290 291 291
301 300 300 299 299 300 299 300 301 299 300 299 300 300 300 301 300 292 289 297 298 297 291 290 300 294 300 302 302 301 301 300 299 296 294 296 298 296 290 289 292 293 294 295 294 295 294 292 291 290 290 290 290 290
300 300 299 300 300 299 299 301 299 300 299 299 300 300 301 301 294 289 291 296 301 299 293 290 291 299 299 300 299 299 302 299 298 295 294 295 295 296 291 288 293 296 298 297 297 295 292 291 291 290 289 289 290 287
300 299 299 300 299 299 299 300 299 299 299 299 299 300 300 300 297 292 297 300 300 295 296 289 288 292 300 296 295 299 297 297 297 295 296 293 295 294 289 294 294 296 296 295 293 294 292 290 288 287 286 286 284 283
299 298 299 298 299 299 300 299 299 299 299 298 299 301 295 296 292 295 301 302 301 296 291 291 286 285 299 296 297 297 297 292 296 291 293 294 293 288 287 287 288 291 291 292 293 290 289 288 286 285 285 284 283 283
299 299 298 298 298 299 299 299 298 298 297 299 296 293 291 295 299 299 297 295 294 295 295 292 292 288 293 294 292 294 295 291 286 290 293 290 290 291 288 287 286 289 290 291 291 288 284 283 285 285 285 285 285 285
299 298 297 298 298 299 299 299 298 296 295 289 289 289 294 298 295 294 290 290 292 289 294 294 293 288 294 288 290 293 288 287 285 287 287 285 286 286 286 285 287 289 289 290 290 291 292 292 289 288 288 288 287 285
298 298 298 297 298 299 299 298 297 289 288 289 289 292 293 292 291 288 287 288 288 287 292 291 292 293 294 295 291 291 286 286 283 289 286 283 287 285 285 285 287 288 289 290 291 292 293 293 292 290 289 287 286 285
298 297 297 296 298 299 298 297 295 295 295 293 290 287 289 288 284 284 282 285 285 288 288 288 288 291 293 293 288 287 285 285 288 283 283 285 284 285 284 285 286 287 289 290 291 293 295 293 292 290 288 287 284 282
298 297 297 297 298 299 298 296 294 293 291 286 280 282 284 283 284 285 279 284 287 287 288 290 288 289 292 288 288 284 287 286 282 281 281 283 282 283 284 285 284 285 287 287 289 291 291 294 292 291 289 285 284 282
297 297 297 296 297 297 296 294 294 290 286 281 283 278 282 284 285 284 285 286 287 289 289 288 287 289 286 285 286 284 283 281 282 282 282 278 281 281 282 283 283 284 285 286 288 289 289 289 288 285 285 284 283 282
297 296 294 296 296 295 294 293 290 287 282 280 279 278 284 283 283 284 284 285 287 288 288 287 286 285 284 285 283 282 281 280 279 282 276 276 279 280 281 282 282 283 284 285 286 287 287 287 285 284 283 283 283 282
296 291 296 295 295 293 294 288 285 279 273 275 274 282 280 278 283 283 286 286 288 286 285 285 284 283 285 283 281 284 283 283 282 278 274 277 278 279 279 281 282 282 282 283 284 283 283 285 283 282 280 280 280 280
292 295 297 295 293 290 287 285 280 278 275 276 274 275 284 284 284 284 285 286 286 285 285 284 284 282 282 281 277 277 282 282 282 281 281 278 278 279 280 279 281 282 281 281 280 280 279 278 280 280 278 278 278 277
294 295 296 296 291 286 281 281 281 275 276 279 280 280 283 283 284 284 284 285 285 286 284 283 281 281 280 278 282 280 280 281 280 280 280 281 281 278 278 278 282 283 280 279 279 280 280 280 280 279 278 278 278 277
297 297 297 294 291 282 278 278 281 276 274 278 280 279 280 280 281 281 282 283 283 280 279 279 280 282 279 278 275 279 276 277 277 275 275 276 276 272 275 276 280 280 281 281 278 283 277 279 279 279 278 278 277 277
292 291 291 287 283 281 276 275 273 274 275 275 276 277 275 278 277 277 277 281 279 275 272 275 277 278 275 275 278 277 276 275 274 274 274 270 274 273 274 273 272 279 280 281 281 281 280 279 280 280 278 279 278 279
288 290 285 284 278 275 273 276 274 276 274 273 274 275 272 271 273 275 275 276 275 275 275 276 274 274 273 274 273 273 274 275 274 274 277 276 272 271 271 272 272 270 271 277 280 280 279 280 282 281 280 279 281 278
289 286 281 277 272 269 269 274 271 271 270 269 271 270 270 270 272 276 272 272 276 277 275 274 271 269 272 270 273 273 273 271 271 272 273 272 272 272 271 271 271 267 271 273 274 276 277 282 283 283 280 281 278 278
288 281 275 272 269 268 270 267 273 272 270 270 270 269 267 266 272 272 267 273 276 269 271 271 270 270 270 267 267 269 270 271 270 268 268 267 267 270 272 273 273 272 273 274 274 277 279 280 282 282 280 279 278 278
279 273 272 264 267 265 263 264 265 268 265 269 269 269 267 267 265 265 266 273 268 266 268 269 269 267 267 263 266 267 268 270 269 268 267 268 267 268 269 269 271 273 273 269 273 273 276 279 278 278 278 278 278 278
275 272 272 267 262 265 266 264 266 266 269 268 269 267 265 265 261 264 269 274 270 268 270 271 272 267 267 268 266 264 268 268 267 266 266 268 268 266 262 266 268 270 272 273 269 270 273 276 277 276 277 278 281 278
274 269 272 275 270 269 267 270 271 270 267 267 264 264 265 264 265 270 273 273 272 271 271 274 273 272 271 266 266 266 264 263 266 266 265 264 266 268 268 268 268 270 271 269 269 270 272 273 275 277 277 277 279 279
274 271 268 268 266 266 264 266 266 267 269 271 270 265 265 266 268 271 271 269 267 267 264 264 265 267 265 264 263 264 261 259 258 260 263 265 267 268 268 270 271 274 273 273 273 273 273 273 273 275 277 277 278 279
268 269 269 261 262 263 265 268 269 271 273 271 268 268 268 270 270 267 267 266 263 266 267 266 265 258 258 258 258 258 258 259 261 261 262 266 264 264 264 265 267 267 270 272 276 278 277 277 276 276 278 278 279 278
265 269 265 261 264 265 268 269 268 267 268 268 268 266 267 268 267 262 263 262 264 268 268 264 260 261 261 260 259 259 258 260 262 264 263 266 265 262 261 264 267 269 269 268 269 270 276 276 279 281 281 278 275 275
270 265 263 265 265 264 264 265 265 267 262 260 260 262 265 265 267 267 267 264 263 262 262 260 257 253 258 256 256 256 261 260 259 261 263 266 268 268 269 270 271 271 270 269 268 269 270 273 276 278 274 274 274 275
266 265 267 265 263 264 265 262 263 261 259 258 259 258 262 263 266 269 262 261 261 260 265 262 258 261 260 259 258 259 270 266 265 267 267 268 269 269 270 271 274 273 270 269 269 270 272 274 274 274 274 274 274 274
263 264 264 262 259 260 262 265 261 259 259 259 261 260 260 263 266 268 261 257 260 261 261 261 260 258 258 259 260 261 268 263 266 274 276 276 278 280 279 278 273 271 270 270 271 273 274 274 275 274 274 274 273 273

GFSWCAN_sfc_thetae_051.txt.gz
Theta_e
304 303 302 302 302 301 301 301 302 303 301 301 301 299 299 299 299 293 290 299 294 290 291 294 298 293 293 294 288 293 292 294 292 288 286 284 282 287 285 287 285 284 283 283 284 281 278 290 292 288 292 292 293 292
304 303 302 302 302 301 300 301 301 302 300 301 301 301 300 300 298 297 287 298 299 291 291 296 297 299 298 299 297 295 293 293 295 290 289 288 284 284 284 284 288 283 284 283 284 284 291 291 294 295 293 292 291 292
304 303 303 302 301 301 300 301 301 301 302 300 300 301 300 301 300 297 292 293 294 291 293 294 296 304 302 303 306 293 295 297 295 295 291 287 285 286 282 283 286 290 292 288 288 292 292 294 293 294 293 292 291 292
304 303 302 301 300 300 301 300 300 301 301 300 300 301 300 301 301 298 292 293 293 290 287 295 304 301 305 304 302 301 300 301 299 298 293 292 290 292 288 287 288 291 293 291 290 293 293 292 293 294 292 291 291 293
304 303 302 301 301 300 300 300 300 301 300 299 300 300 300 300 301 299 295 293 296 288 287 292 299 301 302 301 299 299 299 299 297 294 293 292 294 292 289 290 286 289 289 288 289 295 292 293 292 292 291 290 290 292
303 303 302 301 300 300 300 300 300 301 299 300 299 299 300 301 300 292 287 294 296 294 289 289 298 297 297 300 302 300 300 299 298 296 295 296 298 294 290 288 292 292 293 294 292 294 294 294 291 291 290 290 290 291
303 303 301 300 300 300 299 299 301 299 299 299 299 300 301 301 292 286 290 295 298 296 290 289 291 298 300 300 299 300 302 300 298 296 294 295 295 295 291 285 291 292 293 294 294 293 292 291 292 290 289 289 290 287
303 301 300 299 300 299 299 299 300 299 298 299 299 300 300 301 296 290 295 299 300 293 294 288 289 292 299 295 294 299 297 297 297 295 296 293 294 294 288 290 288 290 292 293 292 292 290 290 288 287 286 285 284 284
302 301 299 299 299 299 298 299 299 298 299 298 299 299 295 295 290 294 302 301 300 295 290 291 286 285 299 296 297 297 298 292 296 292 292 294 291 288 287 285 287 287 288 289 291 292 290 289 287 286 285 284 283 282
301 300 299 299 298 298 299 300 299 298 297 298 296 293 290 295 299 299 297 294 293 294 294 291 291 287 293 293 292 294 295 291 285 290 293 290 289 288 288 287 287 286 288 288 286 287 288 285 286 285 285 285 284 283
300 299 299 298 297 298 300 299 298 296 294 289 290 290 294 298 296 294 290 290 290 288 293 290 291 289 293 287 289 292 288 287 285 287 287 285 286 287 286 283 284 285 288 287 287 289 290 291 291 289 287 287 286 285
300 298 298 297 296 297 300 298 297 289 287 288 289 293 293 292 290 287 286 288 287 285 291 292 291 292 292 294 289 289 286 286 284 289 285 282 287 283 283 283 284 285 287 288 290 290 291 292 292 292 289 288 287 286
299 298 297 296 296 297 299 297 296 294 295 293 290 286 288 288 284 284 282 284 285 288 288 288 288 291 293 293 288 287 285 285 289 284 281 285 283 282 282 284 284 286 288 288 289 291 292 292 291 290 288 287 285 284
298 298 297 297 297 298 299 297 294 293 291 287 284 283 284 283 283 284 279 284 287 287 288 290 288 289 292 288 288 285 286 285 281 280 281 282 280 282 283 284 284 283 285 286 287 288 290 293 292 291 289 286 285 282
298 298 298 297 297 297 295 294 295 290 286 282 283 278 282 284 285 285 285 286 286 289 289 288 287 289 286 285 286 285 282 281 282 281 281 278 280 280 282 283 283 283 283 284 285 285 287 288 289 287 287 286 285 283
298 297 295 296 295 294 294 293 290 287 279 279 279 275 284 283 283 284 285 285 287 288 288 287 285 284 283 285 283 282 281 280 278 282 282 277 279 279 280 281 282 283 283 283 284 284 284 285 285 284 285 284 283 282
297 291 296 296 294 294 293 288 286 279 275 272 273 278 282 272 276 283 286 286 288 287 285 286 284 281 285 283 282 284 283 282 276 281 280 277 278 278 278 280 281 282 282 282 282 282 282 282 282 282 281 281 281 281
292 294 296 295 293 290 287 284 280 277 275 275 275 274 281 281 283 284 285 286 286 285 285 285 284 282 282 281 281 281 281 282 282 282 281 279 278 278 279 278 280 281 282 280 279 279 280 280 280 280 279 278 278 278
294 295 296 296 291 286 281 281 281 276 277 279 280 279 280 281 284 284 284 285 286 287 284 283 280 281 278 277 276 270 272 276 281 281 281 281 279 278 278 276 278 277 277 277 278 280 279 279 279 279 279 278 278 278
297 297 296 296 290 282 278 279 282 277 275 278 280 279 279 279 279 281 282 283 283 281 279 279 280 280 279 278 276 276 276 278 278 277 276 275 275 270 273 273 275 275 276 277 277 283 281 279 279 279 278 278 277 277
292 291 291 288 283 282 278 277 276 277 277 277 277 278 277 277 277 277 278 282 280 278 274 276 278 279 274 274 278 278 277 276 275 275 274 270 274 272 271 270 268 275 274 274 274 277 280 279 278 280 281 280 279 278
289 292 286 285 277 274 275 277 275 277 275 275 275 276 273 272 272 273 278 277 277 277 276 275 274 275 274 275 273 272 275 275 274 274 277 276 272 270 270 270 270 266 267 266 271 273 275 276 277 280 282 281 282 279
289 286 280 274 272 271 270 275 271 271 269 269 271 269 269 269 270 276 274 274 275 278 275 274 271 270 275 272 274 273 273 272 271 271 272 272 272 271 269 269 270 264 267 270 271 271 271 277 279 280 280 281 279 278
288 280 274 270 268 268 270 266 272 269 268 269 267 266 266 266 270 271 268 270 276 274 272 270 269 269 269 268 268 271 272 272 270 267 267 267 265 269 271 271 272 271 271 272 270 270 272 274 278 278 278 279 278 278
280 273 272 265 267 264 262 263 263 265 263 264 266 265 264 265 263 263 266 272 273 271 270 270 270 269 271 268 268 268 268 271 269 269 267 268 266 265 265 268 271 272 272 266 270 270 269 270 275 277 277 278 277 277
271 270 273 268 262 265 265 261 261 262 263 262 263 263 261 262 260 265 268 270 267 267 268 270 273 269 267 268 267 265 270 270 269 267 267 268 268 266 261 264 268 268 271 272 267 268 268 268 269 269 272 274 279 280
270 268 273 275 270 269 266 268 269 265 261 263 264 264 262 261 263 269 270 269 269 268 268 272 274 274 274 271 269 267 265 267 268 267 266 266 266 268 267 266 267 269 269 267 267 268 268 269 270 270 270 272 275 277
275 271 269 268 266 265 264 264 263 263 265 270 270 264 265 264 268 271 270 268 265 264 263 266 266 268 269 266 265 267 264 261 261 262 263 265 265 265 266 268 269 274 272 269 270 270 270 270 271 271 271 271 273 275
270 268 269 260 261 262 265 266 266 269 273 270 268 267 267 270 269 267 268 266 261 264 265 265 264 259 260 259 259 261 262 264 265 264 264 267 262 264 262 263 264 264 265 267 273 276 275 274 274 274 273 274 275 277
266 267 264 260 263 264 266 267 264 264 267 267 268 266 266 268 269 264 262 261 264 267 267 264 262 265 264 264 264 261 259 261 264 267 265 266 263 260 259 262 266 267 265 268 269 268 274 272 271 270 272 274 277 275
268 263 261 263 264 260 259 261 262 266 260 258 258 261 264 263 265 266 266 265 263 260 260 259 257 256 263 260 260 259 263 260 260 261 261 261 262 264 266 267 268 268 268 269 269 269 268 267 265 268 271 274 274 276
263 262 264 261 260 258 261 260 260 259 256 257 258 255 259 260 263 268 262 259 260 264 268 267 266 267 263 262 259 259 270 260 261 262 262 264 266 267 268 269 270 270 270 271 270 269 268 266 267 269 272 272 274 274
265 261 259 259 258 258 261 263 261 258 256 256 258 257 257 261 264 268 262 259 263 265 265 264 261 259 258 259 259 259 267 260 261 272 275 276 276 277 276 275 276 275 273 271 269 269 268 268 269 271 272 274 274 273

GFSWCAN_sfc_thetae_054.txt.gz
Theta_e
306 305 304 304 302 302 301 301 302 302 303 302 302 301 300 299 299 293 289 298 293 290 291 294 295 295 291 291 287 290 289 291 291 288 286 285 283 287 284 286 286 284 281 283 282 281 277 290 293 290 293 293 291 291
306 305 304 303 303 302 302 301 301 301 302 302 300 300 301 299 300 296 286 295 297 289 291 296 295 297 298 296 294 294 290 292 293 289 287 289 285 286 283 284 289 283 284 282 283 282 290 292 292 296 294 293 290 290
306 305 305 303 303 302 301 301 301 301 301 303 301 300 301 300 300 297 291 290 289 289 290 292 292 299 299 297 302 293 296 297 295 296 292 288 283 285 281 282 282 289 290 286 287 293 293 295 295 293 294 292 292 293
306 306 305 303 303 302 301 301 301 301 301 302 301 300 301 300 301 300 291 294 288 289 285 290 302 301 304 303 302 299 298 299 299 298 293 290 288 289 285 286 288 289 290 287 287 292 294 293 294 293 293 292 290 292
306 305 304 304 303 302 301 301 301 300 301 302 299 300 300 300 300 298 295 295 294 288 284 288 296 300 303 303 301 298 299 299 297 294 293 291 293 291 287 286 284 289 291 290 289 293 292 292 293 292 292 291 291 291
305 305 304 303 302 301 301 300 300 300 301 299 299 300 299 300 300 292 286 290 294 293 285 284 299 297 298 301 300 299 300 299 298 296 294 295 297 294 289 287 290 293 291 292 290 292 293 294 293 291 290 291 290 290
305 305 304 303 302 301 300 300 300 300 301 299 299 299 300 301 291 285 287 294 296 294 286 285 291 298 301 301 300 300 301 299 298 296 294 294 294 296 291 284 289 289 291 292 293 291 291 290 290 291 290 289 291 288
305 305 304 303 301 301 300 299 299 300 299 298 299 299 301 300 295 289 296 299 296 290 290 287 289 293 299 295 294 299 297 297 297 295 295 293 294 293 288 291 287 287 288 291 291 292 290 290 288 287 286 286 285 285
304 304 303 302 300 300 299 299 299 300 299 298 298 298 295 293 289 293 300 300 298 293 288 290 285 284 297 296 296 296 297 291 296 292 292 294 291 288 289 286 285 287 286 287 289 289 291 290 288 286 285 284 285 284
304 303 302 300 300 299 298 299 300 299 298 297 296 292 289 294 300 300 296 291 290 292 292 290 292 288 295 294 293 294 295 291 285 291 293 289 289 289 288 287 286 286 286 285 285 286 288 285 289 288 285 285 285 285
303 302 300 300 299 298 298 300 298 296 294 289 289 289 294 298 295 293 289 289 290 287 292 292 290 288 292 288 290 290 288 287 285 287 287 285 286 288 286 283 283 283 285 287 288 288 287 287 288 290 291 288 287 286
302 300 300 299 298 297 298 298 296 289 288 288 289 293 293 292 290 286 286 287 287 284 290 291 291 292 292 294 288 288 286 286 283 289 285 281 286 283 281 282 283 283 287 288 289 289 290 289 290 291 292 290 288 287
301 300 299 298 297 297 297 298 296 294 295 293 290 286 288 288 283 282 281 283 285 288 288 289 288 292 292 292 288 288 285 285 289 285 281 283 283 282 281 282 282 284 286 286 288 289 290 290 292 289 288 287 286 285
300 299 298 297 297 296 297 298 295 294 291 286 285 282 283 283 283 285 279 277 287 287 288 290 289 289 292 288 288 285 287 285 281 280 281 283 282 281 282 283 283 283 284 285 285 286 287 289 290 291 288 286 285 283
299 299 298 297 297 297 296 294 295 290 288 283 283 276 281 284 285 285 285 286 287 289 290 288 287 289 286 285 286 285 283 281 282 280 280 281 279 279 280 281 281 282 283 283 284 284 284 285 286 287 288 287 286 284
299 298 295 297 297 295 294 293 290 287 280 281 281 278 281 283 283 284 285 285 287 289 288 287 286 281 284 282 283 282 280 279 277 280 281 281 278 279 279 280 280 282 282 282 282 283 283 283 282 282 285 286 285 284
296 291 297 296 295 294 293 288 286 279 276 272 273 278 282 280 281 283 286 286 288 287 285 285 283 281 284 283 281 284 282 279 275 282 281 281 278 278 277 279 280 281 281 281 281 281 281 282 282 282 280 281 281 282
291 294 297 296 293 290 287 285 280 277 274 274 275 274 281 283 283 284 285 286 287 285 285 285 285 282 282 280 276 278 275 274 279 282 282 280 278 277 279 278 279 279 278 278 277 277 279 279 279 279 279 278 278 278
294 295 296 295 291 286 282 281 281 276 276 279 279 277 278 280 281 282 284 285 287 287 284 283 281 281 278 277 274 270 269 275 278 279 282 281 280 278 277 275 277 275 274 274 276 277 279 281 278 278 278 278 277 278
297 296 296 294 290 283 279 279 282 278 276 278 280 278 277 277 278 279 282 283 283 281 279 279 280 281 279 279 276 276 276 279 278 276 276 275 275 269 273 272 274 273 273 273 273 278 274 277 278 278 279 280 279 278
292 293 292 289 284 282 279 278 277 277 278 277 278 279 277 277 275 273 278 282 280 279 273 276 277 279 275 274 279 279 278 277 277 277 276 270 274 271 270 269 267 274 272 271 271 272 274 274 275 276 274 279 279 279
289 292 286 285 278 276 276 277 276 278 276 276 276 276 274 273 273 274 276 275 276 278 278 276 273 275 274 276 274 273 276 276 275 275 277 276 272 269 269 269 268 264 264 265 268 270 271 272 274 276 279 279 282 279
290 285 277 274 273 271 269 274 271 272 271 271 272 272 271 271 271 276 273 275 276 279 276 274 270 269 273 272 275 274 274 273 273 272 272 272 271 270 268 269 268 263 264 268 270 269 267 274 275 275 276 278 279 277
287 276 272 269 269 267 270 265 272 269 268 270 267 267 268 268 272 271 269 271 275 274 272 272 270 269 269 269 270 271 272 271 270 267 268 270 268 269 271 271 271 270 270 271 268 268 269 270 274 271 275 277 277 278
275 271 272 264 267 264 264 263 261 266 264 264 264 265 266 267 263 263 266 272 270 268 269 269 269 269 269 267 269 270 269 271 269 270 268 269 267 266 267 268 270 271 271 265 269 269 268 267 268 268 269 270 270 272
273 270 273 272 264 265 264 260 261 263 263 262 264 263 261 262 260 264 268 267 265 264 264 268 270 268 268 269 269 267 270 270 269 267 266 269 269 267 265 266 268 268 269 270 265 267 268 267 267 266 267 269 274 272
267 268 273 274 270 268 266 267 268 264 260 263 263 262 261 261 262 268 269 268 268 266 264 266 272 273 273 270 269 267 265 270 268 268 267 266 267 268 268 267 267 269 268 266 267 267 268 269 268 267 267 267 266 268
274 271 269 268 265 264 263 263 262 263 264 268 267 261 263 265 269 271 270 268 265 262 261 263 264 267 268 268 266 268 263 260 262 264 266 267 266 265 265 267 268 274 272 268 267 268 269 268 268 268 269 268 269 268
271 268 269 260 260 261 264 266 265 267 271 269 267 265 266 269 268 268 267 264 260 263 266 266 265 262 260 259 259 260 262 266 267 267 268 270 263 264 260 262 262 262 263 265 272 274 271 271 272 272 271 270 271 271
267 267 264 259 265 265 267 267 263 261 266 267 267 266 266 266 267 263 262 260 263 268 270 267 264 267 267 266 263 261 259 261 265 269 268 269 267 261 258 259 262 265 265 264 265 266 272 271 269 267 266 267 269 270
268 263 261 262 263 261 259 260 260 265 259 257 256 261 264 262 265 266 266 267 266 259 261 261 258 258 262 262 262 261 264 262 263 264 263 260 259 259 261 263 265 266 266 266 267 267 267 267 265 266 266 265 265 271
262 265 264 261 261 257 256 257 256 257 255 256 258 254 258 260 263 268 261 260 259 261 267 266 264 265 264 262 261 263 271 263 261 261 260 260 261 264 266 267 268 267 267 268 269 269 268 267 266 266 267 264 265 269
257 256 255 258 258 257 258 258 258 257 256 255 258 257 256 261 265 267 262 258 261 261 262 261 261 260 262 262 262 260 265 257 261 271 275 276 277 275 276 275 273 272 272 272 270 270 268 267 267 267 267 268 270 271

GFSWCAN_sfc_thetae_057.txt.gz
Theta_e
309 308 306 305 304 303 302 302 302 302 302 302 303 301 301 300 299 294 290 295 292 289 289 293 295 294 293 289 286 289 288 289 289 287 286 285 283 286 285 286 284 282 281 281 280 279 274 289 292 291 294 294 293 293
309 308 306 305 304 303 303 303 302 301 302 302 302 302 301 301 300 296 289 295 296 288 289 295 294 296 297 299 292 290 288 289 290 287 288 288 284 287 283 284 289 283 284 281 282 281 289 292 294 296 296 294 293 292
309 307 306 305 304 304 303 303 302 301 302 301 302 303 301 300 301 297 291 291 290 286 285 288 287 295 298 297 299 290 292 294 294 294 290 289 283 284 280 281 283 287 290 286 287 291 290 293 296 295 294 293 294 293
308 307 306 305 304 304 303 303 302 302 302 301 302 302 300 300 300 299 291 293 291 286 282 285 297 295 303 298 298 299 296 297 296 295 293 291 288 288 283 284 284 288 289 289 286 290 293 295 296 295 294 293 292 292
307 307 306 306 305 304 303 302 302 302 301 301 302 300 300 300 300 296 292 292 294 285 282 283 291 296 302 302 301 299 298 297 297 294 292 290 293 291 286 285 283 288 288 288 289 292 290 293 295 295 293 292 292 291
307 307 306 305 304 304 303 302 301 301 300 301 301 300 300 300 299 291 287 288 295 293 284 281 294 297 300 302 300 299 299 297 295 296 294 295 297 293 288 286 289 289 290 291 290 289 291 293 293 291 291 291 291 290
307 306 305 304 305 304 303 302 301 300 300 301 299 299 299 299 291 285 284 294 296 294 286 282 286 298 301 300 300 299 299 298 297 296 294 293 294 295 291 287 289 288 288 289 293 292 289 290 289 289 289 289 290 288
306 306 305 304 304 303 302 301 300 299 299 300 299 299 300 300 296 291 295 298 296 289 287 283 286 293 300 295 294 300 297 298 297 295 295 293 294 294 287 292 287 287 287 288 288 289 290 292 290 288 287 287 286 286
306 305 305 305 304 303 301 300 299 299 300 299 298 299 294 290 288 291 299 298 296 290 285 288 284 285 297 295 296 297 297 291 296 292 292 293 290 287 290 289 288 287 286 285 286 287 289 288 290 290 287 286 285 285
305 305 304 304 303 301 300 299 299 300 298 296 296 291 288 293 300 300 294 289 288 290 289 287 291 289 292 293 291 294 294 291 285 291 293 289 288 290 287 286 286 285 285 284 285 285 285 286 288 288 290 289 287 286
305 304 304 303 301 300 299 299 299 296 295 291 289 289 294 298 295 292 288 286 288 287 291 291 291 290 294 289 290 292 288 288 285 287 287 285 286 287 285 285 284 284 283 284 286 287 288 288 287 287 288 292 290 288
304 304 303 301 300 299 299 299 298 289 288 290 290 293 293 291 289 286 285 287 286 283 289 291 290 292 292 293 287 288 286 286 282 289 286 283 285 283 283 282 282 282 285 288 289 289 289 289 290 288 289 291 291 289
303 303 301 300 299 298 299 299 297 294 295 291 289 285 287 287 282 282 280 283 284 288 288 289 288 291 291 292 287 286 285 285 289 285 283 282 283 282 281 282 282 283 286 287 286 287 288 289 291 290 286 286 287 286
302 301 300 299 298 298 298 299 297 295 290 286 284 281 283 282 283 284 280 283 283 287 288 290 289 289 292 287 288 285 287 286 281 280 280 282 283 281 281 282 283 283 283 284 284 285 285 285 286 289 289 287 285 284
300 300 299 297 297 297 298 296 296 291 288 283 284 278 281 284 284 285 285 286 287 289 289 289 287 289 286 286 286 285 283 280 282 280 279 282 281 280 280 280 280 281 282 282 283 283 283 284 283 284 286 288 287 285
300 298 295 298 298 298 296 295 290 287 281 282 281 278 280 282 282 283 285 285 288 289 289 288 286 279 283 280 283 280 278 275 277 276 278 281 279 279 279 280 279 280 281 281 281 282 282 282 282 282 283 283 284 286
297 292 298 298 297 295 294 287 285 280 279 273 272 279 281 278 275 280 286 286 289 288 285 286 283 282 284 281 280 283 276 277 276 275 279 282 281 278 278 279 280 280 279 279 279 280 281 281 281 281 280 280 279 280
291 295 297 296 292 290 287 283 280 277 272 272 275 275 280 281 280 282 284 286 287 285 285 284 285 283 282 280 276 278 274 270 274 277 278 281 280 278 279 278 279 278 277 277 275 275 276 279 278 279 278 278 278 278
293 296 296 294 291 286 281 281 279 273 275 278 279 279 279 279 281 280 281 285 287 287 284 283 282 281 280 277 275 270 271 273 278 279 279 279 281 280 278 275 276 274 273 271 273 274 275 277 277 277 277 279 278 278
297 296 295 294 290 282 278 277 282 278 275 278 279 278 278 277 277 277 278 280 283 281 279 277 277 280 279 279 276 276 276 278 278 277 276 275 275 269 273 272 274 272 272 272 270 275 271 274 275 275 275 277 280 278
293 293 292 288 284 282 280 278 277 278 278 278 278 279 278 277 274 272 272 277 280 278 273 277 277 279 275 274 278 279 278 277 278 279 278 271 274 272 269 268 266 272 271 270 270 271 273 272 272 273 271 278 280 281
289 292 286 285 277 276 275 277 277 279 277 276 276 276 275 274 274 275 276 274 275 277 279 277 273 274 275 275 274 273 276 277 275 276 278 277 272 269 269 269 267 264 263 265 266 268 270 270 271 273 274 274 278 279
290 284 277 274 271 270 268 273 271 271 271 272 273 273 273 272 272 275 270 272 276 279 278 273 270 269 273 273 275 274 274 273 273 273 274 272 272 270 269 269 269 264 263 268 268 268 266 273 273 273 272 272 276 277
286 276 274 271 268 266 269 264 271 268 269 270 268 268 269 270 272 271 269 272 275 273 272 272 271 270 271 270 271 271 272 272 270 267 267 269 267 268 271 271 272 270 271 270 268 268 268 269 273 269 269 269 270 270
276 272 275 269 268 264 262 262 261 265 264 264 265 266 266 268 267 267 269 273 271 269 270 269 270 269 270 268 269 270 269 272 271 271 268 269 267 266 266 267 270 271 271 266 269 269 268 267 267 266 267 268 267 267
268 270 272 273 270 265 264 260 260 262 262 262 263 263 262 264 264 267 270 271 269 268 267 267 268 267 269 271 271 269 272 272 271 269 268 271 270 268 263 266 265 268 269 270 266 266 267 266 265 264 266 267 272 269
268 267 274 274 269 268 265 266 267 263 259 262 263 262 262 262 263 269 270 270 269 269 267 265 269 273 273 271 271 269 267 271 271 270 268 268 269 270 270 269 268 270 270 268 266 267 266 266 266 266 266 266 264 265
275 270 269 268 265 263 263 262 261 262 263 267 267 262 263 266 270 271 271 269 267 262 261 263 265 268 269 269 266 267 263 261 261 263 265 266 264 263 263 267 267 274 270 268 267 265 266 268 267 267 266 267 267 267
275 272 269 260 260 260 263 265 265 267 271 268 267 265 266 269 267 266 267 264 259 261 264 264 264 260 261 260 260 260 261 267 268 267 267 270 265 267 260 261 262 261 261 262 271 274 269 268 270 270 269 269 270 269
270 270 264 258 263 264 267 266 263 260 265 266 267 266 266 266 266 262 262 260 263 267 269 266 264 266 268 267 266 264 262 263 267 271 270 271 268 261 257 258 259 259 260 261 263 264 271 269 269 267 267 266 266 267
268 264 261 261 263 262 258 258 258 264 258 256 255 261 264 262 265 265 266 268 271 260 261 263 259 259 265 264 265 264 268 264 265 264 262 260 258 258 259 260 261 262 262 262 263 265 266 266 265 266 266 265 263 269
262 263 264 261 262 256 255 256 255 257 254 256 258 252 257 259 262 268 261 259 259 262 267 266 265 267 264 262 261 261 271 261 260 261 261 261 259 260 262 263 263 264 264 266 266 267 267 266 266 266 266 264 264 265
257 256 253 256 258 258 258 258 257 257 255 255 258 258 257 261 266 268 260 257 260 261 261 262 260 259 260 261 262 260 266 258 260 270 273 275 277 274 272 271 270 268 266 267 268 269 267 268 267 266 266 266 266 267

GFSWCAN_sfc_thetae_060.txt.gz
Theta_e
312 311 309 308 306 305 304 304 303 303 302 302 302 303 301 301 300 298 295 298 294 289 290 293 295 294 295 294 292 295 295 295 295 290 289 287 286 288 287 289 287 285 284 282 283 281 279 293 296 292 296 299 299 299
312 311 309 309 307 305 305 304 304 303 302 302 302 302 302 301 301 299 293 297 298 289 288 294 295 297 297 296 294 297 294 294 297 294 293 292 289 290 289 284 292 285 289 287 287 287 293 296 296 299 298 298 299 298
312 311 310 308 306 305 305 304 304 303 302 302 302 302 303 302 301 300 295 295 293 287 287 288 287 291 295 296 299 294 298 299 298 301 297 294 288 293 287 288 290 293 294 290 290 294 294 296 297 298 298 298 299 299
311 311 310 308 307 305 305 304 304 303 303 302 302 302 302 301 300 300 296 297 293 288 281 284 295 294 299 298 296 298 300 302 301 302 298 295 291 294 291 291 290 294 293 292 292 295 297 299 300 299 298 299 297 297
310 310 309 308 307 306 306 304 304 303 302 302 301 301 301 300 300 300 298 297 297 289 281 283 289 292 293 300 296 298 298 300 300 298 296 293 296 293 294 292 290 295 294 292 291 297 298 298 298 296 297 297 298 297
310 310 309 308 307 306 305 304 304 303 302 301 300 301 300 300 298 296 288 295 297 295 286 278 292 293 298 300 298 298 300 300 301 299 297 298 299 296 290 288 294 295 295 296 296 296 296 297 297 295 294 296 295 296
307 309 309 307 306 306 304 304 303 302 301 300 300 300 299 299 296 290 288 295 296 296 286 282 285 293 299 300 300 299 300 300 301 299 297 296 297 297 292 287 295 296 295 294 295 295 295 295 295 295 294 294 294 294
306 307 308 307 306 305 305 304 303 302 300 299 300 299 299 299 298 292 297 298 297 290 289 282 284 292 300 291 295 301 297 299 299 298 296 295 296 295 288 294 294 293 292 292 292 292 293 293 293 294 294 292 292 292
304 306 307 307 305 305 305 303 302 301 299 300 299 298 297 294 290 293 299 298 297 291 284 286 285 286 298 297 297 298 298 292 297 293 293 294 291 287 292 294 293 292 290 290 290 290 291 292 292 292 293 291 290 292
303 304 306 306 305 305 304 302 301 300 300 297 296 291 287 292 298 298 293 288 287 288 287 284 292 288 294 295 293 294 296 291 286 291 294 290 288 292 289 288 289 288 288 288 287 288 288 288 289 291 292 293 292 290
303 304 305 305 304 304 302 301 300 299 297 293 290 289 294 299 296 291 286 284 286 285 289 290 291 290 296 290 291 294 287 288 285 288 288 286 287 289 287 286 286 286 286 288 289 289 290 290 290 290 292 293 293 293
303 303 304 305 304 302 300 300 300 293 292 293 292 294 293 291 288 285 285 287 286 285 290 291 292 293 294 295 291 291 288 288 284 290 287 284 288 285 285 284 285 286 288 288 289 289 289 289 290 291 291 291 293 295
303 303 304 304 302 300 300 300 298 294 295 293 290 285 287 287 283 282 281 284 285 289 290 291 290 292 293 294 290 290 285 285 290 286 284 287 285 284 284 285 285 286 287 287 288 287 287 287 289 290 289 288 288 290
304 304 302 301 300 299 299 299 297 296 292 287 284 282 283 283 285 285 285 286 288 289 290 292 290 290 293 289 290 285 287 288 283 282 283 287 285 284 284 285 286 284 285 285 285 286 286 286 285 287 288 289 287 286
303 302 301 299 299 299 299 299 297 293 290 285 285 280 283 286 286 286 287 288 289 291 291 290 288 290 287 287 287 286 283 282 284 283 287 286 285 284 283 283 284 284 284 284 284 285 285 285 285 285 285 287 287 286
301 299 296 299 298 298 298 295 292 289 284 283 283 280 282 283 284 285 285 286 290 291 290 290 286 285 284 285 283 282 281 280 285 287 287 285 284 283 283 282 282 283 283 283 283 283 284 284 283 284 285 284 283 285
296 293 298 298 298 297 295 290 288 283 282 278 277 281 282 282 283 285 287 288 290 289 286 285 283 283 285 282 281 285 284 287 288 286 286 285 284 284 284 282 282 282 281 281 281 282 282 283 283 283 282 282 282 282
293 296 298 296 292 291 288 286 282 280 276 278 278 280 281 284 284 285 287 288 288 287 286 285 286 284 283 282 284 288 287 283 282 285 285 285 284 282 282 282 282 281 279 279 279 279 280 281 281 281 280 280 282 283
295 295 295 294 291 287 283 282 283 276 277 280 281 281 282 282 283 283 284 287 288 288 286 285 284 282 284 286 286 285 283 284 285 284 284 284 283 283 281 281 280 279 277 278 278 278 278 279 279 279 278 279 280 282
297 296 295 293 290 284 279 279 283 279 276 279 281 280 281 281 280 280 282 283 284 284 282 281 282 285 286 286 285 286 285 284 284 282 281 281 281 279 279 280 280 278 277 276 276 278 278 277 278 277 278 279 279 280
294 292 292 288 285 284 280 279 278 279 279 279 280 281 279 279 279 278 279 281 281 280 279 281 283 285 282 281 283 284 283 283 284 285 284 282 280 280 278 278 276 276 276 276 276 276 276 276 276 276 277 279 279 280
289 292 286 285 280 278 277 278 278 279 279 278 278 278 277 276 276 277 278 279 279 280 281 281 281 281 280 281 281 280 282 282 280 281 281 281 278 276 276 277 275 276 276 276 275 275 276 276 276 277 277 278 279 279
289 284 278 276 272 272 270 275 274 274 274 275 275 275 275 274 275 277 275 276 278 281 281 279 277 275 277 277 278 278 278 279 279 279 279 278 277 277 277 276 276 275 275 275 275 275 275 276 276 276 276 276 277 277
285 277 274 272 270 267 270 267 272 271 272 272 272 271 271 272 274 273 272 275 278 279 278 278 275 276 275 274 277 278 278 278 278 276 276 276 275 275 275 276 276 275 275 276 274 275 274 274 275 275 274 274 274 273
278 273 275 272 270 266 264 264 264 268 266 267 268 270 270 270 271 270 272 276 277 277 277 275 275 276 277 277 276 276 274 277 277 277 275 275 274 273 273 273 274 275 275 274 273 273 273 273 273 273 273 272 272 271
271 272 273 274 271 267 266 264 263 265 265 263 266 266 267 269 268 271 274 276 276 276 276 276 275 274 274 275 277 276 277 275 276 276 276 274 275 276 275 274 274 275 274 274 274 273 273 272 272 271 271 271 273 272
273 272 274 274 271 269 267 268 268 267 262 264 266 266 266 265 267 272 275 275 276 276 275 275 275 276 277 276 276 275 273 275 275 276 273 275 276 276 276 275 274 276 274 273 273 273 273 272 271 271 271 271 270 270
276 271 269 269 267 266 265 264 263 264 267 269 269 264 266 268 273 275 274 274 273 271 271 270 270 271 273 275 275 273 270 269 268 270 272 273 271 271 271 272 272 275 272 273 273 272 272 271 271 271 270 270 270 272
275 273 271 264 262 263 264 268 267 269 272 270 269 268 269 271 272 271 272 270 266 269 271 273 273 267 268 267 266 268 269 270 271 270 271 274 274 275 270 269 269 269 270 270 274 275 271 271 271 271 271 271 272 272
274 269 265 259 263 266 270 268 267 264 267 269 269 268 269 269 270 267 267 266 268 272 275 273 271 269 272 270 272 269 266 268 273 276 275 276 275 271 268 268 268 268 267 268 268 269 272 272 271 269 269 269 270 270
267 266 263 262 264 265 261 260 261 265 262 262 260 265 268 267 267 269 269 271 273 268 267 270 268 266 269 269 270 271 272 270 269 270 269 268 267 267 267 267 268 268 267 267 267 267 267 268 268 268 268 267 266 270
264 264 265 262 264 260 258 258 258 260 259 259 263 257 261 263 265 271 268 264 264 266 271 271 268 271 268 270 268 270 273 268 266 266 265 268 268 267 267 267 266 266 266 266 266 267 267 266 267 267 268 267 266 266
260 259 255 258 260 261 260 260 259 259 258 258 262 261 261 264 267 271 263 261 265 266 266 266 266 265 264 263 265 266 268 264 264 271 272 273 274 273 270 269 269 268 267 267 268 268 267 267 268 268 268 268 267 267

GFSWCAN_sfc_thetae_063.txt.gz
Theta_e
314 313 312 312 310 307 307 305 305 304 303 303 303 302 302 302 301 299 297 300 294 289 290 292 294 292 294 296 292 297 296 297 296 290 289 287 287 289 288 290 288 286 285 284 285 281 280 295 295 290 297 301 300 300
314 313 313 311 310 308 307 306 305 304 304 303 302 303 302 302 303 301 294 300 299 291 290 294 293 294 293 293 292 298 296 296 298 294 294 293 289 291 289 284 293 286 290 288 288 288 295 298 298 300 300 300 301 300
312 313 313 312 310 309 308 306 305 304 304 303 302 303 302 303 303 300 297 297 295 289 289 290 289 293 295 294 297 291 299 301 299 302 298 295 290 294 287 288 291 294 296 291 291 295 295 297 299 300 301 299 300 301
309 310 312 312 311 309 308 307 305 305 304 303 303 303 302 302 303 301 298 299 295 290 283 286 294 291 297 298 294 295 296 300 302 302 298 295 291 296 292 292 292 294 296 293 293 296 298 301 301 302 300 301 300 300
307 308 310 311 311 309 308 307 306 306 304 303 303 302 302 302 301 301 300 299 299 290 283 285 291 292 293 294 294 294 293 294 297 298 296 293 297 295 296 295 292 296 294 292 291 297 298 299 301 300 299 300 300 299
304 306 308 309 310 309 308 307 306 306 305 303 302 301 301 301 299 297 290 298 299 297 287 281 291 291 297 296 291 294 294 295 298 299 297 299 300 296 291 288 295 297 299 299 296 299 299 300 298 297 297 297 298 297
303 305 306 307 308 309 308 307 306 304 303 303 301 301 301 300 299 291 289 295 298 296 287 282 284 292 295 296 296 296 297 298 299 299 297 297 298 297 293 288 295 298 298 298 298 297 296 299 298 297 297 297 297 296
301 303 304 305 306 308 308 306 305 304 303 302 301 300 300 299 299 293 297 299 298 291 289 282 284 288 297 292 291 298 295 296 298 297 298 296 297 296 290 294 297 298 298 296 296 296 296 296 296 296 297 296 294 295
301 302 303 304 304 306 307 306 305 304 302 301 300 298 299 296 292 294 300 299 298 292 284 284 283 285 296 292 295 297 298 288 297 294 295 295 291 288 293 294 296 297 294 294 293 292 293 292 294 294 295 295 293 294
301 302 302 303 303 304 306 305 304 302 300 300 296 292 288 293 299 298 293 288 288 287 287 282 288 286 293 291 292 293 295 292 286 292 295 290 289 296 295 293 293 294 292 291 290 290 290 290 291 292 293 295 295 295
300 301 301 302 302 303 304 305 303 301 299 293 289 289 295 299 293 290 286 283 284 283 286 287 290 288 295 291 291 293 289 290 286 289 289 286 286 291 289 287 287 287 288 288 290 291 291 291 291 291 292 293 295 295
301 301 301 302 303 303 304 304 301 296 294 293 294 295 293 290 288 284 284 286 285 285 291 290 292 293 294 296 291 292 288 287 285 291 287 284 289 288 288 286 286 288 290 289 290 290 290 289 289 290 291 291 291 292
302 302 302 302 303 304 303 301 300 297 297 295 291 286 286 286 281 282 281 284 285 290 293 292 290 293 293 295 291 290 286 286 290 286 284 288 288 286 286 287 287 288 288 288 288 288 288 287 288 288 288 290 289 289
302 303 303 303 303 303 302 301 298 296 293 287 284 282 283 283 284 286 287 290 291 292 291 293 291 291 293 290 291 285 288 288 283 282 284 290 288 287 287 287 287 286 286 286 287 287 287 286 286 287 286 288 288 286
303 303 303 303 302 300 300 298 297 295 291 285 285 281 283 287 288 287 287 289 291 293 292 290 288 291 289 287 288 287 283 282 284 284 289 290 287 286 286 287 287 286 286 285 285 286 286 287 286 286 286 286 286 287
303 302 298 300 299 300 298 296 293 291 287 285 284 282 285 284 286 287 286 287 291 292 290 291 286 286 285 286 284 283 282 281 287 291 290 288 286 286 285 285 285 285 285 284 284 284 284 285 285 285 286 286 285 284
297 293 298 299 299 297 295 290 288 285 284 281 281 284 284 284 285 287 288 289 291 290 287 285 283 283 287 283 282 285 285 291 293 290 290 288 286 286 285 284 284 284 282 283 283 283 283 283 285 284 282 282 284 284
293 297 299 296 293 291 288 288 285 282 279 281 280 283 284 285 286 287 287 287 287 287 286 285 287 284 282 281 284 291 292 289 287 289 289 288 287 286 285 284 284 283 281 281 280 281 281 281 281 281 280 280 282 284
295 296 296 296 293 289 285 284 285 279 280 282 283 284 285 285 285 285 287 288 287 288 287 286 284 282 285 290 290 290 289 290 289 287 288 288 288 286 285 283 282 281 280 280 280 280 280 279 279 279 279 280 280 281
297 296 295 293 292 286 281 281 285 282 279 282 283 282 283 283 283 284 285 286 286 286 284 282 283 287 289 289 288 289 288 289 288 285 285 285 285 283 283 282 282 282 279 279 279 279 279 279 279 278 279 280 280 280
292 292 292 290 287 286 283 281 280 281 281 280 281 282 281 282 282 282 283 284 283 283 282 285 286 288 286 287 286 286 287 287 288 289 288 286 284 283 283 282 281 279 278 279 278 279 278 278 278 278 279 279 280 280
290 291 287 286 282 281 280 280 280 281 281 280 280 280 279 278 279 280 280 280 281 284 285 284 285 285 284 284 285 284 286 285 285 284 284 285 281 281 281 281 279 279 279 280 279 279 279 279 278 278 278 279 280 279
289 286 282 281 277 277 273 279 277 277 277 277 278 277 277 277 277 279 277 280 281 283 284 283 282 280 280 282 280 282 282 282 284 284 283 283 282 282 282 281 281 280 279 279 279 278 278 278 278 278 278 278 278 278
287 280 278 275 276 272 274 272 275 275 275 275 275 274 274 275 276 276 275 278 282 282 281 281 280 279 279 276 278 281 282 282 283 283 282 281 279 279 279 279 278 279 279 279 278 277 277 277 277 277 276 276 275 275
281 275 278 273 273 272 271 272 271 273 272 271 272 272 272 273 273 273 275 280 281 281 281 280 278 278 278 280 280 280 279 281 281 281 282 280 280 277 277 277 277 278 278 277 276 276 276 276 275 275 275 274 274 273
273 275 275 275 274 273 273 271 270 271 270 269 271 270 271 272 271 273 278 281 281 282 282 281 280 279 278 278 279 280 281 279 280 280 282 279 279 279 279 278 277 278 277 277 277 276 275 275 274 273 273 273 275 275
274 274 276 276 275 272 272 272 272 272 269 268 271 269 270 268 271 277 280 280 281 282 280 280 280 279 281 281 280 280 278 278 279 278 277 278 279 280 281 279 277 278 276 276 276 276 275 275 274 273 273 274 273 272
277 275 272 273 271 271 270 271 270 269 273 273 273 268 269 272 276 280 280 279 279 277 277 277 276 277 277 279 279 278 276 275 273 273 276 276 276 277 276 277 276 277 276 276 276 275 274 274 273 273 272 272 272 273
276 275 274 264 267 270 271 273 273 275 276 274 274 274 274 276 279 278 277 276 273 274 276 278 279 274 274 273 273 273 275 274 274 273 273 277 278 278 275 275 274 274 275 275 277 277 273 272 273 273 273 273 273 274
274 276 272 267 266 271 276 274 274 271 272 273 273 273 274 275 277 276 274 273 273 275 278 280 280 275 276 276 276 275 272 274 275 277 277 277 279 276 273 272 272 272 271 271 272 272 274 274 273 271 270 271 271 271
273 273 271 271 271 275 270 266 267 268 269 270 269 270 274 274 273 275 275 277 277 278 277 276 276 274 274 274 274 275 275 275 272 274 275 274 273 273 273 272 273 272 271 270 270 270 270 270 269 268 268 268 267 270
271 271 271 266 272 268 265 267 269 269 269 267 270 268 268 268 270 277 277 274 273 274 276 277 275 277 274 275 275 275 277 273 272 271 270 273 273 272 271 270 269 269 269 269 269 269 268 267 267 268 268 267 267 267
267 267 265 267 268 270 267 267 268 267 266 267 269 269 269 270 270 277 270 268 271 271 271 271 271 270 268 267 269 271 272 269 268 272 273 273 273 272 270 270 271 270 269 269 269 269 268 267 268 267 267 267 268 267

GFSWCAN_sfc_thetae_066.txt.gz
Theta_e
315 315 314 313 312 312 310 308 307 306 305 304 303 303 303 303 303 299 296 299 292 287 288 290 290 287 288 292 290 294 295 294 292 289 288 286 285 288 284 286 286 284 282 281 283 280 275 294 292 288 294 297 297 296
313 314 314 313 312 312 310 309 308 307 306 305 304 303 303 303 303 303 294 299 298 291 288 293 292 293 292 291 289 292 292 294 295 290 289 289 285 286 285 283 289 283 286 283 284 283 292 294 294 297 297 298 296 296
310 311 313 313 312 312 311 310 309 307 306 305 304 303 303 303 303 302 297 298 295 290 287 288 288 293 295 293 294 287 293 300 297 298 294 293 286 289 285 286 289 290 292 287 287 290 291 293 295 297 297 296 299 298
307 308 310 311 312 312 311 310 309 308 306 305 305 303 303 303 303 303 296 298 295 290 282 284 292 290 294 295 293 294 293 296 295 297 294 291 288 292 287 290 288 291 291 289 288 291 293 296 295 297 297 297 297 297
303 305 306 308 309 310 311 310 309 308 306 306 305 303 303 302 302 301 299 298 298 289 281 283 289 291 293 292 292 293 291 290 288 292 292 290 293 291 290 290 287 291 290 287 287 293 293 294 296 297 296 295 296 296
302 303 303 304 305 307 309 309 309 308 307 306 305 303 302 301 301 297 288 296 298 296 286 279 289 288 291 293 289 291 290 290 290 293 294 295 298 293 286 286 291 292 294 295 291 295 295 296 295 294 294 293 294 294
301 301 302 303 304 304 306 307 308 308 307 305 304 303 301 301 298 291 287 294 298 295 286 279 282 291 295 293 288 288 292 291 291 291 294 294 295 296 289 285 291 293 293 293 295 294 292 296 294 294 294 295 296 293
300 300 300 301 302 303 304 305 307 307 307 305 303 301 300 300 298 293 296 298 297 290 289 279 279 287 295 289 287 293 290 292 291 294 296 294 295 294 288 292 293 294 294 294 293 293 292 292 292 292 293 293 291 291
299 299 300 300 301 301 302 303 305 306 305 304 301 299 297 294 290 293 300 300 297 291 283 283 280 281 295 292 292 290 294 286 294 292 293 293 291 288 291 292 292 293 292 291 292 290 290 290 290 291 291 291 291 291
299 299 299 299 300 301 302 302 304 305 304 300 296 292 287 293 299 298 293 288 287 288 287 281 287 283 292 291 288 289 291 288 285 289 294 290 288 293 294 291 288 289 290 290 288 286 287 286 288 288 289 291 291 291
299 299 299 299 300 301 301 302 303 303 298 292 288 287 295 298 292 289 285 283 284 282 285 284 285 286 294 287 287 293 287 288 284 287 287 286 285 289 286 285 286 288 288 288 289 290 290 290 288 288 289 290 292 293
299 299 299 300 302 302 302 302 302 295 292 293 293 295 294 289 287 284 283 284 283 281 288 287 290 290 293 295 290 291 285 286 284 290 286 282 287 286 285 284 286 288 289 290 290 289 289 289 288 288 289 290 290 289
300 300 300 301 302 303 302 302 300 298 296 293 290 286 286 285 280 279 277 283 284 288 290 290 289 292 293 294 289 288 285 284 290 284 283 285 286 286 285 286 286 288 288 288 288 288 288 287 288 287 287 288 289 288
301 301 301 302 303 303 303 301 298 296 291 285 283 280 281 281 282 284 283 286 289 289 290 292 289 289 292 289 290 284 287 287 282 280 280 285 285 285 285 287 287 286 287 287 287 287 287 287 286 287 286 286 286 287
302 302 302 302 303 303 300 299 297 294 289 284 285 279 281 284 286 286 286 287 289 291 291 290 287 290 286 285 286 283 282 280 282 281 282 283 284 284 284 286 287 286 285 284 285 284 285 285 285 285 285 285 284 284
302 302 300 302 303 303 299 295 292 292 286 285 284 281 284 282 283 285 285 286 290 291 290 289 285 285 284 284 282 281 281 278 280 282 282 282 283 283 283 285 285 284 283 282 282 283 282 282 282 283 284 283 283 283
303 294 300 302 301 297 295 289 288 285 284 282 280 284 284 283 283 285 288 288 290 288 285 285 283 282 284 282 281 283 278 282 283 280 281 283 285 283 282 282 282 282 281 281 281 281 281 281 281 280 277 278 278 282
294 298 299 297 294 291 287 287 285 281 276 279 278 282 283 284 285 287 287 287 286 285 285 285 285 282 281 280 279 281 281 280 280 281 281 283 283 282 281 281 282 280 279 279 277 276 276 275 277 277 275 275 276 277
295 294 296 296 293 288 284 283 284 276 277 281 282 282 282 283 284 284 286 287 287 286 285 284 284 282 282 283 281 283 279 280 281 282 283 284 284 282 281 279 279 277 276 275 277 276 276 276 275 276 275 276 276 277
297 296 295 294 293 286 281 280 284 279 275 279 282 281 282 282 281 280 282 284 285 285 283 282 283 284 285 283 280 279 280 282 282 280 280 280 281 276 278 277 278 277 276 275 273 277 273 275 276 275 275 276 276 276
292 292 292 290 286 285 282 281 280 280 281 279 280 281 280 281 280 281 281 282 279 276 276 280 283 285 283 281 282 282 282 282 281 282 281 277 280 277 276 275 274 277 275 274 273 274 277 274 274 273 269 276 277 277
289 292 287 286 282 279 277 278 280 281 280 279 279 279 278 277 278 278 278 278 278 280 281 281 279 279 278 279 278 278 280 280 281 280 283 283 277 275 275 276 275 272 272 271 271 272 273 272 273 273 273 273 276 275
289 287 283 282 275 274 271 277 273 272 275 275 271 271 269 269 270 274 271 276 278 281 281 279 276 275 275 276 277 277 278 276 277 279 280 279 278 276 275 276 276 273 271 272 272 272 270 277 275 274 273 273 273 272
287 280 278 274 273 268 273 268 274 271 270 270 268 268 269 272 273 272 271 275 279 280 279 277 275 273 273 271 271 274 276 276 276 274 274 273 272 274 277 277 276 275 274 273 271 271 271 271 276 271 271 270 269 269
278 275 275 270 270 268 266 265 265 268 265 266 265 266 267 269 270 272 274 278 279 279 280 279 277 277 273 271 273 274 274 275 273 273 273 274 272 270 270 272 274 274 274 269 271 271 270 269 270 269 270 269 268 267
271 274 272 271 269 268 267 263 263 263 264 261 264 265 266 267 266 268 273 276 277 278 278 277 277 276 276 276 274 275 276 275 275 274 276 276 276 274 271 270 269 271 274 274 271 271 270 270 269 268 268 270 275 270
272 273 275 275 272 271 268 270 270 267 261 261 263 263 263 262 264 271 274 274 274 276 276 277 277 277 277 277 277 276 275 275 275 274 273 273 274 274 274 274 273 274 273 272 272 271 270 270 269 269 268 266 266 266
275 272 267 269 268 268 265 266 263 263 265 270 269 261 262 266 270 273 272 272 272 271 271 272 273 275 275 276 276 275 273 272 271 271 273 274 274 273 272 271 272 279 270 270 270 269 270 269 268 266 266 266 265 265
271 272 271 262 263 265 265 266 266 270 272 269 266 266 267 271 270 270 271 270 267 268 268 271 274 273 272 268 269 270 271 270 270 270 270 272 270 273 271 271 270 269 268 268 278 273 267 266 266 266 266 267 268 268
268 272 267 262 264 266 267 268 267 265 268 269 269 268 268 269 271 269 267 265 266 269 274 274 275 271 272 269 270 269 270 272 273 275 274 274 273 268 265 266 266 264 264 265 265 265 275 269 269 265 265 264 263 263
271 269 266 266 265 266 262 262 262 266 264 262 263 263 266 266 268 268 271 273 275 274 268 273 275 268 269 268 268 267 271 269 271 272 273 266 265 265 264 265 265 265 264 263 263 263 262 262 261 261 262 262 262 268
268 264 264 263 264 263 261 261 260 261 261 260 261 260 260 262 263 269 270 269 266 269 276 276 267 271 268 267 265 266 277 266 265 265 265 265 266 265 265 264 262 263 262 262 262 262 261 261 261 262 263 263 262 262
262 261 260 260 261 262 262 261 261 260 259 258 262 263 262 264 266 271 264 262 266 266 263 262 261 261 261 261 261 262 269 261 265 273 274 274 274 269 263 263 264 264 263 263 262 262 262 262 263 263 264 264 263 264

GFSWCAN_sfc_thetae_069.txt.gz
Theta_e
315 315 314 314 313 313 312 311 310 308 306 305 305 304 303 303 302 296 292 296 289 283 284 288 288 284 284 284 284 290 291 294 291 287 286 286 283 287 283 284 283 282 283 280 280 280 275 292 291 288 293 295 296 295
314 314 314 314 313 313 312 312 310 309 308 307 306 304 303 303 303 302 294 298 298 290 286 291 291 291 290 288 286 288 290 289 295 289 287 287 284 283 282 280 285 281 285 282 283 282 290 292 292 295 296 298 297 296
312 313 313 313 313 313 313 312 310 309 308 307 306 305 304 303 303 301 293 297 294 289 287 285 285 290 293 292 293 283 287 292 292 292 292 290 285 286 281 283 288 289 289 285 286 289 290 292 294 296 297 296 296 298
309 309 309 309 310 311 312 311 311 310 309 308 306 306 305 303 304 302 294 297 295 290 283 282 290 287 291 292 291 291 289 290 291 287 286 290 288 290 285 287 286 288 289 287 286 289 291 292 293 295 295 296 295 295
305 305 305 306 306 307 308 309 310 310 310 309 307 306 305 303 302 298 295 296 297 290 280 282 289 290 291 290 289 290 289 288 287 284 287 290 291 290 288 287 285 289 288 285 285 291 291 293 294 296 295 295 295 295
302 302 302 303 303 304 304 306 307 308 309 308 307 306 304 301 300 293 287 292 295 296 286 279 286 286 288 289 289 288 290 289 288 285 286 293 296 292 285 283 290 291 291 293 290 293 294 295 294 294 293 293 293 293
300 300 300 300 301 301 302 303 304 305 307 308 307 305 303 301 297 289 287 293 296 292 285 279 276 286 292 292 287 289 290 289 288 286 286 286 290 295 289 284 290 291 292 293 294 294 291 294 293 293 293 293 294 292
299 299 299 299 299 300 301 301 302 303 304 307 306 304 302 300 298 293 296 299 295 288 286 279 276 281 294 288 282 288 287 289 288 288 290 291 294 293 288 291 293 292 291 292 292 292 292 292 292 291 292 292 290 290
298 298 299 299 299 299 300 300 301 302 303 306 304 301 297 294 287 289 299 300 295 290 282 281 272 272 293 290 289 286 289 283 289 286 288 292 290 286 290 292 293 291 291 291 290 290 290 289 289 289 289 289 288 289
299 299 299 299 299 299 300 300 301 302 303 302 295 290 286 290 299 297 293 288 287 288 287 281 282 278 287 290 288 287 288 286 282 286 293 289 287 292 294 293 289 290 291 290 288 285 285 284 287 286 287 289 289 289
299 299 299 299 299 300 301 301 301 301 298 292 288 287 294 298 292 289 285 283 284 280 283 284 283 280 291 287 286 288 285 287 284 287 287 285 285 289 286 284 285 286 287 288 289 290 290 290 288 287 287 288 290 291
299 299 299 299 300 300 301 302 302 295 292 292 291 295 294 289 286 282 282 283 281 279 285 284 286 286 290 293 289 290 285 286 282 290 287 283 287 284 283 283 285 287 288 289 290 289 289 289 288 288 289 290 290 290
299 299 299 299 300 301 302 302 301 298 296 293 289 285 286 285 279 278 270 280 282 286 288 289 288 291 293 293 289 288 284 283 290 284 282 285 285 284 284 285 286 287 289 288 288 289 288 288 288 288 287 287 288 289
299 299 300 300 301 301 302 302 301 296 290 284 283 279 281 279 281 280 282 285 288 288 290 291 288 287 290 288 289 282 287 287 281 280 280 284 285 284 285 286 287 287 287 287 287 287 287 286 286 287 286 285 285 284
300 301 301 301 302 302 302 301 298 293 287 282 283 275 277 281 285 286 285 286 288 290 290 289 287 289 285 285 286 283 281 279 281 281 282 283 283 283 284 286 287 286 286 285 285 285 285 285 285 284 284 284 283 282
301 301 300 302 302 302 301 297 292 290 285 285 283 281 281 279 280 285 285 285 290 290 290 288 285 284 284 284 280 279 278 278 279 283 283 281 282 283 283 285 286 284 283 282 282 282 282 282 282 282 281 279 280 282
303 297 302 302 302 300 296 288 287 284 282 282 276 283 281 280 281 283 288 288 289 288 285 285 283 281 284 281 279 283 281 280 285 282 279 281 283 282 282 282 283 282 281 281 280 280 280 280 280 278 276 277 277 279
295 298 302 302 295 292 287 285 284 280 276 276 277 277 283 283 282 285 286 287 286 285 285 284 285 279 281 279 280 282 282 282 277 278 279 281 281 280 281 281 281 281 280 279 278 275 275 274 277 276 274 274 274 275
297 299 301 297 293 287 283 283 283 275 273 277 280 280 280 281 284 284 284 287 287 287 284 284 283 275 279 284 284 285 282 279 281 281 281 283 282 280 280 277 277 276 275 274 276 275 275 275 275 275 274 275 275 276
297 297 296 295 292 284 280 277 282 273 271 277 278 277 277 279 281 279 278 282 283 284 282 281 280 281 282 285 283 283 281 281 281 280 280 280 280 274 277 277 278 276 275 274 272 277 272 274 275 275 274 275 275 275
292 292 292 289 285 283 279 280 279 280 280 278 278 280 279 280 279 279 280 281 278 276 274 279 282 283 280 281 283 282 282 282 281 281 281 276 279 276 274 274 272 276 275 274 273 273 277 274 273 272 266 274 276 276
289 292 286 286 281 279 276 278 278 280 279 278 278 279 277 276 276 277 277 276 278 275 278 281 279 278 277 279 278 277 280 280 279 280 284 282 277 274 274 275 273 273 273 272 272 271 272 272 272 272 272 272 275 273
289 287 283 281 277 275 273 276 272 276 274 275 270 273 266 264 266 268 270 269 274 275 276 276 276 274 275 275 275 276 276 275 276 277 278 278 277 275 273 274 276 273 272 273 272 271 269 276 275 273 271 272 271 271
287 280 277 275 275 271 273 267 273 268 267 268 263 264 264 264 265 264 265 270 275 276 276 276 274 275 273 271 270 272 274 274 274 271 271 272 271 273 276 276 277 275 275 272 271 270 269 271 276 271 269 269 268 268
279 276 276 270 270 270 267 265 263 265 262 260 262 262 263 263 264 263 267 274 276 277 277 277 277 277 275 274 274 274 272 273 272 271 272 272 270 269 269 271 275 275 274 270 271 271 269 268 269 269 269 269 268 266
272 274 272 271 269 269 268 265 262 262 261 259 260 260 260 262 262 265 269 271 272 274 275 275 276 275 276 277 276 275 277 275 274 273 274 274 275 274 272 270 269 273 273 275 270 271 270 269 269 268 268 270 276 271
272 272 275 275 273 271 268 269 269 265 259 260 259 260 259 260 261 269 272 270 271 271 273 274 275 275 275 276 277 277 275 275 276 275 273 271 272 274 275 274 273 275 273 272 272 271 271 270 270 269 268 265 265 266
274 271 268 267 267 266 265 264 262 262 263 267 267 260 261 264 268 271 271 269 268 267 267 268 271 274 274 274 272 273 271 270 269 270 272 274 274 274 274 275 275 280 272 272 272 270 270 270 269 268 266 266 264 262
269 271 270 263 262 263 264 265 265 267 271 268 265 264 265 269 268 267 270 267 262 265 267 270 273 268 270 266 266 267 268 269 270 270 271 273 271 275 271 273 273 271 268 269 279 273 267 265 266 266 266 265 265 263
268 269 266 261 264 266 265 265 264 262 266 268 268 266 267 267 269 266 265 262 265 269 273 273 269 267 273 266 269 266 268 271 273 274 273 274 273 269 264 266 268 268 267 268 267 266 276 270 269 267 268 264 261 261
268 264 262 261 263 261 261 260 259 265 261 259 258 263 266 265 267 268 271 274 275 274 263 270 272 269 269 266 264 264 269 268 270 271 272 267 265 265 264 263 263 264 265 265 264 263 262 261 260 260 260 259 260 265
266 261 263 264 264 260 258 258 256 257 256 257 260 255 259 260 262 268 265 263 263 268 274 274 268 274 265 266 263 265 277 265 263 264 264 265 265 264 264 263 261 263 263 262 261 260 259 259 259 259 260 260 260 260
257 256 257 257 260 261 260 259 259 259 257 256 259 258 257 262 265 269 263 259 263 262 262 260 258 258 259 259 260 260 267 260 262 273 274 274 274 269 262 261 262 262 262 261 260 260 259 258 258 258 259 261 262 262

GFSWCAN_sfc_thetae_072.txt.gz
Theta_e
315 314 314 314 314 313 313 312 311 309 308 307 305 305 303 303 302 295 291 293 288 282 283 287 287 283 282 282 279 283 284 293 292 288 286 286 282 284 281 283 282 282 283 282 282 280 276 291 290 287 291 293 294 293
314 314 314 314 313 313 313 312 311 310 309 308 307 306 305 303 303 302 293 297 297 290 288 290 290 291 289 288 284 284 284 286 289 288 288 286 282 282 281 278 283 281 284 282 283 282 289 291 290 293 296 296 296 295
314 314 314 313 313 313 313 312 312 310 310 309 308 306 306 304 303 302 296 296 294 289 289 287 285 290 293 292 292 282 284 289 289 287 284 289 283 285 280 281 283 285 287 285 284 288 289 291 292 295 296 295 296 297
312 312 313 312 312 312 312 311 311 311 310 310 309 308 306 305 304 303 296 295 294 291 283 283 290 286 289 290 290 290 288 290 290 288 283 283 288 289 284 285 285 286 287 286 284 288 290 292 292 295 295 295 295 295
309 310 309 309 309 308 308 308 308 309 309 309 309 309 308 306 304 300 297 294 295 291 282 284 289 290 290 289 289 288 288 287 285 283 282 282 288 290 288 287 285 289 287 285 284 290 289 290 292 293 294 294 294 295
306 306 305 305 305 304 304 304 305 305 306 307 308 308 307 305 301 295 285 289 293 295 286 277 285 285 287 288 286 286 287 286 287 285 284 286 289 289 286 284 290 291 291 291 290 293 293 294 293 295 294 293 293 292
303 303 302 302 302 302 302 302 302 302 303 304 306 307 307 302 296 290 286 291 296 294 284 277 276 283 289 290 289 288 288 288 287 285 283 287 288 288 288 283 290 290 291 291 293 293 290 292 294 294 294 293 294 291
301 301 301 300 300 300 300 300 300 300 301 302 304 307 305 302 299 293 295 299 295 289 286 277 276 278 292 287 282 286 285 288 287 285 286 286 290 288 286 291 292 291 290 290 291 290 291 292 291 291 291 291 289 290
300 300 300 299 299 299 299 299 299 300 302 304 303 301 297 294 290 289 298 300 295 289 281 280 273 271 291 289 288 285 285 281 284 281 285 287 286 285 289 291 292 293 290 290 289 289 289 289 289 289 288 287 287 288
299 299 299 299 299 299 299 299 300 301 302 300 294 290 287 291 298 297 292 289 287 287 286 280 282 277 285 286 287 284 287 284 279 283 290 285 285 290 293 292 291 292 290 289 287 285 285 285 287 286 286 288 288 287
300 299 299 299 299 299 300 300 301 301 298 292 289 288 294 298 292 288 283 282 283 278 283 282 282 279 288 282 286 288 285 285 281 283 285 284 285 288 285 285 285 286 287 288 289 289 290 290 289 288 287 287 288 289
299 299 299 299 299 300 300 301 302 294 289 291 291 295 293 289 286 282 280 282 279 276 283 282 284 284 286 290 286 288 284 285 282 288 285 282 287 284 283 282 284 288 289 289 290 289 289 289 289 289 289 290 289 290
299 299 299 299 299 299 300 301 299 298 296 292 289 285 285 284 278 276 268 274 275 284 286 286 286 290 290 292 289 287 284 283 290 285 281 283 283 282 282 284 286 288 289 288 288 289 288 288 288 288 287 287 287 288
298 299 299 300 300 300 301 301 300 296 290 280 282 277 279 277 277 276 275 281 287 288 287 288 288 287 288 286 288 283 287 287 281 279 277 283 283 283 283 286 287 287 288 288 287 288 287 287 286 286 285 285 284 283
299 299 299 300 300 301 301 301 298 292 287 278 282 274 277 278 278 285 285 286 288 290 289 288 287 288 285 284 285 284 281 277 280 279 280 281 284 283 284 286 287 287 287 287 286 285 285 285 285 284 284 283 283 283
300 300 298 300 301 301 302 299 293 290 285 283 281 278 280 281 271 283 285 285 288 289 289 288 285 284 284 284 280 280 279 277 281 283 285 279 282 282 284 286 286 287 285 283 282 282 282 282 282 282 280 278 280 282
302 297 301 301 302 302 297 290 288 285 283 281 276 281 276 276 274 280 285 287 289 287 284 285 282 280 284 277 276 280 279 284 285 284 280 281 284 283 282 284 284 282 281 281 280 280 280 280 280 278 276 276 277 278
297 298 302 302 300 293 288 286 283 281 276 271 272 273 280 281 280 283 285 287 286 285 285 284 284 278 277 274 276 282 285 285 282 280 280 280 281 280 282 282 282 281 280 280 279 276 275 275 277 276 274 274 274 274
297 299 302 299 294 288 283 283 284 277 272 271 274 276 277 280 282 281 282 286 287 287 284 284 282 280 280 283 284 285 284 282 282 282 281 282 281 280 280 277 277 275 275 274 275 275 275 275 275 275 274 275 275 275
301 299 298 297 293 284 280 279 283 276 271 274 273 272 276 278 279 279 281 283 283 283 282 281 280 282 283 284 282 282 281 283 282 281 281 281 280 273 276 277 278 276 275 273 272 276 271 274 274 274 274 274 274 274
292 292 292 289 285 284 280 278 279 275 274 271 271 274 274 276 279 278 279 282 280 278 277 278 281 283 281 284 283 282 282 282 281 282 282 278 280 276 274 272 271 275 275 274 274 274 278 274 273 272 265 274 275 275
289 292 286 286 281 279 277 278 274 279 275 276 278 279 276 275 276 277 277 276 277 275 275 278 275 276 277 279 278 277 279 280 280 280 283 282 278 274 274 274 272 274 274 273 273 273 272 272 271 271 271 271 274 272
290 287 283 281 277 276 273 275 271 276 272 274 273 274 271 268 269 271 272 271 273 274 274 274 272 271 274 275 276 277 276 275 276 277 278 277 277 275 273 273 275 273 272 273 272 272 270 275 275 273 270 271 270 270
287 281 277 275 272 268 272 269 274 272 271 270 266 268 266 265 265 264 265 266 272 272 273 272 270 272 271 271 272 274 275 275 274 271 271 271 271 274 276 276 277 275 275 272 271 271 270 271 276 271 269 268 267 267
279 276 276 268 269 268 268 270 269 269 267 265 264 263 264 263 262 261 265 270 270 270 272 274 276 276 275 274 275 276 275 275 273 272 272 271 270 268 269 270 275 276 274 270 271 271 269 267 269 269 269 268 268 267
272 270 269 269 270 272 271 269 267 266 266 263 262 261 259 260 260 263 266 267 267 270 270 273 273 274 274 276 275 275 277 276 276 274 275 272 273 272 269 269 269 274 273 275 271 272 271 269 268 268 268 270 276 272
268 269 274 276 274 272 270 270 270 267 262 263 262 261 259 259 260 268 269 268 269 269 271 272 274 274 274 274 274 275 273 274 276 275 273 272 273 274 275 273 273 275 273 272 272 272 271 270 269 269 269 265 265 266
274 273 270 269 269 267 267 265 264 265 265 267 267 263 262 264 268 270 271 268 266 264 264 267 271 274 274 274 271 271 270 268 268 269 272 274 274 274 273 275 276 280 274 271 271 270 271 271 270 268 267 266 265 262
271 272 272 265 264 264 265 266 267 268 271 269 266 265 265 268 267 268 271 268 260 263 266 271 274 265 268 265 264 267 268 268 269 269 270 272 271 274 270 271 270 270 269 269 279 275 267 266 266 266 265 264 264 261
269 270 266 261 264 267 267 267 265 263 266 268 268 266 266 267 268 265 265 263 265 270 273 269 267 264 269 265 270 267 265 270 272 273 271 272 273 268 263 265 266 266 265 265 265 265 278 268 269 266 267 264 262 261
270 267 265 264 266 264 262 262 260 265 260 258 257 262 265 262 266 266 266 269 269 264 264 271 271 265 267 266 262 262 269 267 269 270 270 267 265 263 263 262 261 261 262 263 263 263 262 261 260 260 260 259 258 262
266 262 263 266 264 260 257 256 255 257 255 256 258 253 258 260 262 268 263 261 262 263 269 265 262 268 262 262 261 263 275 263 262 263 264 264 264 264 262 260 258 260 261 261 260 260 259 259 258 258 259 257 257 257
257 256 255 257 261 261 259 259 258 258 256 255 257 256 256 261 265 268 261 258 260 260 260 260 259 258 258 258 259 260 266 258 262 273 275 276 275 269 260 260 261 262 262 261 259 258 258 257 257 257 256 256 258 260

GFSWCAN_sfc_thetae_075.txt.gz
Theta_e
315 314 313 313 313 313 313 312 311 310 308 307 306 305 304 303 303 295 290 292 288 286 286 287 286 283 282 281 278 281 281 286 289 287 286 286 282 283 280 282 282 281 282 281 281 279 276 288 289 285 289 291 293 291
314 314 313 313 313 313 313 312 311 310 309 309 308 306 305 304 303 301 289 294 296 290 288 290 291 292 289 287 286 285 281 283 286 283 282 282 285 282 280 277 282 280 284 281 282 282 288 289 291 292 294 294 294 295
313 313 313 313 313 313 313 312 312 310 309 309 309 307 306 305 304 301 291 295 295 290 287 289 286 291 293 292 293 284 282 286 286 287 284 284 282 285 280 279 280 284 286 283 284 287 288 289 290 293 295 294 296 296
313 313 313 313 313 313 312 312 311 311 310 310 310 309 308 307 306 304 297 296 294 291 283 284 289 285 289 290 290 290 287 287 289 288 282 279 279 286 285 284 284 285 286 284 283 286 288 290 291 292 294 294 294 294
312 312 313 312 312 312 311 311 310 310 310 310 310 310 309 308 306 302 298 296 297 289 283 283 288 288 288 288 287 288 287 286 281 283 281 279 285 286 289 286 283 287 285 284 283 288 289 289 291 292 294 294 294 294
311 311 310 310 309 309 308 308 307 306 306 305 306 307 309 308 302 295 289 289 292 296 287 278 283 283 286 286 287 286 286 285 285 284 282 284 290 284 281 285 289 290 290 291 289 290 291 292 291 292 294 294 294 294
309 308 307 307 306 306 305 304 304 303 302 302 303 305 307 305 297 292 289 289 297 295 285 278 276 283 285 288 288 285 285 284 284 285 282 283 285 286 284 284 290 291 291 291 292 293 290 291 292 293 295 295 295 291
305 304 304 304 304 303 302 302 301 301 300 300 302 304 307 302 299 293 296 298 296 290 286 278 276 277 287 287 283 285 284 286 286 284 284 283 286 285 279 285 289 293 290 290 291 291 292 292 291 290 290 290 289 289
302 302 302 302 301 301 301 300 301 301 303 304 304 302 297 295 291 291 297 299 296 289 279 280 273 269 286 288 288 285 285 281 285 282 281 284 281 282 285 288 291 293 289 289 289 289 290 290 289 289 288 287 287 287
301 301 301 300 300 300 300 301 301 302 302 300 294 290 287 291 297 297 292 289 287 287 286 280 283 278 283 285 282 282 285 281 278 281 283 281 279 287 288 291 289 289 290 289 287 284 286 285 287 287 287 288 287 287
301 301 300 300 300 300 301 301 302 301 298 289 288 287 294 298 292 288 283 282 282 278 282 283 282 280 286 279 280 287 284 284 280 281 281 282 282 287 286 285 285 287 288 288 288 288 289 289 288 287 287 288 289 287
300 300 300 300 300 301 301 302 301 291 288 290 291 295 293 289 285 281 278 281 279 275 280 281 283 284 285 288 285 287 283 284 281 286 282 282 286 284 284 283 285 287 288 288 289 288 289 289 289 289 289 289 289 289
300 300 300 300 300 301 302 302 299 298 295 291 288 285 284 283 277 275 272 272 276 277 283 286 284 288 288 287 286 286 284 283 288 284 282 284 285 283 282 284 286 289 289 289 288 288 288 288 288 288 287 286 286 287
300 299 300 300 300 301 301 302 299 296 289 284 282 277 278 276 278 274 273 273 284 288 288 287 286 287 288 286 286 284 287 287 279 279 279 284 283 282 282 287 288 287 288 288 288 288 288 288 287 287 286 285 284 283
299 299 299 299 300 301 302 301 298 292 287 279 281 272 273 277 272 280 277 285 286 288 287 286 287 288 285 284 285 284 280 276 279 278 280 284 283 283 283 286 286 287 287 287 286 285 286 286 285 284 284 283 284 283
299 298 297 300 301 301 301 298 293 291 285 282 281 277 279 275 271 280 283 283 287 288 288 287 284 283 282 283 279 280 279 275 281 284 285 283 282 283 285 287 287 287 287 284 284 283 282 282 282 281 279 278 280 281
300 296 300 300 301 301 298 290 289 285 284 281 280 282 279 278 272 280 286 286 288 285 283 284 280 280 284 275 273 275 274 282 285 285 283 282 283 284 284 286 286 285 282 281 280 280 279 280 280 278 276 276 277 278
296 298 301 301 300 294 288 287 285 283 278 274 271 272 282 281 278 285 286 286 284 284 285 283 283 281 276 274 275 279 285 284 283 280 282 282 282 281 283 284 284 281 281 280 278 276 275 275 277 276 274 274 274 275
297 298 302 301 295 288 284 283 284 278 272 270 273 274 276 279 280 280 284 285 287 287 283 282 280 279 280 282 285 285 284 282 283 282 283 282 282 281 281 278 278 276 276 274 276 276 276 276 275 275 274 275 275 275
301 301 300 299 294 285 280 279 282 273 270 273 271 271 274 275 277 277 278 281 283 282 281 280 279 280 281 283 282 282 280 282 282 283 283 283 281 274 277 277 278 277 276 273 271 276 271 273 274 274 273 273 274 274
292 292 293 289 285 283 279 276 278 276 276 270 267 271 270 270 271 278 279 282 280 279 279 280 279 281 279 283 286 285 282 282 281 281 282 281 281 277 275 273 272 275 275 274 274 274 278 274 273 272 267 274 274 274
290 291 286 287 281 280 276 276 272 276 274 273 276 271 272 274 275 277 278 273 277 277 278 277 275 276 276 279 278 278 280 280 280 280 283 282 280 277 276 275 272 274 274 274 274 274 273 273 271 271 271 271 273 271
290 287 283 282 278 277 274 277 272 274 273 273 274 274 273 270 269 271 271 271 274 276 275 274 272 270 273 273 275 276 277 275 276 277 277 277 277 277 275 275 276 273 273 274 273 273 272 275 274 273 270 271 270 269
288 281 279 276 277 272 273 268 275 274 273 271 270 269 266 266 267 267 268 268 272 271 272 271 269 271 270 268 270 272 273 274 275 274 273 272 274 275 276 276 277 275 276 273 271 271 270 271 276 271 270 269 268 267
281 276 278 271 269 269 266 268 270 271 271 270 269 266 265 265 266 264 267 270 267 268 269 268 270 270 269 269 274 274 274 275 275 275 276 274 272 271 273 273 275 275 273 270 272 271 271 267 269 269 269 269 268 266
274 272 269 265 265 270 271 269 269 270 270 268 267 265 263 264 263 265 267 268 266 267 268 270 271 269 271 275 274 274 276 275 275 274 277 275 275 275 274 272 273 275 273 275 270 271 271 268 268 267 268 270 277 272
267 266 272 276 274 272 271 271 272 270 267 266 265 263 262 262 262 269 269 267 268 268 266 267 272 272 273 272 273 273 272 272 275 275 273 273 274 275 276 276 275 276 273 271 271 271 271 270 269 269 269 264 265 266
273 272 270 271 271 271 270 268 267 267 267 268 268 262 264 266 269 271 271 271 269 262 262 264 268 270 271 271 269 270 268 265 265 267 270 273 274 274 274 276 276 279 276 270 270 269 270 270 270 268 267 267 266 262
271 273 273 269 268 268 268 268 268 269 271 268 266 265 266 269 269 268 270 265 258 262 266 268 272 261 264 263 264 267 267 266 268 268 269 271 270 273 267 268 268 267 268 269 279 279 269 267 267 266 265 264 263 259
269 271 268 264 268 268 268 267 266 264 267 268 268 268 268 268 268 264 265 262 264 267 266 265 263 262 268 264 269 267 263 268 271 273 272 272 272 266 261 264 266 264 263 263 264 265 279 269 269 264 262 261 261 261
270 266 265 265 266 264 262 261 262 266 263 260 259 263 265 263 266 264 261 261 261 259 262 263 263 259 262 264 259 260 267 264 264 266 267 264 264 263 264 263 261 260 260 262 262 263 263 261 260 260 261 261 260 262
268 264 266 268 267 263 260 258 256 258 256 256 257 252 258 260 262 268 260 259 260 262 265 260 260 262 259 260 260 261 271 269 263 262 262 263 265 265 262 260 257 258 260 260 260 259 258 259 258 258 259 257 256 256
260 259 258 260 263 263 261 259 260 259 256 255 256 255 254 260 265 267 260 256 259 260 259 258 258 258 259 258 259 260 265 260 261 272 276 277 277 272 260 257 259 261 262 261 259 258 258 257 256 256 256 255 255 256

GFSWCAN_sfc_thetae_078.txt.gz
Theta_e
316 315 314 313 312 312 312 311 310 309 308 306 305 304 303 303 302 293 289 290 287 282 283 286 285 281 281 280 280 282 280 284 284 283 285 284 283 284 281 282 281 282 280 281 281 280 276 287 288 284 287 290 291 291
315 314 313 312 312 312 312 311 310 309 309 307 306 305 305 304 303 297 288 293 294 289 286 289 289 290 288 287 285 286 280 280 283 281 281 281 283 284 282 278 281 280 283 281 282 282 287 288 290 291 292 292 293 291
314 313 312 312 312 312 312 311 311 310 309 309 308 307 306 305 304 299 290 292 294 290 288 285 285 289 291 291 291 284 285 285 284 287 280 282 279 283 281 281 281 282 285 283 284 286 287 288 289 291 293 293 294 297
313 313 312 312 312 312 312 311 311 310 310 309 309 308 307 306 306 303 296 297 295 291 284 283 289 285 288 290 290 290 286 287 287 287 283 281 278 284 281 283 283 284 284 283 282 285 286 289 289 290 292 294 293 293
312 312 312 311 311 311 311 311 311 310 310 310 309 309 309 308 307 302 298 297 297 290 284 282 286 286 287 287 288 288 287 285 283 282 280 277 282 282 284 286 283 286 284 283 282 287 288 288 291 291 293 293 293 293
311 311 311 311 311 311 311 310 310 309 309 308 308 308 308 308 303 297 291 291 294 296 287 278 283 282 284 285 285 284 285 284 286 281 280 281 285 284 278 279 289 290 290 289 287 288 289 290 290 291 292 292 293 293
311 311 311 311 310 310 308 308 307 306 305 304 304 305 306 304 298 293 290 289 296 295 284 278 276 282 283 286 285 284 284 285 283 283 282 280 282 286 282 279 287 291 289 290 290 291 288 290 290 291 292 295 294 290
310 310 309 308 307 306 306 305 303 302 302 302 303 304 305 301 299 293 297 298 296 289 286 278 275 277 283 286 284 288 283 284 285 283 284 281 282 281 277 282 286 288 289 291 290 290 291 290 290 289 289 290 289 288
307 307 306 305 304 304 303 302 302 301 302 302 304 301 297 294 291 292 299 298 296 287 277 279 271 269 284 284 288 286 286 280 285 282 282 283 280 278 281 283 285 288 290 289 289 289 289 289 288 288 288 287 287 287
303 303 303 303 302 302 302 301 302 304 304 302 295 289 287 291 299 297 292 289 287 287 286 279 282 278 282 283 279 283 283 278 274 281 284 280 277 283 285 288 290 289 288 290 288 285 286 285 287 286 286 287 287 287
301 301 301 301 301 301 302 301 303 302 297 290 288 287 293 298 292 287 280 280 283 277 282 282 281 279 285 279 280 286 279 281 277 280 279 279 280 285 284 283 286 286 288 287 288 288 289 290 288 287 286 286 287 287
301 301 301 301 302 302 301 303 301 291 289 290 292 295 293 289 285 281 279 280 277 275 278 277 280 284 285 287 283 285 283 283 278 283 280 280 285 285 285 283 284 286 288 287 288 287 288 288 288 288 289 289 289 289
300 301 301 301 301 301 302 301 298 298 295 290 288 285 283 283 276 275 272 275 277 276 277 285 285 287 288 286 284 285 283 283 286 281 282 284 286 284 284 286 287 288 289 287 287 288 288 288 288 288 286 286 286 285
300 300 300 300 301 302 302 300 299 295 288 283 280 276 277 276 278 274 272 272 279 285 286 286 285 285 288 285 286 282 287 286 278 275 278 283 284 282 283 287 288 288 288 288 288 289 288 287 287 286 285 285 284 283
299 300 300 300 301 302 302 300 298 290 284 280 280 273 275 277 273 278 274 279 283 287 286 285 285 287 285 283 285 284 279 274 279 279 281 285 285 283 284 287 285 287 287 287 287 287 287 286 285 284 282 282 282 282
299 299 296 300 301 302 302 298 293 290 285 281 281 277 279 278 269 276 279 282 286 288 288 287 283 283 282 283 280 278 277 276 280 284 285 284 283 283 285 286 286 288 287 285 284 283 283 283 282 281 278 277 279 280
298 294 300 300 301 301 298 291 290 285 284 282 281 283 278 279 272 273 281 281 286 285 282 283 280 278 284 277 275 279 279 282 285 285 283 281 283 284 285 286 286 287 284 282 281 280 279 280 280 278 275 276 277 277
295 298 300 300 300 295 289 287 286 284 280 279 277 275 282 283 278 282 285 286 285 283 283 281 283 280 279 272 275 281 284 284 284 282 281 281 282 282 283 285 286 284 281 281 279 276 274 275 277 276 274 273 274 274
297 298 301 300 295 289 285 284 285 278 275 273 275 275 277 278 280 280 285 286 286 287 284 281 279 278 279 278 283 285 284 283 283 285 284 283 282 281 282 279 280 277 276 274 276 276 276 276 275 275 274 274 274 275
301 301 301 299 295 285 281 280 282 275 273 275 274 274 273 274 276 278 280 281 283 282 280 278 280 279 279 280 280 281 282 283 282 281 283 284 282 277 279 278 279 278 277 274 272 276 271 274 274 274 274 273 273 273
293 297 299 290 285 284 278 276 277 275 275 272 272 270 270 270 268 268 272 280 280 279 277 279 280 280 278 278 286 286 285 282 281 282 281 280 281 278 277 278 274 276 276 276 275 275 279 274 274 272 268 274 274 274
290 292 286 287 282 280 276 277 275 277 272 272 275 269 265 265 265 267 272 274 277 274 276 277 276 276 276 278 279 277 280 280 280 280 283 282 279 276 275 275 274 274 275 276 275 275 275 274 272 271 271 271 274 270
290 287 284 283 278 276 274 278 273 271 270 272 272 272 273 273 268 269 264 267 270 273 274 274 273 271 273 273 274 276 276 274 275 275 276 276 277 277 275 275 276 275 276 277 275 276 274 277 275 274 270 271 269 269
288 281 279 277 277 272 275 269 273 269 267 267 264 264 263 263 265 264 265 268 271 270 271 271 270 271 270 267 270 271 272 272 273 271 271 271 272 275 277 276 276 276 276 275 273 274 271 271 276 272 270 269 268 268
281 277 278 271 272 270 266 265 264 267 264 266 265 264 262 263 262 260 265 270 266 267 269 269 270 270 268 265 270 271 271 274 273 272 272 272 271 271 273 275 276 276 275 272 272 271 271 268 268 269 269 269 269 267
268 271 270 268 267 266 266 262 263 264 265 263 266 262 261 264 263 266 268 268 267 269 269 272 273 269 270 272 270 270 272 272 273 272 274 273 273 271 272 273 274 276 274 275 271 272 271 268 268 267 268 270 277 272
267 269 271 275 272 270 268 269 271 267 265 266 265 265 264 263 264 269 270 269 271 271 270 269 272 272 274 270 270 270 269 269 273 273 271 271 272 274 275 274 274 276 273 272 272 272 271 270 270 268 268 264 265 266
271 270 268 267 267 267 267 267 266 267 269 269 269 265 266 266 269 272 272 270 267 263 263 264 265 267 267 267 266 268 266 264 264 266 270 272 273 274 273 275 276 279 276 271 271 270 270 270 269 268 266 267 265 262
267 270 270 264 267 268 268 268 269 270 272 270 268 267 267 269 269 269 271 267 260 264 268 268 268 259 262 261 262 264 263 263 266 267 269 273 268 273 264 265 265 265 266 267 277 278 271 269 268 267 266 265 263 258
266 268 268 268 268 269 270 269 268 266 268 269 269 268 268 269 269 265 265 262 264 265 263 261 259 260 262 261 264 266 262 264 267 270 269 270 268 264 260 263 264 263 262 263 265 266 278 272 270 264 263 262 261 261
270 269 267 267 269 267 265 264 263 266 263 261 260 264 267 265 267 263 261 258 257 256 259 260 259 256 259 259 258 258 266 262 259 260 263 266 267 265 264 264 263 260 260 262 262 263 265 266 261 260 260 260 261 262
267 264 266 266 265 262 261 260 261 263 262 262 262 258 260 262 264 265 260 256 258 260 265 258 259 262 258 257 258 259 268 266 263 262 260 262 264 265 263 260 257 257 259 259 259 259 259 259 258 259 259 257 256 255
262 263 263 265 265 265 263 261 262 262 259 258 258 255 254 259 264 265 259 255 259 260 259 258 258 258 259 258 258 259 264 260 261 271 274 276 278 275 267 258 257 259 261 260 259 258 258 257 256 256 255 255 255 254

GFSWCAN_sfc_thetae_081.txt.gz
Theta_e
317 316 314 313 312 311 311 310 309 308 307 305 305 304 304 302 300 292 288 289 287 282 282 284 285 281 280 279 278 281 279 281 280 280 277 280 281 281 281 282 282 283 281 280 282 279 277 288 287 284 287 290 292 293
316 315 314 313 311 311 310 310 309 308 308 306 305 305 304 304 301 296 288 292 292 286 285 288 288 289 288 286 286 285 281 279 280 275 276 274 278 281 282 279 285 282 282 281 282 282 288 288 289 291 292 291 293 293
315 314 313 312 311 310 310 310 309 309 308 307 306 306 305 304 303 296 288 291 293 290 287 284 284 287 290 289 290 284 283 285 282 285 279 279 274 279 279 281 283 286 286 282 284 286 287 288 289 290 292 293 295 297
314 313 312 311 311 310 310 310 309 309 309 308 308 307 306 305 305 299 292 293 293 291 284 283 289 285 287 288 288 289 285 287 287 287 282 278 279 283 278 280 280 285 285 283 282 286 286 289 289 290 290 293 294 294
313 313 312 311 310 310 310 310 309 309 309 308 309 309 308 307 306 302 298 296 297 292 285 283 285 285 286 286 287 287 286 285 285 282 281 278 279 278 279 281 279 284 284 283 282 288 287 288 289 291 291 293 294 294
312 311 311 310 310 310 310 310 309 309 308 308 308 308 308 308 304 298 290 289 296 293 286 278 283 281 283 284 284 284 287 286 286 283 281 280 282 279 275 278 283 287 288 289 287 289 288 290 291 291 290 292 293 293
311 310 310 310 310 310 310 310 309 309 309 308 308 308 307 306 299 292 286 289 295 292 282 278 276 282 282 283 284 285 287 286 285 284 281 279 281 283 277 275 283 288 289 289 291 290 289 290 290 291 292 293 294 291
310 310 310 310 310 310 309 308 307 307 306 306 305 306 304 302 299 293 297 298 294 289 286 275 273 277 282 283 284 286 283 285 285 281 283 280 281 281 276 280 283 285 285 287 291 291 291 288 289 288 289 290 289 288
310 309 310 310 309 308 306 305 304 304 303 305 304 302 297 294 290 292 299 297 294 286 275 277 271 268 282 282 287 286 287 278 282 280 280 282 280 276 279 280 281 283 284 290 291 290 291 289 289 288 288 288 287 287
309 309 308 307 305 304 304 303 302 303 304 302 294 290 287 292 299 298 292 288 287 287 285 278 280 275 280 280 279 282 284 278 271 279 284 279 279 284 283 283 284 285 289 289 287 287 288 287 288 287 287 287 288 287
306 305 304 303 302 302 302 303 304 303 299 291 287 286 292 299 292 287 282 280 282 277 282 281 281 277 284 280 279 283 277 278 271 276 277 275 277 285 286 283 284 287 288 287 288 289 290 290 288 287 286 287 287 287
302 302 301 301 301 302 304 303 302 292 290 291 292 294 293 288 285 280 277 279 276 275 278 276 277 283 285 287 282 283 282 282 275 283 277 273 285 285 285 285 286 287 286 287 288 287 288 288 289 288 288 288 288 288
300 300 301 301 302 303 303 301 298 298 296 291 288 285 282 282 273 273 270 274 273 276 276 279 284 287 288 286 283 283 281 281 284 278 276 284 285 285 284 286 288 289 289 288 288 288 287 288 288 287 286 286 286 284
300 301 301 301 302 302 301 300 299 295 289 283 279 277 276 274 276 276 273 273 278 283 285 286 284 285 287 285 285 280 285 286 279 275 276 281 285 284 284 287 287 287 288 288 288 289 288 287 285 286 285 285 285 283
301 301 301 301 301 300 300 299 296 290 285 279 280 274 276 278 274 277 274 278 284 287 286 285 284 286 284 283 284 283 279 274 279 279 279 285 285 282 283 287 285 287 287 287 288 287 287 287 286 283 281 282 282 281
301 300 298 302 301 300 299 296 292 289 285 281 279 275 278 275 273 274 281 279 285 287 286 286 282 281 281 282 279 276 278 276 280 284 286 284 283 284 285 285 286 287 287 284 283 283 283 283 283 281 279 278 279 279
298 293 300 301 301 299 298 290 289 286 283 282 280 282 278 276 273 275 279 281 284 285 279 282 274 279 282 276 273 276 277 281 285 285 284 281 280 283 284 285 285 287 285 283 281 280 279 280 279 278 276 275 275 276
293 297 300 301 297 294 290 288 286 285 281 281 278 278 282 282 279 280 283 285 285 283 282 277 283 278 278 275 272 277 281 282 283 284 283 281 281 281 283 285 285 286 284 281 279 276 274 275 277 276 274 273 272 273
296 297 301 299 295 289 286 285 286 278 275 277 277 277 280 280 282 280 285 286 286 286 284 282 279 277 279 277 275 274 281 284 280 284 285 285 283 282 281 279 281 281 279 276 277 277 276 276 276 275 274 274 274 274
299 299 300 298 294 284 280 279 283 276 274 276 276 277 276 276 279 281 283 284 284 282 280 278 279 279 279 279 277 281 281 283 282 280 281 283 283 279 279 279 280 280 279 276 273 277 272 274 274 274 274 273 273 273
295 297 298 290 286 281 278 275 278 274 274 273 274 274 273 276 276 278 279 282 280 278 276 278 279 280 278 278 282 284 286 284 283 280 280 280 282 279 278 278 276 277 277 277 276 276 280 276 275 272 269 274 274 274
290 292 287 287 282 278 276 277 275 278 274 272 274 269 267 266 265 267 272 277 277 274 276 276 274 276 275 277 279 279 282 281 279 279 282 281 278 277 276 276 276 277 277 278 276 276 276 275 273 272 271 271 274 271
291 288 284 283 278 275 273 278 274 272 270 272 270 271 273 274 271 270 265 267 270 272 273 273 271 270 272 272 273 276 276 274 275 276 275 275 275 275 275 275 276 276 278 278 276 277 277 277 276 276 271 272 271 269
288 282 280 278 276 272 276 271 274 271 268 268 266 265 263 264 265 263 265 266 270 269 270 269 269 271 270 268 270 273 273 272 272 269 270 270 270 273 276 276 276 276 277 278 274 274 274 274 277 274 271 269 269 269
282 277 278 269 272 270 268 267 264 267 264 263 262 264 262 263 262 260 265 268 265 265 267 268 269 270 269 266 270 271 270 272 270 270 270 269 268 268 270 272 276 277 276 273 274 274 274 271 271 271 271 270 270 268
270 270 272 271 270 269 268 262 264 265 264 262 263 260 258 260 259 264 266 267 267 268 269 271 273 269 270 273 271 270 272 271 271 269 270 271 271 269 267 269 272 275 274 275 273 273 273 271 271 269 270 271 276 272
266 267 272 275 271 270 267 268 269 265 261 263 262 261 261 261 261 268 270 269 270 270 269 269 272 271 271 270 271 271 267 267 271 270 268 268 270 272 273 272 272 274 272 272 271 271 271 271 270 270 269 266 267 268
271 270 268 266 266 266 265 264 263 265 266 268 267 263 265 266 268 271 272 270 267 264 263 264 262 264 265 268 267 267 267 262 262 264 267 270 271 271 269 273 274 279 274 271 271 269 270 270 270 269 268 268 267 265
267 269 270 262 263 264 265 266 267 268 271 269 268 267 268 270 269 268 269 265 260 265 267 266 265 259 260 260 259 260 260 262 265 265 265 269 265 269 262 261 262 263 264 265 276 277 271 270 269 268 267 266 264 260
266 266 265 261 264 265 265 265 265 264 268 269 269 268 269 269 267 264 264 263 265 265 263 261 258 258 260 260 263 265 260 259 263 266 264 266 265 263 263 264 264 262 260 261 263 264 275 273 272 262 261 260 260 260
266 264 263 263 265 263 262 263 263 266 264 264 262 265 266 265 266 264 263 263 262 259 262 261 259 255 259 258 257 258 264 260 258 259 259 263 265 265 266 266 265 263 260 260 261 262 266 269 261 261 260 260 259 262
265 264 265 264 266 263 262 262 261 262 260 261 262 260 264 265 267 267 261 257 261 263 265 258 259 262 258 256 256 258 267 264 262 262 259 262 262 264 265 265 261 259 259 259 259 259 259 261 259 260 261 259 256 256
258 259 259 262 263 264 263 264 265 265 263 262 261 258 257 260 265 265 260 257 260 261 260 259 259 259 258 257 257 258 263 258 259 270 273 274 276 277 274 266 263 261 260 260 258 259 257 256 256 255 256 257 255 254

GFSWCAN_sfc_thetae_084.txt.gz
Theta_e
307 308 307 315 313 312 311 310 309 308 307 306 305 304 303 301 300 297 293 295 294 290 288 288 289 286 285 286 283 285 284 285 285 281 281 281 281 285 284 286 285 285 284 283 284 281 279 292 291 287 293 297 297 299
306 306 307 314 312 311 310 309 308 307 307 306 306 305 303 302 301 299 293 296 297 293 290 292 292 293 292 291 287 288 284 283 286 283 283 282 281 283 283 281 289 284 288 287 288 287 292 294 295 297 298 297 299 300
306 308 311 313 312 311 310 309 308 307 307 306 305 305 304 303 301 299 294 296 297 291 291 291 289 292 294 293 295 285 288 288 287 289 285 281 278 284 280 284 284 288 289 287 288 292 293 294 296 297 298 298 300 302
306 307 311 312 311 310 309 309 308 308 307 307 306 306 305 304 302 300 298 299 298 292 287 287 292 290 291 292 292 293 290 290 291 290 285 281 280 286 282 284 283 287 287 287 288 291 293 295 296 297 296 296 298 300
305 307 310 311 310 309 309 308 308 308 308 307 307 307 306 305 303 300 299 298 300 294 287 287 290 289 289 290 290 291 290 288 287 284 283 280 284 283 284 283 280 285 285 286 287 290 291 294 296 297 296 296 297 299
304 306 311 310 309 309 309 308 308 307 307 307 307 307 307 306 302 299 292 294 299 298 288 283 289 287 287 289 289 289 290 288 288 285 283 285 286 284 279 278 285 288 289 291 290 292 293 295 295 298 296 296 298 298
305 306 310 309 309 309 308 308 307 308 308 308 308 307 307 305 299 294 291 295 298 297 287 282 283 286 286 287 288 288 289 288 287 285 283 284 284 284 281 278 285 288 291 289 289 291 292 295 295 298 298 298 297 296
306 309 310 309 309 308 308 308 307 307 307 308 308 307 304 301 299 294 297 298 296 290 288 280 281 282 286 286 285 288 285 286 286 284 285 283 284 284 278 283 285 286 287 287 288 291 294 295 295 295 295 296 295 293
306 310 309 309 309 308 308 308 308 307 307 305 304 302 299 295 292 293 298 297 297 290 283 281 279 280 286 286 288 287 287 281 286 282 283 284 282 278 282 284 285 286 285 287 291 293 294 293 294 293 294 294 294 293
309 308 308 308 308 308 308 307 306 305 304 302 297 292 288 292 299 298 292 288 288 286 286 282 284 281 285 285 284 284 285 282 278 283 286 281 281 285 287 287 288 288 288 290 288 288 291 291 292 292 293 293 294 293
308 308 308 308 307 306 305 305 304 302 299 293 289 287 294 299 293 288 283 281 282 279 283 284 283 281 286 283 282 285 283 283 277 281 281 280 280 286 287 287 288 289 289 290 291 292 292 292 293 291 290 291 291 291
308 307 306 305 304 303 303 303 301 294 293 293 293 295 294 289 285 281 278 281 279 278 281 281 283 284 286 287 283 284 282 283 277 284 281 278 285 286 287 286 288 290 290 289 290 289 290 291 292 291 291 291 291 290
305 304 303 302 303 303 302 300 299 299 297 293 289 285 284 283 276 275 273 277 278 281 282 282 284 287 287 287 283 283 280 280 285 281 280 284 287 287 286 287 287 290 290 290 289 290 289 289 289 289 288 288 287 286
303 302 301 301 302 301 300 300 299 296 292 285 283 278 279 276 278 279 279 280 283 283 283 287 285 286 287 284 284 281 284 286 282 279 281 287 286 285 286 287 287 287 289 289 289 289 288 287 286 286 286 286 286 284
302 302 301 301 300 300 300 298 296 292 287 283 282 278 277 280 279 281 280 283 286 289 287 285 285 285 285 283 284 284 281 279 282 282 286 287 286 285 286 287 285 286 287 287 287 287 287 287 286 283 283 284 284 284
301 300 298 300 300 299 298 296 293 290 285 282 280 277 280 280 277 280 280 282 286 288 288 286 282 282 282 283 281 280 280 278 283 286 287 287 285 285 286 286 286 287 286 285 284 285 286 286 285 283 281 281 282 282
299 295 300 300 299 298 297 291 290 285 283 282 281 283 281 280 280 281 284 285 288 286 281 283 278 278 283 280 278 282 281 285 288 288 287 286 284 284 285 286 285 286 286 285 284 283 282 282 282 281 279 278 279 280
295 297 300 299 296 294 290 288 286 285 281 282 280 281 283 283 282 282 283 286 287 285 285 281 283 279 279 277 279 284 286 287 287 287 287 286 285 285 284 285 285 285 286 285 284 282 280 280 280 280 278 278 277 278
297 298 298 297 295 290 286 286 285 280 278 280 279 280 282 282 283 283 287 288 288 288 285 283 279 279 280 284 284 284 285 288 287 287 287 288 287 286 284 283 283 283 283 283 281 281 281 280 280 279 278 277 277 278
300 299 299 296 293 285 282 281 284 281 278 278 279 279 279 279 282 283 285 285 285 284 281 279 280 283 284 285 285 286 287 288 287 285 285 285 287 283 284 284 283 283 283 283 281 281 279 278 278 278 278 277 277 277
297 296 294 290 284 282 280 279 280 277 277 277 277 279 277 279 279 280 281 284 282 280 279 282 283 284 284 284 286 287 287 287 286 286 285 283 284 283 283 283 282 280 280 282 281 281 282 280 281 279 279 278 278 278
291 293 287 288 282 280 278 279 279 278 277 276 276 275 274 274 274 275 276 279 280 280 282 280 281 282 282 281 283 282 285 285 285 283 284 283 281 281 280 280 280 281 281 282 282 281 282 282 280 279 278 278 279 277
291 289 285 284 278 277 274 279 276 274 274 275 275 273 273 273 272 273 272 274 275 277 278 278 278 276 279 278 277 279 279 280 282 281 280 280 278 279 278 279 279 278 279 280 281 280 281 282 281 281 279 278 277 276
289 283 280 278 277 272 276 273 275 273 273 272 273 271 270 270 269 269 270 272 275 274 275 275 275 278 277 274 277 279 279 279 279 276 276 277 278 279 279 279 279 279 279 280 279 279 279 279 281 279 279 277 276 276
282 276 277 270 273 272 271 271 270 270 269 268 266 266 267 267 268 267 269 273 273 273 274 274 275 277 278 278 276 276 275 277 277 278 277 277 277 276 278 278 278 279 279 279 278 278 279 278 277 277 277 277 276 276
274 273 274 272 272 271 270 269 268 267 267 265 266 264 264 266 264 268 271 273 274 274 274 274 276 275 275 276 277 276 277 275 276 277 278 276 277 278 278 277 277 279 278 279 279 279 278 278 277 276 276 276 278 279
269 269 273 275 273 271 270 270 271 269 265 267 266 264 266 264 266 271 274 274 275 275 274 274 276 277 278 277 276 276 275 274 277 277 274 275 276 277 278 277 276 278 277 277 277 277 277 277 276 276 275 275 274 274
272 272 270 269 269 268 267 266 266 267 268 269 269 264 266 268 270 273 273 272 271 270 269 269 269 271 273 274 273 272 273 269 270 271 273 274 273 272 271 273 273 276 277 276 276 275 275 275 275 275 274 274 274 273
269 271 272 267 264 265 266 268 269 270 272 270 269 268 269 272 273 271 271 269 266 267 271 271 271 268 269 268 267 268 267 269 271 269 269 273 273 273 268 269 270 270 270 271 276 278 275 274 274 273 273 273 272 269
267 268 267 261 265 267 267 267 266 265 268 269 270 270 270 272 270 266 267 266 267 267 265 264 264 268 269 270 269 269 267 265 267 270 269 269 270 269 268 269 269 270 269 269 269 271 274 276 276 270 268 267 268 268
267 265 265 264 264 262 261 262 263 267 265 265 263 266 268 267 268 266 265 263 264 263 266 266 266 262 265 265 265 265 267 264 262 262 263 264 265 266 266 267 268 268 267 267 267 267 268 272 272 269 268 267 266 269
265 262 265 263 263 260 259 262 261 262 261 262 263 261 264 266 267 268 266 263 264 266 268 263 263 266 263 263 262 262 268 266 263 262 261 263 264 265 266 267 268 266 265 265 266 266 265 267 270 268 268 266 265 265
257 257 258 262 263 263 262 262 261 261 261 262 264 263 263 263 265 266 263 260 264 265 265 264 263 262 261 260 260 261 265 261 261 270 272 273 274 276 277 275 270 268 266 266 266 265 263 262 264 264 264 264 263 262

GFSWCAN_sfc_thetae_087.txt.gz
Theta_e
303 303 304 306 308 313 312 310 309 308 308 307 306 305 303 302 301 300 295 298 298 294 291 291 291 289 288 289 286 287 287 287 287 282 282 283 283 285 284 287 286 285 284 284 285 282 279 294 293 288 294 298 298 299
302 303 303 306 307 309 311 309 308 308 307 306 306 304 303 302 301 301 295 298 302 296 292 294 295 295 294 293 290 289 287 285 288 285 285 284 283 285 283 282 290 284 288 286 288 287 294 295 296 298 299 298 299 301
302 302 303 307 308 307 310 309 308 307 307 306 306 304 303 303 302 300 297 299 299 295 293 293 291 294 296 295 297 288 289 289 288 291 287 284 280 285 281 284 286 289 290 288 289 292 294 296 297 298 300 299 301 302
301 301 303 306 308 311 309 308 307 307 307 307 305 305 304 303 302 302 299 301 299 296 291 289 294 292 294 295 295 295 291 292 292 291 286 283 281 287 284 285 284 287 288 288 289 292 294 296 297 298 298 299 299 300
301 302 305 306 308 310 308 307 307 307 307 307 306 305 304 304 303 301 301 301 302 297 289 288 292 291 291 292 291 293 292 288 287 285 283 282 285 284 285 284 282 287 285 283 285 292 292 294 296 298 297 297 299 298
301 302 305 306 308 309 308 307 306 306 306 306 306 305 304 303 304 301 293 300 301 300 292 286 291 288 289 291 291 290 291 288 289 286 285 286 287 284 280 280 286 288 289 290 287 291 292 294 297 299 298 299 299 300
301 302 304 305 309 308 307 306 306 306 306 306 306 306 304 303 299 294 291 297 300 300 291 285 285 288 288 290 290 289 290 289 288 286 284 284 284 285 282 279 286 288 289 288 291 290 289 296 294 297 298 299 300 299
302 303 305 306 308 307 307 306 306 306 307 307 307 306 303 301 300 295 297 298 299 293 291 284 284 285 289 288 286 290 286 286 286 285 286 283 285 284 279 285 287 289 289 288 289 291 293 292 296 297 297 297 296 295
302 304 305 308 308 307 307 307 306 306 307 306 304 302 300 297 292 293 298 298 298 293 286 286 284 282 288 288 288 287 287 281 287 282 283 284 282 279 284 286 286 288 288 287 289 292 294 293 295 296 295 295 296 296
303 304 305 308 307 307 306 306 306 307 304 303 300 294 289 294 299 298 293 289 289 288 289 286 287 284 287 287 284 284 286 283 280 283 286 281 281 288 289 289 288 288 289 290 287 288 289 288 293 294 294 296 297 296
303 304 307 307 306 306 306 306 305 304 302 296 290 288 294 299 293 289 284 283 283 281 285 287 286 285 289 284 284 286 283 283 277 283 281 280 281 286 289 288 288 290 291 290 290 291 292 292 292 293 292 292 293 293
304 306 307 306 305 306 306 304 303 297 295 294 293 295 294 289 285 282 281 282 281 280 284 284 285 287 287 289 284 285 282 283 278 285 281 279 287 287 287 286 288 290 291 291 292 291 290 291 292 293 292 292 292 292
305 307 306 306 306 305 304 303 300 300 298 295 291 286 286 284 278 277 275 278 280 284 285 285 283 286 287 287 283 283 280 281 287 281 280 286 288 288 287 287 287 289 290 291 290 290 290 289 289 289 289 289 289 287
306 306 306 305 303 302 301 300 300 298 296 289 286 278 282 278 279 281 282 284 286 287 286 288 286 286 287 283 284 281 285 286 281 280 282 288 287 287 288 288 288 287 288 289 289 289 288 288 287 287 287 287 287 285
305 304 303 301 301 300 300 299 297 295 291 285 286 282 279 282 282 284 285 286 288 291 289 286 286 286 285 283 284 284 281 280 283 283 287 288 288 287 287 287 286 286 287 286 287 287 287 287 286 284 284 285 285 285
303 301 298 300 300 299 298 297 295 292 286 284 282 279 282 282 279 282 285 285 290 290 289 288 283 281 282 283 281 280 280 280 285 288 290 288 288 287 287 286 287 287 287 285 284 284 285 286 285 284 282 282 282 283
299 294 299 299 299 298 297 293 291 285 284 283 281 284 284 285 283 283 287 287 291 287 282 284 279 280 284 280 280 285 283 288 290 289 289 288 288 287 286 286 286 287 287 286 286 285 283 283 283 282 281 280 280 281
293 297 298 299 298 294 291 289 286 285 282 283 282 282 284 285 285 285 287 289 288 287 286 282 285 280 279 278 282 287 289 288 290 290 290 289 288 288 286 286 286 285 285 285 286 285 282 282 281 281 280 280 279 279
295 296 299 298 295 290 285 285 286 281 280 282 282 284 285 285 286 287 288 289 290 290 286 283 280 279 282 286 288 288 289 290 289 290 290 291 290 289 287 285 285 285 284 284 284 284 284 282 282 281 280 279 278 279
298 297 295 295 294 287 284 283 286 283 281 281 283 282 282 282 284 286 287 287 287 286 283 281 281 284 285 288 289 289 290 290 289 288 288 288 289 286 286 285 285 285 284 285 284 285 282 281 280 280 279 279 278 278
295 294 293 290 286 285 283 283 280 281 281 279 281 282 279 282 282 283 283 285 284 282 281 284 285 287 288 288 289 290 290 290 289 289 288 287 287 286 285 285 284 283 282 282 283 284 284 282 283 282 282 280 280 279
291 294 289 288 284 282 280 281 281 281 279 278 279 280 277 277 277 279 279 281 281 284 285 285 285 286 286 285 286 286 287 289 289 288 287 286 285 284 282 282 281 282 282 283 283 282 282 283 282 282 281 281 281 280
292 290 287 286 281 280 276 281 278 278 277 276 278 277 276 276 275 276 276 279 281 283 283 282 282 281 282 282 281 282 283 283 284 286 286 285 283 281 281 282 281 281 281 282 283 282 282 283 283 282 282 281 280 279
290 284 281 279 279 274 278 275 277 276 277 276 276 274 273 274 273 273 273 277 280 279 279 279 279 280 280 277 280 282 283 283 283 283 282 281 281 281 281 281 281 281 282 281 281 281 281 281 282 281 281 280 280 279
283 278 279 273 276 275 274 274 273 275 273 273 272 271 270 271 272 271 273 278 279 279 280 279 280 281 282 283 282 280 279 282 282 282 281 280 280 279 280 280 280 280 281 281 281 280 281 281 280 279 279 279 279 279
276 275 276 275 274 275 274 272 272 272 272 270 271 268 269 271 270 272 276 279 280 281 280 280 281 281 280 281 281 281 280 279 280 280 282 280 280 281 281 279 278 279 280 280 280 280 280 280 279 276 278 278 280 280
273 273 275 276 275 274 272 273 274 274 271 271 270 268 269 269 271 275 278 279 280 278 278 279 281 282 282 281 280 279 278 278 278 278 276 278 279 279 279 278 277 279 278 278 278 278 278 278 278 277 277 277 277 276
275 275 273 273 273 273 272 272 272 272 274 273 272 268 269 272 275 278 277 276 275 274 275 274 274 275 276 277 276 275 277 274 275 275 277 277 276 275 273 274 274 276 275 275 276 277 277 276 276 276 275 275 275 275
274 274 275 269 270 272 273 273 274 274 275 273 274 273 273 274 276 276 275 274 272 274 277 277 276 274 275 273 272 273 273 274 274 272 273 275 277 274 272 272 272 273 273 273 276 277 276 275 275 276 275 275 275 272
272 275 272 269 270 272 273 271 272 270 272 273 272 273 273 275 274 271 272 273 274 274 272 271 270 273 273 272 273 273 271 270 270 272 272 272 272 270 269 269 270 270 271 271 271 271 275 275 276 273 273 270 270 270
272 272 271 272 271 269 267 267 268 269 269 270 268 272 273 271 272 270 270 269 270 270 273 272 271 269 270 270 270 270 271 268 264 264 265 267 267 267 268 269 270 270 270 269 269 269 269 270 271 273 272 269 268 271
271 270 270 268 268 266 265 268 269 270 268 270 269 268 270 271 271 273 269 269 271 273 273 270 270 271 269 268 267 266 270 268 266 266 263 265 266 267 268 269 270 270 269 269 268 268 268 266 267 271 270 268 268 267
266 266 266 267 267 268 267 268 268 267 268 269 268 266 266 267 268 271 268 266 271 271 271 270 269 267 265 263 264 265 267 266 264 270 273 274 275 275 275 275 275 273 270 268 268 268 267 266 265 265 266 266 266 264

GFSWCAN_sfc_thetae_090.txt.gz
Theta_e
303 303 302 304 303 304 308 308 311 310 309 308 308 307 307 307 304 301 295 298 297 290 289 291 292 287 286 286 282 285 284 285 284 281 281 281 280 282 280 283 283 282 280 281 282 278 278 290 290 284 290 293 294 295
303 302 301 303 303 305 307 310 310 308 308 307 307 306 305 304 303 303 294 298 300 293 289 294 293 294 293 291 288 286 284 284 285 281 280 279 277 278 279 275 286 281 285 283 287 285 291 292 291 293 294 293 294 296
302 302 301 302 302 305 306 311 309 308 307 306 306 305 304 304 304 301 296 298 298 292 290 290 289 293 295 294 295 285 286 288 286 287 281 279 275 279 274 277 280 284 288 285 285 290 291 293 293 294 294 294 295 298
302 301 301 302 301 302 306 309 308 307 307 307 306 305 305 304 303 302 299 300 298 295 286 285 294 290 292 294 293 293 289 290 289 287 282 281 278 284 279 280 279 282 283 284 284 287 291 293 292 293 294 295 295 295
301 301 301 301 302 304 306 309 307 307 306 306 306 305 304 304 304 301 300 300 300 295 286 285 289 289 291 291 291 291 290 288 287 284 281 278 284 281 282 281 278 282 281 279 279 285 287 289 289 295 295 295 295 294
300 301 301 301 303 306 306 308 306 306 306 305 305 305 305 304 304 300 292 298 300 298 288 281 287 286 288 290 289 289 290 288 287 285 284 285 287 282 278 276 284 285 286 286 283 286 287 288 293 294 294 295 296 296
300 301 300 302 304 305 308 307 306 305 306 305 305 304 302 301 298 293 292 296 300 297 288 281 281 285 287 289 288 288 289 288 287 286 284 284 284 282 280 276 284 286 287 287 287 286 286 289 288 291 295 296 296 294
301 300 301 302 305 307 307 306 306 305 305 305 304 303 302 302 300 294 296 298 298 291 290 281 280 281 287 286 284 289 285 286 285 285 285 283 284 282 277 282 285 288 288 288 288 286 287 291 292 294 295 294 293 292
301 301 301 303 305 307 306 306 305 305 305 304 303 303 299 296 292 292 299 299 296 291 283 283 278 276 286 287 287 286 287 280 286 281 283 284 281 278 281 284 287 288 287 288 288 288 289 290 291 293 293 293 292 292
301 301 302 303 306 306 306 305 305 305 303 303 299 293 288 293 298 297 293 288 287 286 287 283 284 279 285 285 284 284 285 282 279 282 285 280 280 284 287 289 288 288 288 288 285 284 285 285 288 291 292 292 293 292
301 302 302 304 305 305 305 305 305 304 302 294 290 288 294 299 292 288 283 282 282 279 283 283 284 280 286 282 282 286 282 283 276 281 280 280 278 281 288 287 287 289 290 289 288 289 290 288 290 291 291 291 291 291
301 301 303 306 305 305 305 305 304 298 295 294 293 295 294 289 285 282 280 281 280 279 282 281 281 285 284 286 283 284 280 282 276 284 280 277 281 287 287 286 286 289 290 290 291 289 290 290 291 292 291 290 290 291
301 303 305 305 305 305 305 304 302 300 298 294 289 285 286 283 279 278 275 277 278 282 281 281 282 286 285 286 283 282 279 279 284 280 278 280 286 287 287 287 287 289 289 290 290 290 289 288 288 288 287 287 287 286
301 303 305 305 305 304 303 301 301 299 294 288 285 278 282 278 281 281 282 282 284 284 284 285 284 283 286 282 284 280 281 284 278 277 279 284 284 284 287 288 287 287 288 288 288 288 287 287 287 287 288 288 287 285
303 305 305 304 303 301 301 300 299 295 290 285 286 281 280 282 282 283 284 284 285 287 287 283 284 285 283 282 283 282 280 276 278 277 284 286 284 283 283 287 286 286 286 286 287 287 287 287 285 283 283 283 283 283
305 304 302 302 301 300 299 298 294 292 286 284 283 280 282 281 278 281 284 284 288 288 286 284 280 280 280 281 279 278 278 273 277 285 287 285 283 283 283 286 286 286 284 284 282 283 283 283 283 282 281 280 280 281
303 298 300 300 299 300 299 292 290 285 284 283 281 284 283 283 281 283 286 286 290 284 280 281 278 273 281 279 278 280 280 280 286 280 282 286 286 283 281 282 286 286 285 284 285 286 285 283 282 281 279 278 278 279
295 298 299 299 297 296 290 288 286 285 281 282 281 281 284 284 283 285 287 287 286 283 280 279 280 278 278 276 275 279 281 286 282 281 282 284 284 284 283 282 285 285 285 285 284 284 282 281 281 280 279 277 276 276
297 298 299 299 295 289 285 284 285 279 279 281 283 283 284 284 285 284 286 288 286 285 281 280 276 277 277 278 278 281 279 280 282 283 284 286 286 285 283 280 280 280 284 284 284 284 284 284 283 282 279 278 277 277
298 297 297 296 294 286 283 283 286 282 280 280 283 281 281 281 284 285 286 284 281 280 276 276 278 280 280 281 280 280 281 284 284 282 283 284 284 277 279 278 280 280 280 279 279 285 279 281 281 281 280 278 277 277
295 294 293 289 285 284 282 282 279 281 281 279 281 281 279 282 282 282 282 284 278 277 278 280 281 282 282 281 284 284 285 285 284 284 283 278 281 278 278 277 275 279 277 277 277 279 282 281 280 278 276 278 278 278
291 294 287 288 283 282 280 281 280 281 279 279 278 278 278 277 278 278 279 281 278 280 280 281 279 279 278 280 281 281 283 283 284 284 286 284 280 277 276 275 274 272 275 278 277 277 278 277 277 277 276 277 279 277
293 290 285 285 280 279 276 281 277 277 273 275 273 270 274 275 272 274 272 275 278 278 277 276 274 274 275 276 277 278 279 276 278 280 281 281 280 276 274 275 275 272 274 277 277 275 275 281 279 278 276 277 276 275
289 282 280 278 279 274 278 274 277 275 274 273 271 268 270 269 270 269 269 273 275 274 273 272 272 273 273 271 272 275 277 278 276 274 274 274 273 276 277 277 277 276 277 276 274 274 274 275 279 275 274 273 273 273
281 277 279 273 276 275 273 273 273 273 269 270 267 266 267 268 267 266 269 272 273 272 272 272 273 273 273 273 274 274 273 275 274 273 274 274 272 271 272 274 277 277 276 272 274 274 274 271 271 271 271 271 270 270
275 274 275 274 274 274 274 271 271 270 270 267 267 266 266 267 265 267 271 271 271 271 270 270 271 272 273 274 273 272 272 272 273 272 272 271 271 271 271 271 271 273 275 274 272 272 273 273 271 269 269 271 278 271
273 273 275 276 275 274 272 273 273 272 267 267 267 266 266 264 266 271 272 272 272 270 270 270 271 273 272 272 272 271 270 268 269 270 270 270 271 272 272 271 270 272 272 270 270 272 272 272 272 270 271 269 268 268
275 275 273 273 272 272 271 269 269 268 269 271 271 265 268 269 270 271 271 269 268 268 268 268 267 267 267 267 266 267 267 266 266 266 269 270 269 268 267 268 268 276 271 269 269 268 270 274 273 272 269 270 269 266
274 275 275 269 269 270 270 270 270 272 273 271 269 269 269 271 270 270 270 267 266 266 268 268 267 265 265 264 264 265 264 266 268 268 268 268 268 266 263 264 263 264 264 265 273 274 271 270 270 270 270 270 268 264
272 274 270 267 268 269 268 267 267 267 270 270 270 270 270 270 268 267 267 266 266 266 264 262 262 262 262 262 263 263 262 262 262 264 263 263 263 262 261 261 262 263 262 263 265 266 272 268 269 266 266 267 264 262
273 272 268 268 266 265 264 265 266 268 266 265 265 266 267 265 268 266 265 264 263 262 262 262 261 260 262 261 260 260 262 260 257 258 258 259 259 261 262 262 263 262 263 266 266 266 266 265 263 263 265 270 268 270
269 266 267 265 263 263 263 264 264 264 264 265 264 263 265 266 266 266 263 262 262 264 268 263 262 263 261 260 260 260 269 260 259 259 259 260 261 263 265 266 266 265 266 267 266 266 265 264 265 264 266 268 266 264
263 263 263 265 263 263 263 264 263 262 262 262 262 260 260 262 264 265 262 261 263 263 263 262 261 260 260 259 258 259 264 258 260 272 273 274 275 275 275 272 270 268 270 268 266 263 263 263 264 264 265 266 266 265

GFSWCAN_sfc_thetae_093.txt.gz
Theta_e
303 302 303 304 303 303 304 305 308 307 312 310 308 309 309 309 306 297 293 294 292 284 285 289 289 284 284 283 280 282 282 283 282 276 273 273 275 278 277 280 282 281 279 279 281 276 275 291 289 283 288 291 292 293
302 302 303 304 303 304 304 305 307 309 310 309 308 308 309 308 305 300 291 295 296 288 286 292 291 291 290 288 285 284 282 282 282 279 275 273 275 273 275 272 283 278 283 283 286 284 291 292 291 292 291 291 293 296
303 303 303 303 302 302 303 305 307 310 308 307 308 308 309 306 305 299 292 294 293 288 287 286 286 289 292 291 292 282 283 286 284 284 277 276 273 276 271 273 277 281 284 282 283 288 290 291 291 291 292 292 293 295
303 303 303 303 302 302 302 305 310 309 308 308 307 308 306 305 304 301 295 296 293 290 283 283 291 286 290 292 291 290 288 288 287 284 276 275 277 281 276 278 277 280 281 280 281 283 287 289 289 290 293 294 295 295
303 303 303 302 301 302 302 305 308 307 307 307 306 306 306 305 304 300 296 296 297 291 282 282 286 287 289 290 290 289 287 285 283 278 276 276 280 279 279 278 276 280 279 277 277 282 283 285 288 292 291 293 294 295
302 303 303 302 302 302 303 305 307 306 306 305 305 306 306 305 303 296 288 293 297 294 284 278 285 284 287 288 288 287 287 285 284 280 280 283 286 278 274 273 281 282 283 284 281 283 285 287 288 292 292 293 295 295
302 302 302 301 301 302 304 306 306 306 305 305 305 305 304 302 296 292 289 293 298 294 284 278 277 283 287 286 288 288 289 287 286 282 280 283 283 278 273 274 281 284 286 288 289 288 284 286 286 291 294 295 296 294
302 302 302 302 301 302 305 306 305 305 305 305 304 303 303 302 298 292 294 298 295 289 288 276 277 278 284 284 284 289 285 286 285 282 285 282 283 280 276 280 282 285 288 288 287 286 285 285 288 291 294 296 294 292
301 301 302 302 302 303 306 305 305 304 304 304 303 301 297 295 289 290 299 298 293 288 281 278 274 271 283 287 287 286 286 280 285 279 283 283 279 277 279 281 285 288 287 287 288 286 286 286 286 288 293 293 293 292
301 301 301 302 302 306 305 305 304 303 303 302 297 292 287 291 298 297 290 285 283 284 284 281 281 277 283 285 284 283 284 281 272 281 285 280 278 283 284 285 287 287 288 289 286 283 284 283 286 288 291 292 292 293
301 301 301 302 303 305 304 304 303 302 300 293 289 287 292 298 291 288 280 279 279 278 282 281 280 279 285 282 282 285 281 282 276 279 277 279 277 278 285 286 287 287 289 289 290 288 286 287 289 290 291 291 290 290
301 301 302 302 304 304 303 303 302 297 293 293 292 294 293 288 284 282 280 280 277 278 281 278 279 279 282 287 283 284 280 280 275 283 277 277 279 282 286 286 286 288 289 290 291 289 289 289 289 291 290 289 288 288
301 302 302 301 304 303 303 302 301 299 298 293 289 284 284 282 278 279 275 276 275 281 280 279 280 283 284 286 283 282 278 276 283 279 278 277 281 286 286 287 287 289 289 289 290 290 289 288 288 288 287 287 287 286
301 301 300 304 303 303 302 301 300 299 295 288 284 278 281 278 280 281 281 280 283 282 283 282 280 280 284 280 283 273 281 283 277 275 273 278 282 282 283 287 287 286 287 288 288 288 288 287 287 287 287 288 287 285
299 301 304 303 303 302 300 301 300 293 290 285 286 279 280 281 282 283 284 284 284 286 284 281 280 284 280 281 281 281 279 274 277 275 276 278 282 282 282 287 286 285 285 286 287 287 287 286 285 283 282 282 282 281
300 303 302 303 302 301 301 300 294 291 286 284 283 279 281 279 279 282 282 283 287 286 283 281 281 278 278 279 279 277 276 271 275 275 281 284 282 282 281 286 287 286 285 284 283 282 281 281 281 281 280 279 279 279
302 300 302 301 301 300 300 292 290 285 284 282 279 284 283 282 280 282 285 286 287 282 275 276 271 272 279 278 277 281 277 275 285 277 280 286 286 282 280 281 286 286 285 284 284 284 284 284 282 281 279 279 278 278
298 300 300 300 299 296 289 288 285 284 280 280 280 281 284 284 284 285 286 287 284 278 277 273 278 278 277 275 275 277 276 287 281 278 280 282 282 282 281 281 285 285 285 285 284 284 283 283 283 282 279 278 276 276
298 298 299 300 296 289 285 284 284 277 279 281 282 283 283 283 285 285 287 287 284 282 279 274 270 269 275 276 277 283 278 283 281 282 282 284 284 283 282 278 279 280 283 284 284 284 285 285 285 284 283 281 278 278
299 299 299 298 294 286 282 282 286 281 278 280 282 280 281 281 283 285 285 282 280 276 273 275 275 277 278 279 278 278 279 282 282 281 281 282 283 276 278 277 279 279 279 277 275 282 278 280 280 281 281 281 279 278
294 293 293 289 285 284 282 281 279 280 280 279 280 280 279 282 282 282 282 283 275 270 272 277 279 280 280 279 282 283 283 283 282 282 282 276 280 277 276 275 273 278 276 275 275 276 280 278 278 277 275 279 279 279
291 292 287 288 283 281 279 281 279 280 279 278 278 279 278 277 278 278 279 281 278 274 276 278 276 276 276 279 280 278 281 282 281 282 285 284 279 276 275 274 273 270 270 271 272 274 275 277 278 277 275 277 278 277
292 289 285 284 280 279 276 281 277 278 276 274 275 274 274 275 274 275 271 269 272 273 273 274 272 271 274 273 276 277 277 275 277 278 279 279 279 275 274 274 273 269 269 272 273 274 273 279 278 277 275 275 274 275
289 282 279 278 278 274 278 274 278 276 276 274 271 270 272 270 272 265 265 267 271 271 272 270 270 271 271 269 270 272 274 275 274 272 271 273 272 276 276 275 277 274 275 273 272 272 272 273 278 274 272 271 270 271
280 277 278 273 276 275 273 272 273 273 270 271 268 265 266 266 261 261 264 268 267 268 268 269 270 269 268 267 271 271 271 273 272 272 272 271 270 269 270 271 275 275 273 270 272 273 271 271 271 272 271 270 269 269
274 273 271 271 271 272 272 270 269 270 270 265 264 264 261 262 262 265 267 267 267 266 267 267 268 269 271 271 271 270 271 269 271 271 270 268 269 268 265 268 268 271 272 272 270 270 271 270 270 270 271 271 277 273
273 270 273 276 274 274 272 273 274 272 266 265 265 263 263 263 264 269 270 269 270 267 266 265 268 271 271 270 270 269 267 264 267 268 267 266 267 267 268 268 268 271 270 269 268 269 270 271 271 271 270 270 269 270
274 274 272 272 272 272 272 271 269 268 268 270 270 264 267 269 271 271 270 268 266 265 265 265 264 265 265 265 263 265 264 262 261 262 266 267 265 264 264 265 266 275 270 269 269 267 266 267 270 273 272 271 271 267
273 275 276 271 271 271 269 269 269 270 272 271 269 268 268 271 268 268 269 267 263 265 266 265 265 261 262 262 261 260 260 262 266 266 265 265 264 265 261 261 260 260 261 262 272 273 270 270 270 270 270 271 271 270
272 275 271 268 269 268 267 266 266 266 269 269 270 269 269 269 267 264 265 263 264 263 261 260 259 260 261 262 261 262 258 258 260 263 262 262 262 260 259 260 263 263 262 261 264 265 271 267 266 262 263 263 264 266
273 272 268 268 265 264 263 264 265 268 265 263 263 266 267 264 266 264 263 261 259 259 261 260 259 256 260 259 259 259 262 258 256 257 257 257 257 259 261 262 262 262 261 261 264 264 264 264 261 261 261 261 262 270
270 266 268 266 264 264 263 263 263 263 263 264 264 262 264 265 266 265 262 261 261 262 267 261 261 263 259 258 257 258 268 258 257 257 257 259 261 263 264 265 265 264 263 264 266 266 265 264 263 263 263 261 261 262
265 265 264 264 263 262 264 264 263 262 262 260 261 260 260 263 266 265 262 260 263 264 263 261 258 258 258 258 257 257 263 256 260 271 273 274 276 276 275 269 269 269 267 267 265 261 258 259 260 261 261 261 261 263

GFSWCAN_sfc_thetae_096.txt.gz
Theta_e
302 303 304 304 304 304 304 304 305 305 306 308 311 310 309 310 306 297 293 295 292 285 286 288 288 283 283 281 279 282 281 281 281 276 273 273 274 277 275 279 280 280 276 275 279 274 274 290 289 282 285 289 292 293
302 302 303 305 304 304 304 304 304 304 307 308 311 309 308 310 305 299 292 295 294 288 287 291 290 289 288 287 284 282 281 280 282 278 273 273 275 270 273 271 280 280 282 282 282 280 289 291 289 290 291 290 290 291
301 302 302 304 304 304 304 303 303 303 306 310 310 309 309 310 305 299 294 295 292 287 286 286 286 289 291 290 290 282 282 285 283 282 276 276 274 275 271 272 275 278 282 280 282 285 287 288 292 292 292 291 293 294
301 301 302 303 304 304 304 303 303 304 305 310 309 309 309 308 305 301 296 296 292 289 282 282 290 286 289 290 290 289 287 287 286 283 275 274 277 279 276 277 276 279 279 278 279 281 284 286 286 290 292 292 292 294
302 302 302 303 303 304 303 303 303 303 309 309 308 309 307 305 303 299 297 296 297 291 282 281 285 287 288 289 288 288 287 284 281 278 275 275 280 278 277 277 275 279 278 276 276 281 281 282 285 288 290 292 293 293
302 302 302 303 303 304 302 302 303 309 308 307 307 306 305 304 302 296 289 292 296 292 284 278 284 285 287 287 287 286 286 284 282 279 278 280 283 278 273 272 280 281 282 284 281 284 284 285 286 288 290 292 294 294
302 302 302 303 303 302 302 302 307 307 307 306 305 305 304 302 297 291 288 292 297 293 283 277 277 284 285 285 287 287 288 283 282 279 278 279 280 277 272 273 280 282 283 287 288 288 284 285 283 286 288 292 295 295
302 302 302 303 303 303 302 302 305 306 305 305 304 303 302 301 298 291 294 298 294 290 286 275 276 278 284 284 282 288 285 285 284 279 282 281 280 279 275 279 281 283 288 288 287 286 286 286 286 288 289 293 294 294
301 302 302 303 303 303 303 303 305 305 304 304 303 302 298 293 290 291 298 296 292 288 280 276 273 270 282 286 284 286 286 275 284 277 281 281 278 275 279 279 282 286 287 287 288 287 284 284 284 287 288 292 293 293
301 302 302 302 302 303 302 305 304 303 302 302 298 291 286 290 298 296 289 285 284 283 283 279 280 277 283 284 283 279 281 278 269 279 283 278 277 282 282 283 284 285 288 289 286 284 283 283 286 288 289 292 292 294
301 302 301 302 302 302 305 303 303 302 300 293 289 286 292 298 290 285 279 279 278 278 281 281 279 279 284 277 277 281 274 277 275 276 276 278 275 277 283 284 287 287 288 289 289 290 289 288 289 289 291 291 290 290
301 301 301 302 302 304 303 303 302 296 293 293 292 294 292 287 281 279 274 277 277 277 280 278 278 280 281 285 279 283 276 278 275 281 277 276 278 277 282 286 287 287 288 289 290 290 289 289 289 289 290 289 288 289
301 301 301 300 302 304 302 301 301 299 298 294 289 285 285 281 274 274 274 272 272 278 279 280 279 283 281 284 282 281 277 273 282 278 277 276 279 283 280 284 285 289 289 289 290 290 290 289 289 288 288 287 288 287
301 300 301 302 303 302 302 301 300 300 294 288 283 278 279 275 277 279 280 278 280 281 282 281 281 281 282 278 282 275 280 282 277 275 272 276 281 282 282 286 287 286 287 287 288 288 288 288 287 287 287 287 287 285
301 301 301 302 302 302 301 301 300 294 290 285 283 276 278 280 281 280 282 282 281 286 282 280 278 280 275 275 278 280 278 272 275 274 276 278 281 281 281 285 286 285 285 285 286 287 287 287 285 284 282 281 281 282
300 301 301 302 301 301 300 298 294 291 286 284 280 277 281 279 280 282 283 283 285 284 280 280 275 272 273 275 273 272 272 269 274 274 277 280 280 280 281 285 287 286 285 285 284 281 281 280 279 279 280 279 279 279
301 298 301 301 301 300 297 292 290 285 284 279 277 283 281 282 281 283 285 284 286 281 275 274 270 271 275 270 272 276 273 275 276 278 277 283 282 281 280 280 286 287 286 285 284 284 283 284 282 281 279 280 279 279
296 300 301 301 298 293 289 288 285 283 279 280 279 281 284 284 284 285 286 286 283 279 278 274 277 277 270 270 273 276 279 281 280 278 279 281 281 281 280 280 285 285 285 285 284 284 284 283 283 284 283 281 279 279
299 299 301 300 295 289 285 284 284 275 277 281 282 283 283 284 285 285 286 286 284 282 278 272 269 269 275 277 274 277 281 286 285 281 281 282 282 282 281 278 279 283 284 283 281 282 284 284 284 284 284 283 282 282
300 300 300 297 294 286 282 282 285 281 278 280 282 280 281 282 284 284 284 283 281 276 273 272 275 277 278 279 277 278 281 282 280 280 281 281 282 275 279 278 279 278 278 276 274 280 277 279 279 279 279 280 280 280
295 294 293 289 285 283 281 280 279 280 280 278 280 280 280 282 282 282 282 283 276 270 272 276 278 279 279 278 281 282 282 282 281 282 281 276 280 277 275 273 272 277 276 275 274 275 278 277 277 275 273 279 279 279
291 292 287 288 283 281 279 281 279 281 279 278 279 280 278 278 279 278 279 281 276 275 276 278 276 276 276 279 280 277 280 281 281 281 284 283 278 275 275 275 272 270 270 270 271 272 273 273 274 274 274 276 278 276
292 289 285 285 280 279 276 281 278 279 276 275 276 275 275 275 275 277 278 278 274 273 274 274 271 270 273 272 276 276 277 275 276 278 279 279 279 275 273 273 273 268 268 271 271 271 270 277 275 274 273 274 273 273
289 282 279 278 278 274 278 275 278 277 276 275 273 271 272 272 274 270 269 269 271 271 272 271 270 271 271 269 270 271 272 273 273 270 270 272 271 274 277 276 276 273 272 272 270 270 269 271 275 272 271 270 271 270
281 277 279 274 277 275 274 273 274 274 272 273 270 269 269 270 265 266 267 269 267 267 267 267 268 268 268 266 269 270 269 271 271 271 270 269 269 268 269 270 274 273 271 268 270 270 269 268 269 269 269 269 270 270
274 274 275 273 273 275 274 273 273 272 272 270 268 267 266 264 263 267 269 268 267 266 266 269 270 268 269 269 270 270 270 268 270 270 269 267 268 268 264 267 267 269 270 270 267 268 268 267 267 267 269 270 275 272
274 271 274 277 275 274 273 274 275 274 271 269 267 266 266 266 267 270 269 267 268 266 264 265 267 270 271 270 269 267 265 262 266 266 266 264 264 265 265 266 265 268 268 266 267 267 267 268 268 268 269 269 267 267
275 274 272 272 272 273 272 272 273 273 271 271 271 266 270 271 271 270 269 267 265 263 264 264 264 265 267 264 262 264 263 259 260 262 265 265 262 261 261 261 263 273 266 264 264 264 264 265 267 267 268 269 271 269
273 275 276 272 272 272 271 272 271 271 273 272 271 269 269 270 267 267 268 266 262 267 268 268 264 259 262 260 260 259 258 261 266 265 264 264 262 263 258 258 258 258 258 260 270 272 268 270 271 271 271 269 268 268
273 276 273 271 271 269 268 268 269 268 270 270 271 269 269 268 266 264 265 264 265 265 261 260 258 260 262 262 261 261 258 256 259 264 262 261 261 259 256 258 260 260 258 258 261 262 270 266 265 261 261 261 261 262
274 274 271 269 267 266 265 265 266 269 267 266 265 268 267 265 267 264 262 260 260 261 263 260 258 255 260 259 259 260 262 258 255 256 256 256 256 256 259 261 262 260 258 260 262 263 263 262 259 260 261 260 260 264
272 270 270 268 266 264 263 263 263 263 264 265 264 263 265 266 266 264 261 259 259 262 266 261 262 263 258 257 256 257 268 258 257 257 256 257 259 262 263 264 263 260 260 263 262 262 261 260 261 261 262 260 260 259
267 267 266 266 264 263 265 265 263 263 263 262 262 260 259 263 266 264 260 258 261 262 262 260 258 257 258 258 257 257 262 256 260 271 272 274 275 275 271 265 267 267 265 264 262 261 258 257 259 259 259 259 259 260

GFSWCAN_sfc_thetae_099.txt.gz
Theta_e
303 303 303 303 303 303 304 303 304 305 305 305 308 309 310 309 308 296 293 295 291 285 286 288 287 283 282 281 279 281 280 280 280 275 273 272 273 276 274 276 276 276 277 277 276 273 271 288 287 282 286 289 289 290
303 303 302 302 302 303 304 303 304 305 305 305 307 311 310 310 304 299 291 295 295 288 286 290 289 289 287 286 283 281 279 280 281 277 273 272 274 269 272 270 279 277 281 279 278 278 287 287 287 289 290 289 289 290
303 303 302 302 302 303 304 304 305 305 305 304 306 311 309 309 308 299 293 294 293 287 286 287 285 288 289 288 289 282 281 284 282 281 276 276 274 275 270 271 273 277 281 281 281 282 283 286 289 292 293 291 291 291
303 303 303 302 302 302 304 304 305 304 304 304 306 311 309 309 308 301 295 295 292 288 283 283 290 286 289 289 289 288 286 286 284 281 275 274 277 279 275 276 275 278 278 277 278 279 283 285 284 284 286 290 292 293
303 303 303 302 302 302 304 304 305 304 304 306 307 309 308 308 304 299 297 296 295 290 282 282 285 286 288 288 287 287 286 283 280 277 275 275 279 277 276 276 274 278 278 276 275 280 280 281 283 287 286 288 291 293
303 303 303 303 302 302 304 304 305 304 304 304 309 308 307 305 303 296 290 294 295 291 284 278 284 284 286 287 286 286 285 282 280 279 278 279 281 277 273 272 279 280 281 282 280 282 283 285 286 287 286 288 290 292
302 303 303 302 301 302 304 304 304 303 304 308 308 306 305 304 297 291 287 293 297 293 283 277 278 285 284 284 285 284 285 282 281 278 277 279 279 276 272 273 279 281 282 284 288 287 285 284 283 286 286 286 290 292
302 302 302 302 302 303 304 304 303 303 308 306 305 304 303 302 299 292 294 298 295 289 285 275 277 282 284 281 281 288 282 281 280 279 279 279 280 279 275 278 279 281 284 287 287 288 287 285 284 287 288 288 290 291
302 302 302 302 302 303 304 302 305 306 304 304 303 302 298 294 290 290 298 295 293 289 279 276 274 272 283 283 282 284 282 273 281 276 278 279 277 274 279 279 280 284 284 286 288 288 286 283 283 287 288 288 291 292
302 301 302 302 303 303 303 301 304 303 302 302 298 291 286 291 298 297 290 286 285 283 282 277 280 277 281 281 280 279 279 276 270 278 280 278 276 281 281 281 283 284 286 288 286 285 283 282 284 288 289 291 292 292
301 301 301 302 302 302 300 304 303 302 301 293 288 286 293 298 291 287 282 280 278 278 281 280 279 278 283 277 278 279 273 276 274 273 273 269 273 277 281 282 284 287 288 288 289 289 289 288 288 288 290 290 290 290
301 301 302 302 302 301 303 303 302 296 293 292 291 293 292 287 284 281 277 277 277 277 279 278 278 279 281 283 279 281 271 274 269 278 276 271 276 276 281 283 284 286 288 289 290 290 290 289 289 289 289 288 288 289
301 302 302 302 300 301 303 302 301 299 297 294 291 286 286 282 275 276 273 271 274 278 280 280 279 281 282 281 278 277 276 273 281 277 273 274 278 280 279 283 284 288 288 289 289 290 290 289 289 288 288 288 288 287
301 301 302 299 301 302 302 301 300 300 294 287 284 279 280 273 277 277 278 278 279 280 281 281 280 280 282 277 279 269 277 281 275 272 271 275 279 281 281 285 287 286 287 287 288 288 288 288 287 286 286 285 285 282
301 301 300 300 302 302 301 301 301 294 291 285 284 280 278 279 282 279 276 279 280 285 282 281 279 280 277 275 276 277 277 274 275 272 275 276 280 280 281 284 286 285 285 285 285 286 287 287 285 284 282 279 279 280
299 300 295 299 302 301 301 298 295 291 286 283 278 279 281 281 280 276 278 281 285 284 282 281 275 271 271 274 273 272 270 268 273 274 276 278 279 280 280 283 287 286 285 285 285 282 281 279 278 278 278 278 277 278
299 293 300 302 301 301 299 292 290 285 283 279 280 283 281 281 280 279 283 283 285 281 275 274 270 271 274 268 269 273 271 274 275 278 278 280 280 280 280 281 285 287 286 285 285 284 284 284 284 283 280 279 279 278
293 300 301 301 299 294 289 287 285 283 279 280 279 281 283 283 283 283 283 285 282 277 276 272 276 270 270 269 271 275 276 273 276 278 279 281 281 280 280 281 282 286 285 285 284 284 283 283 283 284 284 283 282 281
299 300 300 300 296 289 285 283 284 276 277 281 282 283 284 284 286 285 286 283 282 281 277 272 270 269 274 276 274 269 278 277 283 280 281 281 281 281 281 277 281 284 284 279 279 281 282 282 283 283 282 282 281 281
301 300 300 298 294 285 282 281 285 279 277 280 282 281 282 282 283 283 282 281 279 274 273 270 274 276 278 278 277 277 283 283 280 280 280 280 280 274 278 277 279 279 278 277 276 280 277 277 277 278 278 278 277 278
295 294 293 289 285 284 281 279 278 279 280 278 280 281 280 283 282 282 280 281 277 271 272 276 278 279 278 277 281 281 281 281 280 281 281 276 280 277 274 272 271 276 276 275 274 275 279 276 275 273 269 277 278 279
291 293 287 288 283 281 279 281 279 280 279 278 279 280 279 279 279 279 280 280 275 275 276 278 275 276 276 278 279 276 280 281 280 281 283 282 278 274 274 274 273 272 271 271 271 271 272 272 272 272 272 272 275 273
293 290 286 285 280 279 276 281 278 279 277 275 277 276 275 276 275 277 277 278 276 273 273 274 271 269 273 271 276 276 276 274 276 278 279 278 278 274 272 273 272 269 268 270 270 270 269 276 274 273 271 271 270 271
290 282 280 279 278 274 279 276 279 277 277 276 274 272 272 273 275 273 273 274 272 271 272 271 269 271 270 269 270 271 271 273 272 270 269 271 271 273 276 275 276 273 272 270 269 269 268 269 274 269 268 267 267 268
282 278 279 274 277 276 274 274 274 275 273 273 271 270 270 272 271 269 271 274 269 269 268 268 269 269 269 266 269 269 269 271 271 271 269 268 268 268 268 270 273 272 270 267 270 269 268 266 266 266 267 267 267 269
274 274 276 275 274 276 275 273 274 273 273 272 270 268 269 270 269 270 272 271 269 268 268 271 270 268 270 269 270 269 270 267 269 270 268 266 267 268 265 267 266 268 268 268 266 267 267 266 266 265 267 268 273 269
274 272 274 277 275 275 274 275 276 275 273 271 269 268 270 270 268 271 271 269 269 266 265 268 270 271 272 269 268 268 265 262 264 266 265 264 263 263 264 265 265 267 267 265 265 265 265 265 265 264 265 265 265 266
275 274 272 272 273 273 273 273 273 273 273 272 272 269 270 271 272 271 269 266 264 265 266 264 264 268 269 266 264 267 262 260 262 263 265 264 261 259 259 260 263 273 264 263 263 262 263 264 264 265 265 265 266 264
273 276 277 272 273 273 272 274 273 272 273 273 272 270 270 271 268 267 267 266 263 267 269 268 264 263 263 262 262 260 259 264 265 265 264 263 261 262 257 257 257 257 257 259 270 271 267 269 271 272 271 267 265 262
274 277 274 273 273 271 269 268 270 270 271 271 271 270 269 268 266 265 265 264 267 266 264 264 265 263 264 266 262 261 257 255 258 264 263 262 262 259 256 257 258 258 257 258 260 260 270 266 265 260 261 261 260 260
275 275 271 270 267 267 267 267 268 269 268 267 266 268 267 266 267 266 264 263 262 263 265 262 258 255 262 259 260 261 263 258 255 256 256 256 255 256 257 259 259 258 257 259 260 261 261 260 258 259 260 259 259 262
273 270 270 268 267 267 266 266 267 266 266 266 265 264 265 267 267 267 262 262 261 262 266 264 266 264 258 256 256 257 269 258 257 257 257 257 258 261 262 262 260 261 261 262 263 260 258 257 257 257 259 258 258 258
268 268 265 267 266 264 265 265 265 264 264 262 262 260 259 263 267 266 261 259 263 265 265 262 258 260 260 258 257 258 262 255 260 270 272 274 276 275 270 264 263 263 263 262 259 258 257 256 257 257 257 257 258 258

GFSWCAN_sfc_thetae_105.txt.gz
Theta_e
307 306 304 302 302 303 304 304 304 304 304 305 305 306 306 308 308 301 293 295 291 284 284 286 285 281 282 281 279 280 280 280 279 276 273 272 273 275 273 274 274 274 271 272 275 273 269 286 285 282 285 288 289 289
306 304 303 302 302 303 303 304 304 304 304 304 305 306 306 307 305 300 292 294 294 287 284 288 287 287 286 285 281 280 278 279 281 277 273 272 274 268 272 270 276 274 277 276 277 277 282 288 286 288 288 288 288 288
304 303 302 302 302 303 303 303 304 304 304 304 305 305 306 307 309 300 293 293 291 286 284 284 284 287 289 287 287 281 280 282 281 278 275 275 274 275 270 271 272 276 280 280 280 281 283 284 288 289 285 285 286 288
302 301 302 302 303 303 303 303 303 304 303 304 305 305 306 306 310 300 293 294 292 288 282 282 289 285 288 288 287 286 284 283 282 279 274 274 276 277 274 275 275 277 279 278 278 279 280 284 284 284 285 286 286 287
302 301 302 302 303 303 303 303 304 304 304 304 305 306 305 307 306 299 296 295 295 290 282 282 285 287 287 287 286 285 284 281 279 277 275 274 278 276 275 275 273 277 277 277 276 279 279 280 282 285 285 285 285 285
302 303 303 303 304 304 304 304 304 304 304 304 305 306 305 307 303 297 291 294 294 292 284 279 284 284 285 285 285 284 283 281 280 278 277 277 280 276 272 272 278 278 279 280 279 280 282 283 284 285 284 285 285 285
303 303 303 303 303 303 303 303 304 304 304 304 305 305 305 306 300 293 290 292 295 292 284 279 279 283 283 284 283 282 282 281 280 278 277 277 278 275 271 272 278 279 280 282 284 284 281 282 281 284 284 285 288 287
302 302 303 303 303 303 303 303 304 304 304 305 305 305 304 305 300 293 294 298 294 288 286 277 278 279 284 281 279 282 279 279 279 279 278 277 278 277 274 277 277 279 282 283 284 287 285 284 282 284 285 288 289 290
302 302 303 303 303 304 303 303 303 304 304 305 304 302 302 297 292 293 298 296 292 289 280 278 277 276 284 281 281 280 280 273 281 276 278 278 276 274 278 278 278 280 282 283 285 287 286 285 283 283 287 290 290 290
302 302 303 303 303 303 303 303 303 303 304 303 301 292 286 292 300 298 293 289 287 285 282 278 280 278 281 279 278 277 279 274 270 277 279 277 275 279 279 280 280 280 283 285 284 282 284 285 285 287 289 290 290 289
303 303 303 303 303 303 303 303 303 303 302 296 287 286 293 299 293 288 284 283 283 281 281 279 279 278 282 276 275 279 275 274 265 272 272 268 271 275 278 279 281 283 284 285 285 287 288 288 287 287 288 289 289 289
303 303 304 304 303 303 303 303 303 299 296 292 292 295 293 289 285 283 281 279 279 279 278 277 278 280 281 282 278 278 271 271 267 276 275 271 274 274 277 279 281 282 283 284 287 289 288 290 289 289 289 288 288 288
302 303 303 303 303 303 303 303 302 301 298 296 290 286 286 283 278 277 273 272 271 277 278 279 279 281 280 279 278 275 270 271 278 275 273 273 275 277 275 280 281 283 285 285 288 289 290 289 289 289 288 288 288 286
301 302 302 302 302 302 302 302 301 300 295 287 284 280 281 277 278 276 277 276 279 281 281 282 280 278 280 276 277 270 276 278 274 270 270 273 277 278 278 282 286 283 285 287 287 288 288 289 288 287 284 284 282 279
301 301 301 301 301 301 302 301 302 297 291 283 283 278 278 278 279 274 275 280 282 285 283 281 279 279 274 274 276 278 275 272 273 271 274 274 277 280 279 284 282 285 286 286 287 287 287 287 284 282 279 278 277 277
300 299 298 301 302 302 301 300 295 292 285 280 278 277 281 279 278 275 279 281 285 285 281 281 275 272 271 275 274 270 269 268 273 274 275 275 278 280 281 286 284 285 286 286 285 282 281 278 277 278 280 279 277 277
297 292 300 301 301 300 298 292 290 285 283 279 279 282 279 278 278 279 283 283 287 284 277 275 272 272 275 269 269 274 271 274 274 273 275 278 280 280 282 285 283 283 284 286 285 283 283 283 280 282 283 284 284 283
291 297 301 301 297 294 288 287 285 282 278 278 280 281 283 282 282 282 282 286 283 279 278 275 277 272 271 271 271 275 274 275 275 280 277 279 279 279 282 283 286 285 280 284 286 284 283 283 282 282 280 282 280 278
296 299 299 299 295 288 284 283 284 277 277 281 282 283 284 284 284 283 284 281 281 281 278 273 271 271 274 275 274 270 278 282 281 279 279 279 279 280 280 280 285 286 286 284 282 282 282 283 282 281 279 278 277 276
301 300 299 297 293 285 281 281 284 278 277 280 282 281 282 282 282 283 282 281 280 276 274 272 276 277 277 278 276 277 282 281 282 279 279 278 278 275 277 279 284 284 284 282 280 282 279 277 276 276 276 276 275 276
296 295 294 290 285 284 281 279 279 280 280 279 280 282 281 283 282 282 281 282 281 274 275 277 278 278 276 277 280 281 280 281 281 281 280 278 278 276 273 271 278 280 280 276 274 274 279 274 274 272 270 275 276 275
293 295 288 288 282 281 279 279 277 279 278 278 279 281 280 279 280 281 280 280 277 280 279 280 278 277 277 278 279 276 280 280 280 282 284 283 279 279 279 277 277 277 274 272 272 272 271 271 271 270 270 270 273 270
293 290 286 284 280 279 276 280 276 279 278 276 278 277 276 276 276 279 281 280 280 279 279 277 274 273 276 273 277 277 277 277 278 278 278 277 276 272 272 276 277 273 269 271 270 270 268 274 273 270 268 268 268 268
290 283 281 279 278 273 279 276 278 276 277 276 274 272 273 275 277 277 275 278 280 276 276 275 276 275 274 274 273 272 272 273 272 270 268 274 272 273 275 275 274 272 274 274 273 268 267 268 272 267 266 265 265 265
283 278 279 275 276 275 272 273 274 275 273 274 272 271 272 275 275 272 274 278 275 275 275 275 276 277 278 273 270 270 268 271 273 271 267 267 267 267 268 270 271 270 269 267 268 268 266 265 265 265 264 264 264 264
275 272 274 275 274 273 273 271 272 273 273 272 271 271 272 273 272 273 275 276 273 273 274 276 276 275 273 272 272 270 270 267 270 271 266 266 268 270 266 267 266 267 267 266 266 266 265 264 263 262 263 264 270 264
273 271 274 278 276 275 274 275 276 276 274 272 270 270 272 273 274 274 272 272 273 272 273 276 276 278 275 270 268 267 265 263 266 268 266 265 262 262 265 266 265 267 265 264 264 265 264 263 263 262 261 261 261 262
274 274 273 273 274 274 273 273 274 276 275 274 274 272 274 276 274 269 268 268 268 268 269 268 269 273 272 270 268 267 265 265 265 265 266 265 261 259 259 263 265 272 261 261 261 260 262 262 262 262 262 263 263 261
273 275 277 273 273 273 272 274 274 273 274 275 276 274 274 271 267 266 268 268 268 269 271 269 266 268 266 265 264 266 267 268 268 266 265 263 261 262 256 256 257 257 256 259 270 269 266 268 269 269 262 261 260 258
274 277 274 274 274 271 268 269 270 271 272 272 273 271 270 269 267 267 268 267 269 270 270 271 269 271 269 269 266 263 260 259 260 266 266 264 264 260 256 257 257 256 255 257 258 258 270 263 263 258 257 258 258 258
276 274 271 270 267 267 268 269 270 271 271 270 270 270 269 267 268 267 267 268 268 269 269 268 267 269 271 270 269 267 265 261 256 256 261 263 261 259 258 256 256 256 257 257 258 258 258 257 255 255 255 255 256 258
272 271 271 268 267 268 269 270 270 270 269 270 268 268 267 268 269 268 266 267 268 269 272 271 270 268 264 263 263 263 273 264 260 261 263 262 260 258 258 257 256 258 258 258 258 257 255 254 254 254 255 253 255 256
270 269 269 269 268 268 269 270 268 268 269 268 267 265 265 267 270 269 264 265 268 270 271 268 265 265 264 263 264 267 266 263 265 271 273 273 273 269 262 260 260 260 260 259 257 256 254 253 253 252 253 253 255 257

GFSWCAN_sfc_thetae_108.txt.gz
Theta_e
312 312 310 309 307 305 303 303 304 304 304 304 304 306 307 307 309 304 297 298 295 290 288 288 288 286 287 287 285 285 285 285 285 283 284 284 282 283 281 282 280 280 279 279 279 277 276 289 290 286 290 292 292 293
311 311 310 308 306 304 303 303 303 304 304 304 304 305 306 306 306 302 295 297 298 292 288 290 290 290 289 288 288 286 284 286 289 286 284 284 282 281 282 280 284 280 284 284 283 284 288 293 292 293 293 292 291 290
311 310 309 307 305 303 303 303 303 304 304 304 304 305 305 305 307 301 296 297 296 291 289 289 287 290 292 291 291 288 287 288 287 288 287 286 283 285 281 281 283 284 286 285 285 288 288 290 293 294 291 289 290 290
309 308 308 306 304 303 303 303 303 304 304 304 304 305 306 305 306 300 297 297 296 292 287 286 291 289 292 291 291 290 289 288 288 288 287 286 283 284 284 282 282 286 286 286 286 288 287 289 291 291 288 290 290 290
308 307 306 304 303 303 303 303 304 304 304 304 304 305 306 306 306 301 299 298 298 295 287 285 288 290 290 290 289 290 289 288 288 286 286 285 285 283 283 282 281 285 286 285 285 288 287 288 289 289 288 288 289 289
307 306 304 303 303 303 303 304 304 304 304 305 305 305 305 304 306 299 292 298 298 297 289 283 288 287 289 289 289 288 288 287 288 287 286 285 284 284 281 281 286 286 287 287 286 287 287 288 289 289 287 288 289 290
305 303 303 303 303 304 303 304 304 304 304 305 305 305 304 305 301 295 292 297 298 296 289 282 283 287 288 288 288 288 288 287 288 286 285 285 284 284 282 280 286 285 286 286 288 289 286 287 286 288 288 289 291 292
302 302 303 303 303 304 304 304 304 304 304 304 305 305 304 303 299 294 295 298 297 292 290 282 281 283 288 285 284 287 286 286 286 285 285 283 283 282 279 284 283 284 286 287 288 290 289 289 288 288 289 291 290 292
302 302 303 303 303 303 303 304 304 304 304 304 304 304 300 297 293 294 299 298 297 293 287 284 282 281 287 285 286 286 286 283 285 283 283 283 282 278 284 285 284 284 286 287 288 289 289 288 287 288 289 290 290 290
302 302 302 302 302 303 303 303 304 304 303 304 301 293 286 293 301 299 294 292 292 291 287 284 285 281 285 284 282 283 284 282 279 282 284 280 280 285 285 285 286 286 288 289 286 285 287 286 287 288 289 290 290 290
301 301 302 302 302 302 303 304 304 303 303 297 290 287 293 301 294 290 286 287 288 285 285 284 284 281 285 282 282 283 280 280 277 280 279 278 278 282 285 285 285 287 289 290 290 290 290 289 288 288 288 290 290 290
302 302 303 303 303 303 303 303 304 300 297 292 292 295 294 290 286 284 283 285 284 283 281 282 282 285 283 286 283 281 279 277 276 281 277 276 281 282 282 284 285 287 288 289 290 290 290 291 291 289 288 288 288 289
302 302 303 303 304 304 304 304 303 301 299 296 291 285 284 285 281 280 277 279 281 281 281 282 281 283 283 285 282 280 277 276 281 277 277 281 282 281 282 284 286 288 289 289 289 289 290 290 290 289 288 288 288 287
302 303 303 303 304 304 303 303 302 300 296 287 284 281 282 280 282 283 283 281 283 283 283 286 282 284 284 282 281 278 280 280 275 273 276 282 283 283 283 285 286 286 288 288 289 289 289 289 289 289 288 287 284 282
302 302 303 303 303 303 303 302 301 298 291 285 284 282 281 283 281 280 282 283 284 286 286 283 283 283 281 279 281 279 275 274 276 277 282 284 283 283 284 286 286 287 288 288 288 287 287 288 287 286 283 282 282 281
301 301 299 302 302 302 301 301 296 292 286 283 281 279 281 280 278 280 282 282 287 287 287 286 281 279 278 280 276 276 275 274 281 282 284 282 283 285 286 286 286 288 288 288 288 287 287 285 283 282 284 285 284 281
298 294 301 301 301 301 301 293 290 285 285 281 280 284 282 282 281 281 284 284 288 286 283 281 278 279 279 276 275 279 277 283 283 282 282 284 285 285 287 287 287 287 287 288 287 285 285 284 284 284 284 286 286 286
293 298 301 302 300 295 288 287 285 284 279 281 280 282 284 284 283 284 285 287 286 283 283 282 280 276 277 276 277 281 282 280 280 282 282 283 285 286 287 286 286 286 286 287 286 286 285 285 285 285 283 283 282 282
297 299 301 300 296 289 284 284 285 279 280 282 284 285 285 284 284 285 287 286 284 284 281 281 279 278 279 281 282 279 281 283 281 282 283 284 285 285 285 286 286 285 285 286 286 286 286 285 284 284 283 282 281 281
300 300 300 298 294 286 282 282 285 281 280 281 283 282 283 282 283 284 284 283 283 283 280 279 280 280 281 282 281 282 284 285 283 282 282 282 284 283 284 285 285 286 286 285 284 284 282 281 280 281 280 280 279 280
297 295 293 290 285 284 282 281 280 281 282 280 282 283 282 284 282 283 283 283 282 280 280 280 281 281 280 281 282 284 284 285 286 286 284 282 282 283 281 283 284 284 283 282 281 281 282 280 280 279 279 279 279 279
293 294 288 288 283 282 279 280 280 282 280 280 281 283 281 281 281 283 283 283 281 283 282 281 281 281 281 282 282 282 284 283 284 286 286 284 281 280 280 280 281 280 281 281 281 281 280 279 278 277 278 278 277 277
293 290 285 285 280 280 277 281 277 280 279 278 280 278 277 279 280 281 283 284 283 282 281 280 279 278 279 278 280 280 281 283 282 283 283 282 282 281 282 281 282 281 279 279 279 279 278 278 279 277 276 275 275 275
291 284 282 280 279 275 279 275 279 278 279 277 276 274 275 277 278 280 280 280 282 280 279 278 280 278 279 280 280 279 277 279 278 277 278 280 279 278 279 279 279 278 278 277 278 277 276 276 277 275 273 273 273 272
283 279 280 275 276 273 272 274 274 275 274 275 274 273 274 276 277 276 277 281 278 279 279 279 282 284 283 278 276 276 273 279 280 278 274 276 275 274 274 274 274 273 274 276 275 275 273 272 272 272 271 271 271 271
276 275 277 272 275 272 272 272 274 274 274 274 273 273 273 275 274 275 277 278 277 278 278 280 281 279 278 279 277 276 277 274 278 277 274 274 276 279 276 276 275 273 271 273 274 273 272 271 270 269 270 269 271 268
273 270 274 278 276 275 274 275 277 276 274 272 272 271 273 273 275 276 274 273 275 275 279 282 282 284 280 274 272 272 271 272 275 274 270 268 268 270 275 276 273 273 270 271 272 272 271 270 269 269 268 269 268 268
272 272 271 272 272 273 272 274 275 275 276 275 275 272 275 277 277 272 271 270 270 272 272 272 275 277 276 273 271 269 268 268 268 269 269 269 266 266 268 271 271 273 269 269 269 269 270 269 269 268 268 268 267 267
270 275 276 271 273 273 271 274 275 274 275 276 277 275 275 271 268 269 269 269 271 273 273 271 270 270 269 269 270 270 270 272 274 273 272 270 269 269 264 266 266 266 267 269 273 270 268 269 270 269 266 266 265 264
275 277 276 274 273 270 268 269 271 271 273 273 274 272 271 270 268 268 269 270 273 273 273 272 272 274 272 271 268 268 266 266 268 275 273 271 271 268 265 265 265 264 264 266 267 267 272 267 267 264 263 263 264 265
276 275 271 270 268 268 269 270 271 272 272 271 272 272 271 270 269 269 270 270 271 271 272 271 272 274 273 272 272 271 271 267 264 264 266 267 266 266 265 265 265 263 264 265 265 266 265 264 263 262 262 261 260 262
273 271 271 268 267 269 269 271 271 271 271 271 270 270 270 271 271 270 268 270 271 272 274 273 273 271 272 271 271 272 275 267 266 267 267 266 267 266 265 264 262 264 264 264 264 263 261 261 262 261 261 260 260 260
270 270 270 269 268 268 269 271 270 270 271 270 269 268 268 270 272 270 266 267 271 273 272 271 269 268 268 268 268 270 269 266 268 274 275 274 272 268 264 264 264 264 264 264 263 262 260 259 260 259 258 257 259 260

GFSWCAN_sfc_thetae_111.txt.gz
Theta_e
312 312 313 313 312 310 308 306 304 304 304 304 305 306 305 307 307 306 301 305 300 293 292 291 291 289 290 290 287 288 288 288 287 284 286 286 284 285 283 285 283 282 280 281 282 279 278 292 291 287 291 294 294 294
312 312 312 312 311 309 308 306 304 304 305 304 305 305 305 306 305 304 297 304 305 297 292 293 292 292 291 291 291 290 288 289 291 288 288 289 285 286 284 282 287 281 286 285 285 286 291 294 294 295 295 294 294 292
311 311 312 311 311 309 307 305 304 304 305 304 305 305 305 306 307 302 300 300 298 295 293 291 290 292 294 293 294 291 291 292 290 292 292 290 285 288 283 284 285 287 290 285 286 290 290 293 295 295 295 293 292 292
310 311 311 311 310 309 307 305 304 304 304 304 305 305 305 306 306 303 300 301 301 297 291 289 294 291 294 294 293 293 292 292 292 293 291 289 286 289 286 285 285 288 288 287 287 290 290 291 293 294 292 291 291 292
310 310 310 310 309 308 306 304 304 304 304 304 305 305 305 306 307 306 302 301 302 297 291 289 290 292 293 293 292 292 292 292 292 289 288 287 289 286 287 285 284 288 287 286 286 292 291 291 293 292 290 290 291 290
309 309 310 309 308 307 305 304 304 304 304 305 305 305 305 306 305 301 295 300 301 301 293 287 290 289 291 292 292 291 292 291 292 291 289 289 287 287 284 283 290 291 291 293 290 291 291 291 291 291 290 289 290 290
309 309 309 308 307 306 304 304 304 304 304 305 305 305 305 304 304 297 294 299 302 301 293 286 286 289 290 290 291 291 291 291 291 290 287 288 287 286 285 282 289 290 290 290 291 290 288 290 289 290 290 290 291 292
308 309 308 307 306 304 304 304 304 304 304 304 305 305 305 303 300 296 298 300 301 297 294 287 285 285 290 287 287 291 289 289 289 289 288 285 286 285 281 287 288 288 289 289 290 292 291 291 290 289 291 291 290 291
308 307 306 305 304 303 304 304 304 304 304 305 305 304 301 298 293 294 299 299 299 296 291 288 285 284 288 288 289 288 289 285 288 285 285 286 284 281 286 287 288 287 287 288 290 291 290 289 289 289 290 290 289 290
306 305 304 303 303 303 304 304 304 304 304 304 301 294 288 294 299 298 293 290 291 293 291 286 290 283 287 286 285 286 287 285 282 285 286 282 282 288 290 290 290 289 290 291 288 287 288 288 288 289 289 290 290 290
303 303 302 302 303 303 303 304 304 304 303 298 292 289 297 300 296 292 285 284 287 286 289 289 288 283 288 285 285 287 284 284 279 283 281 282 281 287 289 289 289 290 291 291 292 292 292 291 289 289 289 290 290 290
302 302 302 302 302 302 303 303 303 300 297 296 293 297 295 291 288 284 283 286 285 284 288 286 285 288 286 289 286 283 283 280 279 284 280 278 286 285 285 287 288 290 291 291 292 291 291 291 291 291 289 289 289 289
302 302 302 302 302 303 303 303 303 303 299 296 292 286 285 285 280 281 280 283 284 287 286 286 284 285 285 288 284 283 280 279 283 279 279 284 286 284 285 287 287 290 291 291 291 292 292 291 291 289 288 289 289 288
301 301 301 302 303 303 303 303 303 301 295 288 284 281 281 282 283 286 288 289 289 288 286 288 284 286 286 285 284 282 283 282 277 276 278 287 288 285 286 288 288 288 289 290 290 290 290 290 289 290 290 290 288 285
301 301 302 302 303 303 303 303 303 298 291 285 285 282 283 287 285 286 288 287 288 289 288 286 286 286 284 282 284 281 276 276 279 280 287 289 287 285 286 288 288 289 290 289 290 289 289 289 289 288 288 286 284 283
302 302 301 302 303 303 303 303 300 294 286 285 284 282 284 285 282 283 285 286 289 289 289 289 284 283 282 284 278 279 278 277 284 286 289 286 285 286 286 288 289 290 290 289 289 288 287 287 287 287 285 286 286 284
301 296 301 302 303 304 303 296 288 285 285 283 283 285 286 286 287 286 286 287 291 288 285 286 281 283 283 280 279 283 281 286 290 287 286 287 286 286 288 288 289 289 289 289 288 288 288 287 285 285 284 286 287 287
296 300 302 303 301 294 288 287 285 285 282 284 283 284 285 286 286 285 287 288 288 288 286 286 284 278 280 278 280 285 285 285 286 286 285 287 288 289 288 288 288 288 288 288 287 287 287 286 285 286 286 284 284 283
299 301 302 300 295 289 285 284 285 282 282 284 285 285 285 286 287 288 287 288 287 287 285 284 283 283 283 285 287 286 286 285 283 284 285 288 289 288 288 286 286 287 287 287 287 287 287 287 287 286 285 284 282 283
301 301 298 298 296 288 284 283 287 284 281 283 284 284 284 284 286 287 286 286 285 285 283 283 284 285 284 286 286 285 287 287 284 282 283 286 288 286 286 286 287 287 287 287 286 287 285 283 283 283 283 282 281 281
299 298 296 291 286 286 285 284 283 284 283 282 284 284 283 285 283 283 283 285 283 284 284 285 284 283 282 283 284 288 286 287 286 286 284 283 285 285 285 286 287 287 286 285 283 283 283 281 282 281 282 281 281 280
291 294 288 289 285 283 281 283 283 284 283 283 282 284 282 282 282 283 284 283 284 286 286 284 283 283 282 283 284 286 286 286 287 288 288 286 283 283 283 284 284 283 283 283 282 282 283 282 281 280 279 280 279 278
293 290 287 285 282 281 278 283 280 281 280 279 282 280 280 282 282 285 283 285 286 285 283 283 282 283 283 282 283 283 285 286 286 286 286 285 285 284 283 283 284 283 281 282 283 283 282 280 280 279 278 277 277 276
291 285 284 282 281 277 281 278 281 280 281 280 279 276 278 279 280 282 282 283 285 282 281 280 282 281 282 284 283 282 281 283 282 283 283 283 282 282 283 282 283 283 282 283 282 280 279 278 279 277 276 275 275 274
283 280 282 276 279 277 275 276 277 278 276 277 276 275 276 278 279 279 279 283 282 282 282 282 284 285 285 283 280 279 278 283 283 281 278 282 279 279 278 278 277 277 277 279 278 278 276 276 275 275 273 273 272 272
278 278 278 278 277 277 276 275 275 275 276 275 276 276 276 277 277 277 280 283 282 284 282 283 285 284 283 283 280 279 279 279 283 280 276 280 281 281 278 277 276 275 275 277 278 276 274 274 273 271 272 271 272 270
274 275 277 279 279 278 277 278 279 278 274 273 274 273 275 275 276 280 276 275 277 278 284 286 287 286 282 278 276 276 276 276 278 277 274 273 273 275 281 280 278 275 274 275 276 275 273 272 272 271 270 271 270 269
276 276 274 276 276 277 275 276 276 276 278 277 276 274 276 278 279 274 273 272 273 275 277 278 281 283 281 278 274 272 271 271 271 272 272 272 271 272 273 273 274 276 273 273 273 273 273 272 271 270 269 269 268 268
275 277 277 272 273 274 273 276 277 276 277 278 279 277 276 272 271 271 271 271 273 275 275 274 273 274 273 273 273 273 273 275 277 276 275 272 272 270 270 271 271 271 273 273 275 272 269 271 271 270 267 267 266 266
276 279 277 273 269 270 270 271 272 273 274 274 275 273 272 271 270 270 271 272 274 276 276 275 274 275 273 273 270 270 270 271 274 279 277 275 275 270 269 269 269 268 270 271 270 272 274 270 269 266 266 266 266 266
278 276 272 271 269 269 270 271 273 274 274 273 274 274 272 271 271 271 272 273 273 274 275 275 276 276 275 273 274 272 272 270 269 270 272 272 270 269 269 269 268 268 269 269 269 269 268 266 265 265 264 262 261 263
275 273 272 270 269 270 271 273 273 273 273 274 272 272 271 273 273 271 271 273 273 274 276 276 275 275 277 277 277 278 278 270 270 271 271 271 270 269 268 267 267 268 268 267 267 265 264 264 264 264 263 261 260 260
272 272 271 270 269 269 271 273 273 272 273 272 271 271 271 272 273 272 269 269 273 276 275 275 273 274 273 273 273 273 273 271 273 276 276 275 273 270 267 267 267 267 267 266 265 264 262 261 262 260 259 257 258 259

GFSWCAN_sfc_thetae_114.txt.gz
Theta_e
312 312 313 313 313 313 312 310 308 305 304 304 304 305 306 306 307 303 300 304 299 292 292 291 292 288 287 287 284 286 284 284 283 280 280 279 278 280 277 281 278 278 274 274 276 273 271 289 288 283 287 290 292 291
311 312 312 312 312 312 312 310 309 306 305 304 304 305 305 306 307 304 297 304 304 296 290 293 292 292 291 290 288 287 285 286 287 283 282 282 279 278 279 274 282 276 281 280 280 280 288 291 289 291 292 290 291 289
311 311 312 312 312 312 311 310 308 306 305 304 304 304 305 305 306 305 299 302 300 294 292 289 288 291 293 292 292 286 287 289 287 288 284 283 280 282 275 277 280 282 285 280 282 285 287 290 291 292 292 289 289 289
310 311 311 311 311 312 311 310 308 306 305 304 304 305 305 306 306 305 300 301 299 296 288 286 293 289 292 292 292 291 289 290 289 287 284 282 280 284 280 280 279 282 284 282 282 285 286 288 289 291 290 290 289 289
310 310 310 311 311 311 310 309 307 306 305 304 304 305 306 306 306 305 304 301 301 294 287 286 289 291 291 291 291 291 289 288 286 283 282 281 283 281 281 279 278 284 282 281 280 287 286 286 289 291 289 288 288 287
309 309 310 310 310 310 309 308 306 305 305 305 305 305 305 305 305 301 294 300 301 297 293 284 288 287 288 290 289 289 289 287 287 286 284 284 285 281 277 277 285 285 286 287 285 287 287 288 288 289 288 287 288 287
309 309 309 309 310 310 309 307 305 305 305 305 305 305 305 305 302 296 294 297 301 299 291 286 283 286 288 287 288 287 288 287 286 285 282 283 282 281 278 277 285 286 286 286 287 287 285 287 285 287 287 288 290 289
308 309 309 309 309 309 308 306 305 305 305 304 305 305 305 304 301 296 298 300 301 295 293 285 282 281 287 283 283 288 285 285 285 284 283 281 281 281 277 283 284 285 286 286 286 288 288 288 287 287 288 288 288 289
308 308 308 309 309 308 307 305 304 304 304 305 305 304 302 298 293 295 298 298 297 294 287 285 280 278 286 285 285 284 285 280 284 281 282 283 280 277 281 283 284 284 285 285 287 288 287 286 286 286 287 287 288 289
307 307 308 308 308 307 305 304 304 304 304 304 300 294 289 294 300 299 293 288 288 289 288 283 286 280 284 283 282 282 283 281 276 281 283 279 279 285 286 287 286 286 286 287 286 284 285 285 285 286 286 288 289 289
307 307 307 307 306 305 304 304 304 304 303 297 292 289 296 300 295 291 285 283 284 283 286 286 285 280 285 280 281 284 278 279 271 278 276 276 277 281 285 287 286 287 287 289 288 288 288 288 286 286 287 289 290 290
306 307 307 306 304 303 303 304 304 300 297 296 294 297 294 290 288 284 283 283 283 281 285 285 284 284 283 286 283 281 277 276 273 281 274 273 280 281 282 284 285 286 287 288 289 288 289 289 288 287 287 289 289 289
306 306 305 304 303 303 303 304 304 302 299 296 292 286 285 285 280 280 277 279 281 284 282 283 280 282 283 284 283 282 278 275 281 274 274 278 283 282 279 284 284 287 288 288 288 289 288 288 289 288 288 289 289 288
306 304 303 302 302 302 303 303 303 300 295 286 284 280 280 279 280 281 280 283 285 284 284 286 281 283 285 282 283 279 282 279 272 271 274 281 284 282 282 284 285 286 288 288 288 288 288 287 288 289 289 289 288 285
303 302 302 301 302 302 302 303 302 299 291 284 285 280 280 282 282 283 282 282 284 287 287 283 282 284 282 281 283 281 274 271 275 275 282 283 282 282 283 285 285 286 287 287 287 286 287 287 287 288 286 284 282 280
302 301 299 301 302 302 302 302 300 296 288 285 284 283 285 283 282 277 279 280 285 287 288 285 282 281 280 283 277 274 272 271 277 282 285 282 282 283 283 285 286 287 287 287 286 286 285 287 286 287 282 281 281 280
300 295 300 301 302 302 302 298 295 288 283 283 282 285 284 283 284 282 284 284 289 287 282 282 279 277 279 273 273 278 275 281 284 284 283 282 282 283 285 286 287 287 286 286 286 286 287 287 287 281 280 281 282 283
295 299 301 302 301 300 297 287 285 284 282 284 283 283 283 284 283 284 286 288 288 284 284 283 280 274 275 273 274 279 283 283 283 283 283 283 283 284 286 285 286 286 285 285 286 286 283 280 280 281 280 280 280 277
298 299 302 302 298 289 285 283 285 282 283 284 285 286 285 283 284 285 286 287 289 286 281 283 282 278 278 279 281 285 284 283 282 282 284 285 285 285 285 285 285 285 284 283 283 283 282 282 282 282 281 279 278 277
301 302 301 300 297 287 283 282 285 283 280 283 285 283 283 280 283 285 285 286 286 284 282 280 282 282 281 281 281 282 284 285 284 282 283 285 286 283 284 284 284 284 284 283 283 286 281 280 280 280 279 280 278 277
299 299 298 291 286 286 285 283 283 284 282 280 284 281 280 282 282 283 282 286 282 282 283 281 281 281 281 280 282 285 285 285 284 284 284 284 285 284 283 282 284 284 283 284 283 283 283 280 278 276 273 278 278 277
293 295 288 289 284 283 281 282 282 283 282 282 282 280 279 278 277 282 283 281 282 285 284 282 281 281 281 281 282 284 285 285 285 286 288 287 283 284 283 284 284 282 282 283 283 282 282 281 276 275 274 273 275 273
293 291 285 285 282 279 278 281 276 278 275 279 280 277 278 279 280 283 280 282 283 285 282 282 281 281 281 280 282 282 284 285 284 284 285 284 285 284 284 284 285 284 282 281 282 278 274 279 279 274 274 272 271 271
291 286 284 282 280 276 279 276 279 275 278 276 276 274 275 275 280 279 279 280 281 282 282 281 282 280 281 281 280 279 279 283 283 283 284 283 282 282 283 283 283 283 282 281 277 274 274 274 278 272 271 269 268 268
283 280 282 277 278 273 269 274 276 278 276 278 276 273 273 278 276 278 277 281 281 281 283 283 283 284 283 282 279 277 276 282 282 280 277 283 280 279 278 278 278 277 278 279 277 274 271 271 270 269 268 268 266 265
278 277 279 273 275 273 273 271 272 276 276 276 277 276 276 276 276 276 277 281 283 283 281 283 284 284 283 283 280 278 278 280 282 278 277 280 282 281 278 277 276 275 275 275 275 272 270 269 268 267 266 267 273 263
275 273 276 279 277 277 275 276 277 276 273 272 273 272 272 273 274 276 273 274 276 277 283 286 287 286 284 279 277 276 274 277 278 276 274 274 274 277 280 279 278 275 273 273 273 272 270 268 267 266 265 263 262 262
276 276 270 274 273 273 272 272 272 272 272 274 275 270 271 273 274 271 271 270 271 275 278 280 286 284 281 279 276 273 272 273 273 273 274 273 272 274 274 275 275 277 272 270 270 269 269 268 266 265 264 262 261 260
273 276 275 268 271 272 271 272 272 272 274 275 272 272 272 271 269 270 270 271 273 276 277 276 274 275 274 274 274 275 276 277 278 277 275 271 271 270 271 273 273 272 272 272 276 270 267 267 266 264 262 262 260 259
275 277 271 269 268 271 269 270 271 271 273 272 272 271 270 269 268 269 270 271 273 275 276 276 275 276 274 274 272 273 272 273 276 280 277 274 274 270 270 270 269 269 269 269 270 274 276 266 266 260 260 259 259 259
275 273 270 268 266 268 270 271 272 274 272 271 272 270 269 268 269 270 270 272 274 275 275 275 276 277 275 274 275 274 273 272 271 274 275 272 271 270 269 268 268 267 267 268 268 266 265 261 260 259 259 257 258 258
272 267 267 265 264 268 268 272 273 273 273 271 270 272 271 273 272 270 270 272 274 275 278 277 276 275 278 278 277 278 279 271 272 273 272 271 270 269 268 267 267 268 267 265 264 262 262 260 260 258 258 254 254 255
270 269 267 267 266 267 270 273 273 270 271 269 267 269 271 271 273 270 269 269 272 276 276 275 275 276 276 275 273 274 274 272 274 276 276 275 273 270 268 267 267 267 265 264 262 261 260 259 258 255 255 254 254 254

GFSWCAN_sfc_thetae_117.txt.gz
Theta_e
313 313 313 313 313 313 313 314 312 309 307 306 306 306 306 306 306 300 295 299 295 291 290 288 289 285 285 283 280 283 282 282 280 278 277 276 275 278 275 278 277 276 272 271 273 271 270 288 287 282 285 289 291 290
312 312 312 312 312 313 313 313 312 309 307 306 306 305 305 305 306 303 297 303 303 295 290 291 291 290 289 288 285 284 283 283 283 280 278 277 277 273 275 272 280 276 279 278 278 277 284 288 287 290 290 289 290 290
311 312 312 311 312 312 312 313 311 309 307 306 305 305 305 305 306 305 299 302 300 294 293 287 287 289 291 290 291 284 284 287 285 286 280 280 278 279 274 275 276 280 283 280 280 281 285 288 290 291 291 289 288 288
311 311 311 311 311 312 312 312 311 309 307 305 305 305 305 306 306 306 297 300 299 295 285 285 291 287 290 290 290 289 288 288 287 285 278 277 278 282 278 279 278 280 282 280 280 283 284 287 289 290 288 288 288 288
310 310 310 310 311 311 311 311 311 309 307 306 305 305 306 306 307 305 302 301 302 293 284 284 287 289 289 289 289 289 288 286 283 280 278 279 281 280 278 278 276 281 281 280 279 283 284 284 287 289 287 287 288 287
310 310 310 310 310 310 311 311 310 308 306 305 305 305 306 306 306 301 294 300 301 297 287 279 286 285 287 288 287 287 287 285 284 282 282 282 284 280 275 275 282 282 284 285 284 285 286 286 287 288 287 287 287 287
309 309 309 309 310 310 310 310 309 307 306 305 305 305 305 306 298 296 294 297 300 298 290 285 280 284 286 286 286 285 286 285 284 282 281 281 281 280 274 275 283 285 286 285 285 286 283 285 285 287 287 287 290 288
309 309 309 309 309 309 310 310 308 306 306 305 305 305 305 305 301 294 298 301 299 294 292 285 279 280 285 281 281 285 282 282 282 282 282 280 280 279 277 281 284 284 284 284 285 286 286 286 286 285 286 287 286 287
308 308 309 309 309 309 309 309 307 306 305 305 305 305 301 297 292 290 299 298 297 293 286 285 277 274 283 282 282 282 283 277 282 279 281 281 278 276 281 282 282 284 284 284 285 286 285 285 284 285 286 286 286 287
307 308 308 308 308 309 309 308 306 305 304 305 300 294 288 293 300 298 290 289 288 289 289 283 282 278 282 281 279 279 281 278 273 280 282 279 279 284 285 285 285 285 286 286 284 282 283 283 284 285 285 286 287 288
307 307 307 307 307 308 308 306 304 304 304 296 292 289 295 300 294 289 286 284 285 282 285 286 285 279 283 277 278 282 275 275 267 276 276 273 276 281 285 286 288 285 286 287 287 288 287 286 285 285 285 286 287 289
307 307 307 307 307 307 306 304 303 300 296 295 294 296 294 290 287 283 282 283 282 280 284 283 284 282 282 284 280 280 277 276 272 279 273 270 279 284 283 284 284 285 286 286 287 287 287 287 287 286 286 287 288 290
306 306 306 307 307 307 305 303 303 301 300 296 291 286 285 284 279 278 276 280 281 283 285 281 278 282 283 281 280 278 276 275 279 270 272 275 282 285 280 283 283 284 287 287 287 288 288 287 287 287 286 287 289 288
306 306 306 306 307 305 302 302 302 300 294 286 284 279 280 278 279 281 278 280 285 282 283 285 279 280 283 282 281 278 279 277 269 269 271 278 284 287 282 283 283 284 286 287 287 287 286 287 286 286 286 287 289 288
306 306 306 306 305 302 302 302 301 297 290 284 284 279 280 280 276 279 280 281 283 287 286 282 280 281 278 281 280 277 271 270 273 273 278 286 285 284 282 283 283 285 286 286 286 286 286 286 285 285 286 287 286 285
306 305 304 304 302 302 302 301 298 294 286 284 284 281 281 280 279 278 275 279 285 288 285 282 278 280 281 280 276 273 270 269 274 277 282 284 283 283 282 284 284 286 287 286 286 286 285 285 285 285 284 281 280 279
304 295 302 302 301 301 301 296 292 285 284 283 282 286 280 278 282 278 282 284 288 287 279 278 276 277 279 277 274 276 271 276 279 281 283 284 284 283 283 283 285 286 286 286 285 285 285 285 285 285 281 280 280 280
294 300 301 301 299 297 295 291 286 284 281 282 278 280 283 281 282 282 283 286 285 282 280 277 281 275 274 269 271 276 278 279 279 282 283 284 283 284 285 284 286 286 285 285 284 283 282 283 285 282 279 279 278 277
297 300 300 299 296 288 285 283 285 281 281 279 276 283 282 281 283 284 286 287 284 283 281 276 277 276 276 277 277 278 280 281 285 282 283 284 284 285 285 285 285 284 284 284 284 285 285 283 281 281 280 279 278 276
300 300 299 298 295 286 283 281 285 283 278 280 280 283 281 279 281 281 283 285 282 277 278 278 278 281 281 281 280 281 283 282 281 280 282 284 286 285 285 285 285 284 282 280 281 283 280 279 280 280 280 280 278 277
297 296 297 296 286 285 284 282 282 284 282 278 283 282 280 280 280 278 276 282 284 281 281 281 285 284 281 280 283 282 284 284 283 284 284 283 284 286 285 284 284 284 283 282 281 280 282 279 279 278 275 279 278 277
294 296 286 289 283 283 281 283 281 282 281 281 282 281 279 278 280 282 284 283 281 282 282 283 285 287 281 281 282 283 284 284 284 285 288 287 284 283 283 284 284 283 283 282 282 282 278 277 276 276 276 275 276 273
294 291 285 285 281 280 277 282 279 277 278 279 281 278 276 275 275 282 280 279 279 279 283 280 279 279 281 278 281 282 283 283 283 284 286 285 285 285 285 284 284 283 282 282 282 282 281 282 281 276 276 273 272 270
292 285 283 281 278 275 279 277 278 277 279 278 276 274 274 279 281 279 276 273 280 280 281 282 282 280 279 280 281 281 281 283 283 283 285 284 284 284 285 284 284 284 283 282 281 278 277 277 279 275 273 271 268 268
283 281 281 276 276 274 274 274 273 269 268 269 265 271 275 276 274 274 270 274 280 283 284 284 284 286 285 284 282 280 278 284 283 282 284 285 283 282 281 281 280 279 282 280 277 276 275 274 273 272 270 269 267 264
276 277 276 275 275 271 270 270 268 267 267 265 267 267 269 272 271 271 273 277 281 283 284 284 285 285 285 286 283 281 281 281 284 282 280 283 283 282 280 278 277 276 276 280 278 275 274 273 271 269 268 271 274 263
274 273 275 278 276 275 274 273 273 271 266 268 269 270 274 273 270 274 274 272 273 275 277 286 287 287 286 284 282 280 280 283 281 278 276 276 278 281 283 281 280 279 276 278 277 276 273 271 269 268 265 263 262 261
276 275 272 274 270 269 269 269 269 270 272 272 272 270 269 270 274 273 271 269 268 273 277 284 286 286 282 280 277 275 274 274 274 275 276 274 274 275 276 277 278 280 277 276 275 273 272 271 268 266 265 264 260 258
270 275 274 267 266 266 267 271 270 270 273 273 271 269 271 270 267 266 268 269 272 274 277 277 276 277 276 276 276 277 277 279 279 279 277 273 273 272 275 276 275 275 276 275 277 272 267 268 267 266 264 262 260 257
270 273 269 262 265 266 265 266 266 269 270 271 271 268 268 267 267 267 269 271 273 275 276 276 277 277 276 275 274 274 273 274 278 282 278 276 276 272 273 273 273 273 274 273 273 274 277 271 269 261 261 260 259 258
272 269 265 264 262 264 266 267 270 272 270 266 266 267 266 265 267 269 269 271 273 275 276 276 277 278 278 276 277 276 275 273 275 277 277 274 273 272 272 272 272 273 273 272 270 268 267 262 262 261 260 259 260 259
271 266 264 262 262 266 269 271 272 270 271 273 272 271 266 267 269 269 269 269 272 274 277 277 277 277 280 281 281 281 282 273 276 275 274 273 272 271 270 270 270 270 269 268 266 264 263 262 260 260 259 257 255 254
269 268 267 266 268 266 269 268 271 269 272 272 269 268 270 268 269 269 268 270 272 275 276 277 278 278 278 278 276 276 276 274 276 278 278 276 275 273 270 269 269 268 267 265 264 263 262 260 259 257 257 256 254 253

GFSWCAN_sfc_thetae_120.txt.gz
Theta_e
314 314 313 313 313 313 313 313 313 312 310 307 307 307 306 306 307 298 293 297 293 287 288 289 289 285 284 282 280 282 281 282 280 278 276 275 274 277 275 276 276 275 272 270 272 270 270 287 286 280 283 287 289 289
313 313 313 313 312 312 312 313 313 312 309 307 307 307 306 306 306 302 293 299 300 292 289 291 290 291 290 289 285 283 282 282 282 280 276 275 277 271 274 271 278 275 278 276 277 277 282 288 286 288 289 289 289 289
312 313 313 312 312 312 312 312 312 312 309 308 307 306 306 306 306 303 299 301 300 295 291 288 289 290 290 290 290 284 283 285 284 284 278 279 278 278 274 274 274 279 281 279 280 279 283 287 289 289 289 289 289 289
312 312 312 312 312 311 312 312 312 312 310 308 307 306 306 306 306 306 299 298 299 294 283 286 290 287 289 289 289 289 287 287 286 284 278 277 277 281 277 278 277 280 281 279 279 281 282 285 287 289 290 288 287 287
311 311 311 311 311 311 311 311 311 312 310 308 307 306 306 306 307 303 302 301 303 292 283 284 287 288 288 288 288 288 287 285 282 280 279 280 281 280 278 277 276 280 281 279 279 283 283 282 285 289 287 287 287 286
310 311 311 311 311 310 310 310 311 311 310 308 306 306 306 306 306 300 294 301 302 298 290 281 286 284 286 286 286 285 286 284 283 282 282 282 284 280 275 275 281 281 283 285 283 283 284 284 285 287 287 287 287 286
310 310 310 310 310 310 310 310 310 310 309 307 306 305 306 306 300 295 292 295 301 300 290 285 282 284 285 285 284 284 284 283 283 281 280 281 281 281 275 277 282 284 285 285 284 285 283 285 286 287 287 287 290 286
310 310 310 310 310 310 309 310 310 310 309 307 306 305 306 306 302 295 299 303 300 295 292 285 280 280 284 281 280 283 281 281 281 281 281 280 280 279 276 281 283 286 285 283 283 287 286 286 285 285 285 286 285 285
309 309 309 309 309 309 309 309 309 309 308 306 305 305 302 298 292 292 300 301 298 293 286 285 280 275 283 281 282 281 282 277 281 278 279 281 278 275 281 283 284 285 284 285 284 285 284 285 285 284 284 285 284 285
308 308 308 309 309 309 309 309 309 308 306 304 300 294 289 294 300 299 291 289 290 290 288 284 282 278 282 282 281 278 280 278 272 280 281 278 278 282 285 287 288 287 286 284 282 282 282 282 284 284 285 286 286 286
308 308 308 308 308 308 308 309 309 305 303 296 292 289 295 300 294 290 285 284 286 282 285 286 285 280 283 280 280 282 274 274 266 275 275 272 273 279 287 288 289 288 287 286 288 288 288 286 285 284 284 285 286 287
307 307 307 307 307 308 308 308 306 300 296 295 294 296 294 290 285 282 281 283 282 280 283 283 282 284 282 285 282 281 275 275 271 278 272 270 275 282 284 286 285 284 286 286 287 286 286 286 286 286 285 286 286 287
307 307 307 307 307 308 308 307 303 301 300 296 289 285 284 284 280 277 274 278 279 283 285 284 281 284 283 285 282 280 276 274 278 274 273 274 278 282 284 286 284 284 284 285 285 286 286 286 286 286 285 286 287 287
307 307 307 307 307 307 307 304 302 299 293 285 284 279 280 278 279 278 278 280 284 283 285 286 281 282 284 282 282 277 278 277 270 270 269 275 280 285 285 285 284 283 284 285 286 286 286 285 285 285 286 287 287 286
306 306 306 306 306 306 306 303 301 297 287 284 284 278 279 279 275 281 282 283 283 288 287 283 283 282 280 281 279 277 273 270 273 272 276 281 283 284 284 284 284 284 285 286 286 285 285 285 284 284 285 285 285 285
306 306 305 306 306 306 303 300 297 291 285 284 283 281 281 280 279 280 279 284 286 288 287 285 281 278 278 277 276 273 270 269 274 276 280 279 283 283 283 284 284 285 286 286 286 286 285 285 284 284 283 283 283 285
305 302 305 305 305 304 301 294 287 284 284 283 282 283 281 281 281 281 284 285 290 287 282 281 275 275 278 276 275 275 271 276 279 279 279 282 283 283 282 284 285 286 286 286 286 285 285 285 285 283 280 280 280 279
301 302 305 305 303 298 292 285 285 284 281 283 281 283 281 281 283 283 284 288 288 286 283 280 280 271 273 271 271 276 277 278 279 281 283 283 282 282 283 282 285 286 285 286 286 285 284 283 283 283 280 278 278 277
299 303 305 303 295 288 284 283 285 282 278 283 280 285 283 282 284 289 287 289 287 286 283 277 276 272 275 276 277 277 277 278 282 282 281 281 282 282 282 281 283 283 285 284 285 285 285 284 284 282 280 279 279 278
303 304 302 298 296 286 282 281 285 282 280 281 279 282 282 282 284 286 286 287 285 282 276 276 281 280 280 282 282 285 283 282 281 280 281 281 281 278 281 283 285 284 285 282 283 285 282 281 280 279 279 280 278 278
301 301 298 294 285 285 283 281 284 283 282 281 280 283 280 281 281 281 283 286 283 277 278 281 284 286 287 284 282 282 281 281 281 282 282 277 282 284 281 282 285 285 284 284 283 283 284 282 280 279 281 279 278 277
292 294 287 288 283 283 281 283 280 282 280 282 282 281 280 280 280 280 280 282 282 285 284 286 287 288 286 279 281 280 283 281 282 282 286 286 282 283 283 284 284 284 284 284 283 283 281 280 279 278 278 276 277 276
292 289 285 284 280 280 277 282 278 279 278 279 282 277 276 276 280 284 281 283 284 281 288 287 286 284 287 285 281 280 280 281 281 282 284 285 284 284 285 285 286 285 283 283 284 282 280 281 282 277 278 275 275 275
292 285 282 280 279 275 279 277 278 278 280 278 277 275 273 278 281 278 275 272 281 286 286 284 285 278 277 274 280 283 281 283 283 281 285 284 283 283 285 285 285 285 284 283 282 281 281 277 280 277 275 274 273 272
283 281 280 275 277 274 272 272 273 274 274 274 272 271 275 279 277 274 269 273 280 282 283 284 285 284 284 285 285 282 279 284 283 282 284 285 284 283 282 282 281 281 283 281 279 279 278 276 275 275 273 273 271 267
276 277 277 274 272 271 271 270 271 271 275 273 269 270 265 272 269 270 270 272 280 280 283 284 283 282 284 286 285 281 281 284 285 283 283 285 284 283 281 280 279 278 278 282 279 277 275 275 274 273 272 274 275 265
274 271 275 278 275 274 273 275 275 274 270 269 273 271 269 267 267 272 270 267 267 269 272 275 280 284 285 285 284 286 285 286 286 283 282 283 284 285 285 283 281 281 279 280 279 278 275 274 273 272 269 267 265 264
276 272 272 272 272 273 273 273 273 271 270 271 273 271 270 272 273 270 268 266 265 267 271 278 280 285 285 285 282 279 277 277 276 277 277 276 276 278 279 280 279 282 280 280 279 277 275 273 271 269 267 264 260 259
272 275 276 271 270 271 271 273 274 273 275 276 274 270 270 270 265 264 266 265 265 267 276 278 277 279 278 279 279 279 277 279 279 278 278 274 275 274 279 280 279 279 279 278 280 276 272 271 269 267 265 264 262 261
274 274 270 266 269 269 267 268 269 268 270 270 270 267 267 265 264 263 264 263 265 269 276 277 277 277 276 276 275 275 276 281 284 283 279 278 277 274 276 276 276 276 276 275 275 276 278 273 270 265 263 262 262 260
273 270 268 266 265 265 266 267 268 270 265 263 262 264 265 263 265 264 264 264 267 271 273 275 277 278 277 276 277 276 276 275 280 279 278 276 276 275 275 275 275 275 275 275 272 270 269 265 264 263 262 261 262 261
268 263 265 263 263 267 268 265 269 267 267 265 264 261 263 265 266 265 264 265 269 271 276 277 277 277 279 281 281 282 281 277 278 276 276 275 275 275 274 275 275 274 272 270 268 266 266 264 263 262 261 259 259 258
265 262 260 262 266 265 265 264 267 264 265 265 265 264 265 269 269 267 265 265 268 271 274 277 278 280 280 279 278 278 278 276 278 280 280 278 277 275 273 273 272 270 269 267 266 265 264 262 261 260 259 258 257 255